GFSMA_850_spd_000.txt.gz
Wind_Speed
7 6 5 6 7 8 9 10 10 11 13 14 14 15 13 13 12 13 11 9 10 10 9 9 11 11 11 11 12 14 14 12 12 12 12 11 10 10 10 10 9 9 8
10 8 8 8 8 9 10 11 12 13 14 15 13 13 13 13 13 12 13 12 13 12 12 12 10 13 11 12 14 14 13 16 13 13 13 14 12 11 11 10 10 9 8
10 10 8 8 8 10 12 13 15 15 15 14 13 12 13 13 13 13 13 12 12 13 13 12 13 12 13 13 14 14 14 15 16 15 14 14 13 12 11 11 10 10 10
12 11 11 10 11 12 13 14 13 13 13 14 15 14 13 10 11 9 11 14 16 16 16 14 14 14 13 15 16 15 16 15 16 17 17 17 16 15 14 14 13 12 12
13 13 13 14 15 14 15 13 12 12 12 12 13 13 11 8 6 7 8 9 12 16 15 15 15 15 16 17 17 18 17 18 17 17 18 19 18 18 17 17 16 15 14
15 15 14 11 14 14 12 13 13 12 12 11 12 10 8 4 2 2 3 3 5 9 14 16 16 16 18 17 17 19 19 20 20 21 20 19 19 19 20 19 18 17 17
17 16 16 15 12 12 15 14 12 13 11 13 12 10 3 4 4 3 3 4 5 7 7 9 15 18 19 18 19 19 19 20 21 22 23 23 21 21 21 22 21 20 19
15 13 12 12 15 16 15 12 11 11 11 9 11 10 5 2 2 3 2 4 6 7 8 8 8 10 12 16 18 18 18 19 21 23 24 24 24 24 23 23 23 23 23
10 10 12 15 12 6 4 8 10 10 9 8 7 6 4 2 10 1 3 6 8 8 7 9 11 12 12 12 14 16 18 19 20 21 23 25 27 27 27 26 25 25 25
12 11 12 8 7 4 6 9 8 8 9 8 7 4 4 7 3 4 5 6 10 10 9 9 9 11 14 16 18 20 21 21 22 24 25 24 26 28 30 29 28 28 27
13 10 8 6 6 6 8 9 7 7 7 7 5 5 5 5 6 8 9 13 9 10 11 12 12 12 10 11 14 17 20 23 25 25 27 28 28 28 29 31 30 30 29
13 11 10 9 7 6 9 5 4 4 5 5 5 3 2 4 5 6 11 15 14 15 16 16 14 13 13 13 14 15 17 19 23 27 29 31 31 32 32 33 33 31 30
14 11 10 10 7 8 5 4 3 4 3 3 5 6 7 8 9 10 12 13 18 21 23 22 17 14 15 14 17 17 16 18 21 23 29 33 34 33 35 34 35 35 34
12 11 9 10 10 9 9 10 8 8 8 6 7 9 11 11 13 13 15 16 18 22 26 27 23 19 20 19 19 19 21 19 20 23 26 29 36 36 36 37 36 36 36
14 11 12 11 11 10 12 13 12 11 10 11 12 13 14 15 16 16 18 19 19 23 27 25 28 25 23 24 21 24 25 23 23 26 28 29 31 37 39 39 39 38 37
15 15 15 13 13 12 12 13 14 12 12 13 15 16 17 18 18 19 20 20 22 24 31 30 28 26 27 26 26 27 28 28 30 31 29 29 32 34 40 42 42 43 41
17 17 16 15 15 13 12 12 11 11 13 13 14 17 16 17 18 19 20 22 23 24 30 34 32 28 30 31 30 30 31 33 36 36 35 34 33 34 37 43 43 44 46
17 17 16 16 16 15 12 11 10 9 10 11 12 14 16 16 19 19 21 22 24 25 29 32 34 34 33 32 32 34 34 34 37 37 43 42 35 33 36 40 45 46 46
19 17 18 17 15 13 11 10 9 9 11 13 14 16 16 17 19 19 21 23 25 26 29 31 34 36 37 34 35 34 37 38 40 46 48 49 43 34 34 38 44 47 47
20 19 18 16 15 13 12 11 12 13 14 16 17 17 17 17 19 21 23 25 26 27 28 29 32 37 37 35 36 38 41 40 44 48 52 56 48 40 32 35 42 47 48
22 20 19 18 16 16 14 12 13 15 17 18 18 18 18 19 20 24 27 26 25 28 29 30 32 34 37 36 39 39 41 44 47 51 55 54 48 51 37 30 35 44 47
23 23 24 21 19 18 13 13 14 17 18 20 21 21 21 23 21 20 19 23 27 28 29 30 31 31 35 39 39 40 42 46 47 43 49 57 47 46 43 38 32 34 44
25 26 27 24 23 19 14 16 18 21 22 22 22 23 25 24 25 22 23 26 27 26 27 28 29 32 36 38 40 42 41 46 51 58 53 59 46 47 42 41 35 36 39
29 27 25 24 25 21 18 20 22 24 24 24 25 25 25 26 26 25 27 26 27 27 26 27 28 31 34 37 37 37 38 44 52 48 49 52 48 47 43 40 35 39 36
31 27 24 23 24 24 22 22 24 26 25 24 23 24 25 26 26 27 26 27 28 26 24 26 28 31 34 31 27 27 32 43 45 52 50 45 47 45 42 42 36 39 34
36 32 24 19 17 25 26 28 25 24 24 20 20 23 23 26 25 22 23 24 23 21 25 28 30 33 29 24 23 24 36 45 47 58 48 42 43 37 31 37 35 39 34

GFSMA_850_spd_003.txt.gz
Wind_Speed
6 6 7 5 6 7 8 8 10 10 13 13 15 14 13 14 13 11 11 10 9 8 9 7 9 11 9 10 11 12 11 10 10 11 11 14 12 11 10 9 9 8 8
10 9 9 8 8 8 8 10 12 13 14 16 15 15 14 14 15 13 11 11 11 11 11 10 10 11 13 11 10 12 14 14 13 12 13 11 12 12 11 11 10 9 9
10 10 10 8 8 8 10 13 14 15 15 14 15 16 15 14 13 13 13 12 12 12 12 11 11 11 12 15 14 12 11 12 15 14 13 13 14 13 12 12 11 10 10
12 10 11 10 9 11 13 15 13 14 14 13 13 13 14 12 10 8 8 10 13 14 14 15 13 12 12 14 15 15 14 15 14 16 17 15 14 14 14 14 13 12 11
13 13 12 10 13 15 15 15 14 12 13 11 12 12 10 8 7 5 6 7 7 9 14 15 15 14 13 14 15 15 16 18 18 17 16 17 18 17 16 16 16 15 14
14 13 14 13 13 14 15 14 14 12 10 11 11 9 8 2 3 2 3 4 4 6 7 10 14 14 14 15 16 15 17 18 19 19 20 19 18 17 18 18 18 17 17
15 14 14 15 15 14 14 15 12 11 9 11 9 6 4 3 5 1 2 3 5 6 7 7 7 10 14 16 16 15 17 17 18 20 20 22 22 21 19 19 19 19 19
16 16 15 14 13 14 13 10 8 8 9 8 5 6 3 0 1 2 3 5 5 6 6 7 8 8 9 10 12 15 17 17 18 20 21 22 22 23 23 22 21 21 21
15 13 12 13 15 10 5 5 8 7 4 6 4 2 2 1 6 1 2 7 9 10 9 8 7 9 10 11 11 12 13 16 19 20 21 22 22 23 24 24 24 23 23
14 13 12 13 10 7 6 6 7 5 5 4 6 4 4 4 3 3 4 4 7 7 8 8 9 10 9 9 10 12 15 17 19 20 23 25 25 24 25 26 28 28 27
13 12 11 10 7 8 7 7 6 6 6 6 4 4 6 6 6 3 8 8 7 6 10 13 13 10 11 11 12 12 11 13 16 19 21 24 27 29 29 29 29 30 30
17 15 12 10 8 8 7 7 6 5 5 5 5 5 4 4 4 6 10 11 12 9 13 13 15 13 13 13 12 11 13 14 15 17 19 21 25 28 31 33 32 32 32
16 14 12 11 11 9 8 6 5 3 3 3 4 6 8 8 8 8 9 12 14 14 12 16 16 14 14 15 14 16 14 14 16 16 18 21 23 25 30 34 35 36 36
15 13 13 12 12 11 9 8 6 7 8 7 8 9 8 10 11 12 11 12 16 16 15 15 14 15 17 16 15 16 19 20 18 17 18 20 23 25 27 30 36 37 38
18 16 15 12 12 12 11 11 11 11 11 11 13 13 11 11 13 15 17 16 14 17 20 18 15 15 18 20 20 21 22 20 20 21 23 24 23 25 28 30 31 38 41
19 18 16 15 14 12 12 14 13 14 13 12 13 15 15 13 14 15 16 17 20 18 24 19 21 20 24 24 23 22 23 26 24 24 24 23 24 26 28 30 34 35 41
18 20 18 16 16 14 13 13 13 14 13 13 12 11 12 13 13 15 16 19 21 20 21 25 21 22 26 26 27 27 27 28 27 29 29 29 31 29 30 31 33 36 38
21 19 19 18 17 16 15 14 14 14 15 12 10 10 11 13 14 17 18 19 20 20 22 23 27 24 22 27 30 31 29 27 30 31 32 33 35 35 36 35 33 36 40
16 21 22 21 19 18 17 16 14 15 14 13 12 13 15 16 17 18 19 21 20 23 21 23 25 25 25 23 25 26 25 26 26 28 32 36 40 42 44 37 32 33 39
14 24 24 23 21 19 18 16 15 16 15 16 16 16 18 18 18 19 21 23 24 24 22 22 24 25 25 24 23 24 27 26 29 28 30 33 37 39 42 45 43 36 36
36 28 27 26 23 21 19 18 17 18 18 18 18 18 20 19 20 22 22 23 22 22 20 22 25 25 26 26 27 26 28 29 31 30 32 32 32 40 40 41 41 39 33
13 43 35 31 26 25 20 18 19 21 21 21 20 19 21 23 24 25 25 25 25 27 30 28 27 27 26 27 27 27 29 32 38 30 31 42 36 44 47 45 43 41 36
25 46 40 35 32 27 22 20 22 23 23 22 23 24 26 26 26 27 27 27 27 29 30 29 30 29 26 27 29 30 32 32 36 34 36 51 44 51 56 54 44 43 38
29 36 38 35 31 28 24 21 22 22 25 26 24 28 27 26 25 25 29 27 28 28 27 26 24 27 29 32 34 35 38 36 37 32 33 49 53 61 55 50 47 43 39
28 36 37 30 26 25 26 23 25 25 29 27 28 27 24 22 23 24 26 26 23 24 23 23 25 28 29 31 30 29 32 26 32 35 40 51 57 58 54 53 48 40 37
30 34 34 25 22 21 23 28 29 35 38 25 26 25 21 22 23 23 22 21 21 21 23 24 26 28 26 24 23 20 22 26 31 44 48 50 53 49 49 45 34 26 27

GFSMA_850_spd_006.txt.gz
Wind_Speed
10 6 7 6 5 6 6 6 7 7 8 9 9 9 8 10 10 7 6 13 8 7 6 6 6 8 8 8 10 9 8 7 8 9 8 10 11 11 11 11 10 10 9
12 7 8 7 7 6 6 5 8 8 9 10 9 9 10 9 10 9 7 8 10 9 8 8 8 8 10 10 9 11 10 10 9 9 10 11 13 11 11 11 12 11 10
12 10 9 8 7 8 9 8 9 9 10 11 11 11 10 10 8 7 5 6 7 10 8 9 9 9 9 10 12 9 9 11 11 13 11 12 12 13 12 11 12 12 11
11 10 10 9 10 11 10 9 8 9 11 11 11 10 10 9 8 6 4 3 5 5 10 10 11 9 9 10 10 12 13 12 12 13 14 14 14 14 14 13 12 12 12
13 10 11 9 11 10 12 9 8 11 10 10 9 10 9 6 5 3 3 3 2 2 4 11 12 11 10 11 11 12 12 14 15 15 16 15 16 17 17 16 15 14 14
10 12 10 11 11 10 8 9 10 9 9 8 8 7 5 2 3 2 3 4 4 4 2 0 5 7 11 12 13 13 13 14 16 15 17 18 18 17 18 18 18 17 16
13 14 10 10 9 8 8 9 9 9 5 7 5 4 3 1 4 2 2 3 4 4 4 4 2 1 5 8 13 15 16 17 16 18 17 18 20 21 21 20 19 19 19
13 10 10 8 11 7 9 6 5 4 5 5 3 4 3 3 2 1 1 4 4 4 5 5 4 2 1 2 8 10 15 17 17 18 20 20 20 21 23 24 23 22 21
10 10 10 8 9 8 6 3 4 5 3 4 2 2 3 1 4 2 1 2 5 5 5 6 4 3 3 2 2 6 10 13 16 19 20 21 22 22 24 25 25 25 25
10 10 8 8 10 5 6 3 4 3 2 3 4 3 2 3 4 3 3 4 3 3 4 4 4 4 4 2 6 8 9 11 14 17 19 20 22 24 25 25 27 27 27
11 11 10 10 8 5 7 5 3 3 4 4 4 4 4 4 4 3 8 5 7 4 4 4 4 4 4 3 3 8 10 11 11 12 15 19 22 24 25 28 28 28 28
12 13 12 12 8 7 7 5 6 5 4 5 4 5 4 4 4 6 8 9 9 8 8 8 7 6 7 6 8 10 10 11 12 13 14 16 17 20 23 27 29 31 32
12 14 15 13 8 8 7 6 7 6 4 3 5 5 6 7 7 7 8 9 11 11 11 9 8 9 8 8 9 13 12 12 11 12 13 15 16 18 20 22 26 30 33
13 12 12 13 10 10 9 8 7 6 7 6 6 6 7 8 9 10 11 12 14 13 12 10 7 11 9 11 12 15 12 19 14 14 15 16 17 18 18 19 22 27 30
13 14 13 13 10 11 11 10 9 9 9 8 9 9 10 10 11 12 13 13 14 17 16 14 15 13 13 14 15 16 16 17 20 20 18 18 18 19 20 20 21 24 28
16 15 15 14 12 11 12 12 11 11 11 10 9 10 11 10 12 12 12 13 14 18 22 17 16 16 17 17 16 19 17 21 21 23 21 20 21 21 22 23 24 25 27
17 16 15 16 13 13 14 15 14 13 12 11 11 12 11 12 10 11 11 14 15 15 20 23 19 18 18 19 19 20 21 21 21 23 26 28 24 26 25 26 24 26 29
20 15 11 14 16 15 15 17 16 13 13 13 13 13 11 10 11 12 13 13 16 15 20 23 23 21 20 20 20 22 23 22 22 23 29 29 26 27 28 27 27 26 27
21 20 27 28 21 24 21 20 19 17 15 14 14 13 13 13 14 13 15 15 16 17 20 22 22 21 23 21 22 25 21 25 22 22 26 27 32 33 31 31 32 37 35
30 31 37 33 35 28 28 23 20 19 18 16 16 15 15 15 15 15 16 16 17 18 21 22 23 24 22 25 25 24 24 25 26 26 28 31 31 32 32 29 36 38 38
41 41 40 45 37 32 29 26 23 20 19 18 17 17 17 17 17 18 18 19 23 22 23 24 26 26 28 25 25 26 27 27 28 28 29 30 32 31 30 33 35 38 44
49 49 46 41 35 33 28 27 25 20 19 17 16 17 19 19 24 22 22 24 25 27 28 26 27 29 29 25 24 25 27 28 32 26 32 34 31 34 34 35 42 49 55
49 48 45 37 28 36 30 27 24 23 19 17 18 20 21 23 22 25 25 24 25 27 28 29 24 24 25 23 24 27 26 29 33 34 33 35 28 35 38 43 51 52 56
42 45 38 35 25 32 32 31 26 26 26 22 24 23 25 23 24 26 25 20 24 24 20 22 21 22 21 25 30 31 32 32 32 28 27 35 32 38 46 48 55 57 51
33 31 31 27 23 26 28 27 28 27 25 30 26 30 34 35 24 25 23 24 23 21 18 22 25 24 26 28 29 28 24 24 27 28 26 32 36 43 50 62 56 48 37
24 25 24 22 22 23 21 24 25 28 30 27 27 30 28 21 21 22 22 22 17 16 16 18 20 19 22 21 24 25 24 24 27 31 29 32 38 45 50 52 50 48 38

GFSMA_850_spd_012.txt.gz
Wind_Speed
9 6 6 5 7 9 9 6 6 5 9 11 11 7 11 6 7 3 6 9 11 8 3 4 6 8 6 7 9 8 8 8 8 8 8 8 8 8 7 6 6 5 6
10 8 9 7 6 7 8 6 8 6 6 6 6 8 13 8 10 5 4 5 8 9 4 3 5 5 9 8 7 8 9 8 6 8 8 7 8 8 8 7 7 7 7
14 12 6 7 7 9 11 10 7 9 6 10 4 8 8 8 5 12 4 6 5 6 5 5 4 6 6 9 9 8 8 11 9 9 8 9 10 10 9 8 7 7 8
12 12 4 9 3 12 5 9 7 9 7 6 6 6 7 6 7 7 4 2 2 5 7 4 2 4 5 7 8 10 11 9 9 11 11 12 11 11 10 10 10 9 8
11 6 6 10 5 12 10 9 6 4 4 5 4 5 3 2 3 2 2 4 2 4 2 3 5 6 4 6 7 9 10 12 13 12 12 13 13 14 13 12 11 10 10
12 12 7 10 13 9 6 10 2 6 5 5 5 6 4 3 3 2 4 3 6 6 4 5 4 7 3 5 7 9 10 11 12 13 14 15 15 16 15 15 14 14 14
13 14 12 11 7 5 9 8 10 11 1 4 8 7 10 2 6 5 3 3 6 4 5 4 3 4 4 3 3 6 9 10 12 13 13 15 16 16 17 18 17 16 15
13 11 9 5 6 4 5 10 12 4 3 5 5 6 6 8 7 10 3 3 6 4 3 2 5 4 2 3 6 8 7 8 10 12 13 14 16 17 17 18 18 19 19
13 10 11 8 8 10 9 7 4 2 2 1 7 3 5 3 9 10 4 7 3 5 3 4 8 8 1 5 8 6 7 6 8 9 10 12 14 16 17 18 18 19 20
10 18 11 9 14 8 8 6 2 5 3 2 2 3 6 2 3 4 9 6 2 2 2 4 3 9 8 6 10 12 9 7 8 9 11 12 14 15 16 17 18 20 20
6 8 11 14 13 9 9 10 10 7 6 5 4 4 1 4 2 1 2 5 2 6 4 1 5 5 6 9 11 14 13 16 14 12 12 12 13 13 15 16 18 20 21
15 19 18 17 13 10 11 8 8 7 12 9 8 7 1 3 4 3 5 6 5 6 9 7 6 5 10 9 9 13 17 18 17 14 13 14 13 14 14 14 16 17 19
19 15 21 18 14 11 13 9 7 7 6 10 7 10 3 6 5 4 5 8 7 11 8 4 9 8 13 11 11 13 17 20 17 16 16 17 16 16 17 17 17 17 17
18 22 18 18 14 12 15 13 11 11 8 5 10 13 10 5 5 7 8 9 12 13 11 6 9 11 12 10 11 13 16 15 24 27 23 19 19 21 21 20 19 20 20
19 24 23 22 19 18 13 14 11 9 12 9 9 7 6 10 5 8 8 7 5 10 11 11 11 10 6 9 12 15 17 22 28 26 20 20 21 21 23 24 23 22 23
24 23 27 26 22 19 19 17 13 17 12 10 10 9 10 10 10 9 9 8 9 11 8 10 9 5 10 14 17 17 18 26 23 22 25 24 23 24 27 25 25 26 26
28 28 27 28 23 22 21 19 18 15 15 12 10 16 16 15 15 13 10 9 9 8 12 16 18 15 18 18 17 18 21 21 19 20 23 24 27 29 26 20 21 23 24
35 34 36 32 29 26 25 22 20 23 22 17 14 13 17 18 11 10 9 7 10 13 16 18 14 17 17 19 20 24 22 23 22 24 25 25 29 31 29 23 24 27 25
40 40 39 38 35 33 32 26 21 20 21 20 19 15 14 16 17 15 14 15 17 16 15 17 21 19 24 22 23 23 23 24 25 27 27 22 25 27 26 29 31 30 25
42 42 43 41 37 37 35 30 25 22 20 21 21 18 16 16 18 19 20 19 17 16 17 15 19 20 20 26 26 24 20 22 30 27 27 25 30 29 30 26 25 27 27
42 40 41 40 38 38 37 33 29 25 21 21 21 19 18 21 22 22 20 18 18 19 21 25 26 28 30 26 27 32 35 37 36 31 25 24 29 30 31 31 29 31 35
35 36 38 38 40 40 37 34 28 24 22 24 23 22 21 18 19 19 23 22 24 25 25 25 28 28 29 30 32 31 27 28 31 27 25 29 32 37 41 40 33 24 28
34 38 37 37 38 37 32 27 25 23 23 25 22 23 19 20 21 21 23 24 26 25 28 31 26 27 28 29 27 26 27 28 32 36 34 30 25 28 26 26 29 28 27
39 38 36 35 37 36 32 35 30 26 28 25 24 22 19 20 21 22 25 25 26 27 29 25 26 27 26 26 25 27 32 28 25 22 20 28 26 33 30 26 28 26 30
34 33 30 31 34 30 28 33 31 31 28 31 29 24 24 23 23 22 24 28 28 29 23 23 22 23 25 27 27 22 23 24 27 25 20 29 31 30 27 32 38 42 38
28 26 24 25 26 23 26 23 19 21 27 29 26 24 24 23 23 23 25 28 26 22 20 19 22 24 25 27 17 20 24 29 28 27 21 25 29 36 39 37 33 40 38

GFSMA_850_spd_015.txt.gz
Wind_Speed
2 3 1 6 6 7 6 8 6 7 10 2 6 8 11 7 2 6 4 4 4 6 1 6 7 6 7 7 8 7 7 7 7 9 9 7 7 7 7 6 6 5 5
6 8 4 2 3 4 3 7 9 8 3 5 3 2 8 4 9 5 1 1 1 3 1 2 4 6 7 6 7 7 6 6 7 7 7 9 9 8 7 7 7 7 6
7 12 7 6 4 5 6 5 7 6 2 4 6 7 5 7 6 9 6 3 1 1 3 2 2 4 4 7 7 7 7 9 8 6 7 8 8 8 9 9 8 7 7
13 6 6 5 6 5 7 6 8 4 2 1 2 2 5 5 6 6 5 1 5 3 3 2 3 2 1 3 5 8 8 8 10 10 10 10 9 9 9 10 10 9 8
10 6 4 6 4 5 6 8 7 5 5 7 2 5 3 2 3 4 5 7 3 4 2 1 1 1 3 5 5 6 8 11 12 11 11 12 11 12 13 12 11 11 10
13 9 5 7 6 8 9 7 4 6 8 1 2 1 4 2 5 5 7 7 8 7 6 4 2 3 3 4 4 6 8 9 11 13 14 13 14 15 15 15 15 15 14
14 10 12 9 8 7 4 7 8 11 4 2 5 2 8 2 7 4 3 6 6 3 2 3 2 0 2 1 0 2 6 8 10 12 12 12 14 15 16 17 18 16 16
12 10 7 9 8 8 7 8 8 5 5 4 4 3 3 9 9 7 5 5 4 3 2 2 6 4 5 2 4 5 4 6 9 11 12 13 13 15 16 17 17 18 19
14 11 11 10 8 10 10 8 7 10 8 7 4 2 3 4 9 9 5 2 2 3 1 2 4 5 6 5 6 6 7 4 5 7 9 10 12 14 16 16 17 18 18
15 12 15 11 14 13 13 9 4 7 11 7 5 2 6 1 4 7 10 5 3 2 1 2 6 3 6 8 9 9 7 5 8 7 8 8 9 11 13 15 17 18 18
16 12 14 14 14 11 13 11 8 8 19 15 10 10 4 3 5 4 6 12 7 9 5 5 5 6 4 5 10 11 12 10 12 11 10 10 10 9 10 11 13 15 17
20 13 16 15 13 13 15 11 10 10 13 15 14 12 9 5 5 4 4 1 2 6 8 9 7 7 9 10 13 12 13 12 13 15 15 14 13 12 13 12 12 12 14
22 18 18 19 14 15 15 12 9 10 14 13 16 16 12 9 6 6 5 4 6 8 6 4 11 10 9 14 16 13 13 14 15 19 20 18 16 15 16 16 16 16 16
21 18 19 15 15 14 14 14 11 10 12 13 15 19 20 15 13 9 8 9 9 10 7 1 2 4 11 12 13 13 15 18 18 22 23 19 14 14 14 16 18 20 20
21 19 19 19 17 15 16 16 13 13 12 12 13 18 22 18 16 11 7 8 9 10 8 3 4 4 7 10 11 14 16 20 22 23 22 19 15 15 17 19 18 17 19
28 23 25 23 22 20 18 19 17 15 14 13 13 13 18 22 21 17 11 10 6 9 12 8 9 7 9 11 13 16 18 18 19 20 20 18 18 18 21 22 21 19 16
32 32 29 27 27 25 22 23 20 18 18 18 18 16 16 19 23 18 17 14 10 8 9 11 14 15 15 15 14 17 20 22 23 24 23 20 22 23 24 25 25 22 21
36 30 32 32 30 29 26 27 24 23 20 20 20 19 20 19 18 17 20 19 15 14 15 17 18 18 15 14 18 18 17 19 21 25 22 23 25 24 24 25 27 27 28
41 40 38 37 38 35 32 30 27 25 24 23 22 22 20 23 25 20 18 19 18 16 16 20 22 21 19 17 17 17 21 22 22 17 18 27 29 28 26 26 25 25 23
41 42 42 41 40 39 37 34 30 28 26 27 26 25 23 21 21 23 20 19 16 17 19 22 22 20 23 23 26 25 25 26 29 31 31 28 26 26 27 27 26 24 23
45 41 41 42 42 40 38 36 33 30 31 27 24 25 26 24 22 22 23 21 21 22 22 24 25 24 27 29 29 26 28 30 29 28 29 28 27 27 28 30 32 33 34
41 44 41 40 41 39 38 38 37 32 32 28 23 24 26 27 27 26 25 21 21 23 25 24 26 27 31 28 24 26 29 30 28 30 30 32 30 26 21 22 23 19 20
36 35 34 35 36 36 33 35 36 31 31 29 25 24 27 29 26 24 24 24 23 25 25 24 25 31 26 25 25 27 25 25 29 29 23 25 19 20 23 26 25 24 20
35 33 32 33 33 34 36 34 30 28 28 26 25 27 29 26 25 24 23 21 24 23 23 26 29 26 24 23 23 24 26 28 25 21 21 28 26 27 28 27 28 25 26
34 33 32 28 30 33 32 30 27 28 31 30 26 30 28 25 23 23 21 23 24 25 25 28 23 22 22 23 24 23 25 29 29 28 26 27 24 27 33 36 30 26 27
29 26 28 28 28 26 24 22 21 25 26 28 26 28 28 22 23 21 23 24 24 26 24 20 21 22 23 23 24 26 24 29 28 30 23 24 27 28 35 34 33 31 33

GFSMA_850_spd_018.txt.gz
Wind_Speed
3 1 1 1 3 3 3 4 3 5 5 4 2 3 4 5 3 6 3 1 1 2 5 8 8 9 10 11 11 11 9 9 11 11 10 9 9 8 8 7 6 6 6
4 3 3 4 1 2 1 0 4 2 3 3 3 3 3 2 5 4 1 1 1 3 3 5 7 10 9 10 11 11 10 8 8 10 10 10 8 8 9 7 7 7 8
8 5 7 4 5 3 3 4 6 4 4 4 3 3 3 3 3 10 7 2 3 1 3 3 6 7 9 11 9 10 11 10 8 9 10 9 10 11 10 9 9 8 9
7 7 7 6 7 6 5 6 5 6 5 4 2 2 4 1 3 3 2 4 5 4 1 1 3 3 6 8 10 11 10 10 11 11 10 9 9 9 10 10 11 10 9
8 5 5 5 5 5 7 4 4 3 2 4 5 3 5 5 3 5 7 4 5 4 3 1 2 2 5 6 7 9 10 11 12 12 12 11 11 11 11 11 11 12 12
9 8 7 7 7 5 5 5 5 3 8 3 5 9 6 2 5 6 6 3 4 6 4 2 2 5 4 4 6 7 8 9 10 12 13 12 12 13 13 13 14 15 15
13 12 10 9 10 8 4 5 6 9 5 7 4 6 8 4 6 7 5 2 1 2 2 3 2 2 3 2 2 2 6 9 11 12 12 12 14 15 15 15 16 16 16
14 11 10 9 11 13 11 9 8 4 10 7 4 9 9 9 10 9 5 1 1 3 4 2 1 6 9 5 4 5 4 5 7 10 11 11 12 14 14 16 16 16 17
13 14 11 11 11 14 13 10 8 7 11 10 3 7 6 7 14 12 6 5 3 7 3 2 8 6 4 2 3 5 4 3 3 5 8 9 11 12 14 15 15 14 16
18 17 11 13 14 13 12 10 8 10 14 12 7 6 5 11 9 10 12 9 4 3 1 3 1 7 4 6 7 9 7 5 6 7 8 8 9 10 11 14 15 15 16
19 17 15 15 17 15 13 13 9 8 16 12 11 8 6 8 10 10 13 14 11 9 8 6 6 3 5 6 7 7 8 9 7 9 9 9 10 11 11 11 12 13 14
22 21 18 14 13 14 12 12 9 10 12 15 14 14 12 9 10 11 10 9 9 7 8 15 12 9 8 7 8 9 9 9 10 11 14 15 14 11 11 11 12 12 13
26 24 22 17 15 14 12 13 11 12 13 17 16 15 14 12 9 11 10 9 8 8 4 4 15 16 13 13 11 11 10 11 13 13 16 17 15 11 10 11 12 12 13
26 25 25 19 15 16 15 15 12 13 12 17 19 20 18 15 14 11 10 11 10 9 8 4 7 8 15 14 14 12 14 15 15 17 17 14 15 11 10 11 11 12 13
28 28 24 18 17 16 16 16 15 14 11 13 17 19 21 20 17 15 15 12 12 11 10 8 7 6 7 9 11 13 15 16 19 18 16 15 15 15 13 14 15 15 14
26 28 25 21 19 19 18 16 16 17 14 13 14 17 18 23 19 18 18 13 11 11 12 9 9 7 7 10 14 17 16 14 16 18 20 19 21 18 17 17 17 18 16
29 32 29 26 24 23 23 21 19 19 19 15 16 17 15 17 23 21 19 16 17 15 14 11 13 15 16 16 15 14 16 16 16 17 20 22 24 22 21 22 21 21 20
36 33 32 31 29 27 26 25 23 22 23 20 18 18 17 17 20 25 24 21 18 17 19 17 18 19 19 19 19 20 19 20 21 22 21 22 22 22 24 24 26 25 22
43 40 37 37 35 32 30 29 27 24 24 24 21 21 19 19 21 21 23 21 23 23 23 23 22 21 20 18 20 22 19 21 25 23 22 26 28 28 28 27 26 26 24
45 44 45 41 38 34 34 33 31 29 27 27 26 24 23 23 23 22 24 25 24 23 23 23 23 23 22 19 21 24 26 24 25 25 25 24 24 24 24 23 24 25 26
44 45 42 42 41 39 38 36 35 34 33 30 29 27 26 24 24 24 23 24 27 25 25 25 24 24 26 25 24 26 24 22 24 26 20 23 22 20 21 23 24 26 26
42 43 44 42 41 41 39 37 36 37 38 32 29 29 27 24 23 25 25 24 25 25 24 23 23 30 30 27 28 23 24 25 27 25 24 23 16 18 15 14 15 20 22
38 38 41 41 39 39 38 35 35 36 37 32 27 31 29 25 23 25 27 26 26 24 26 25 26 27 28 26 26 22 24 24 25 23 24 24 22 23 20 19 19 22 27
36 33 31 31 31 33 33 30 32 33 31 29 23 28 30 27 23 24 23 26 25 23 25 24 26 28 27 27 23 21 23 26 26 23 24 31 27 28 24 22 24 26 23
33 30 27 28 27 29 30 31 33 34 27 24 18 23 25 26 25 23 23 23 23 24 23 23 26 28 26 21 20 22 22 23 28 26 27 27 26 26 24 25 27 26 28
27 27 30 26 26 22 26 27 30 19 19 18 20 25 27 27 29 26 21 22 23 25 22 22 25 21 21 22 22 24 22 20 22 20 20 22 22 23 29 28 27 29 26

GFSMA_850_spd_021.txt.gz
Wind_Speed
4 3 3 2 4 5 2 2 2 3 1 2 3 1 3 2 1 3 2 1 2 0 5 9 7 8 9 9 9 8 8 8 9 10 10 9 8 7 7 6 5 5 5
6 5 2 2 5 4 5 4 1 2 3 3 5 1 2 4 4 3 2 1 2 3 2 7 9 8 9 10 10 10 9 8 8 10 10 10 9 10 9 9 7 7 7
9 6 5 5 5 5 5 3 5 4 3 3 3 2 1 2 7 8 5 2 1 1 2 2 5 7 9 9 9 10 9 9 7 9 10 11 11 10 10 9 9 8 8
9 8 7 7 7 6 6 5 5 6 5 4 2 2 3 3 5 2 2 2 3 2 2 2 2 3 6 8 10 10 10 12 12 11 9 9 11 12 10 10 11 10 9
12 8 7 5 6 6 4 6 5 4 4 5 8 5 5 3 4 1 6 4 4 3 2 4 2 2 3 5 7 10 12 14 13 13 12 12 11 11 11 11 11 10 11
12 9 6 7 7 9 6 5 6 7 6 9 5 7 7 3 7 2 2 2 2 5 5 3 2 4 4 4 6 8 9 11 12 13 13 13 13 14 14 14 14 13 13
12 12 9 11 11 10 8 7 7 8 11 7 7 11 7 4 8 6 3 2 2 2 1 3 4 2 3 3 3 3 6 8 10 10 10 11 13 15 15 16 16 16 15
12 13 11 13 13 12 13 10 9 10 8 9 6 7 10 7 9 11 6 2 6 4 4 4 1 4 5 5 3 4 5 5 6 8 8 8 9 12 13 14 15 15 15
16 16 14 15 14 13 13 12 10 8 11 8 7 7 5 5 14 13 9 6 5 4 4 5 8 7 4 2 3 3 2 3 3 4 6 7 9 10 12 14 14 14 15
20 19 17 18 14 13 13 13 11 6 12 12 8 8 9 9 11 8 12 12 7 5 2 0 3 5 5 6 4 7 6 5 5 6 6 6 8 9 10 11 13 13 14
22 23 21 21 16 14 13 13 11 9 13 14 12 10 8 9 12 11 13 16 13 10 9 7 5 3 0 1 3 5 7 7 7 8 12 12 11 9 9 10 10 10 11
24 23 23 21 16 15 16 12 11 11 11 16 15 13 10 9 12 12 12 15 15 12 13 13 14 10 7 5 6 5 6 7 8 10 12 13 13 10 8 9 10 10 10
27 26 26 23 17 13 13 11 12 12 12 11 15 13 13 11 9 9 8 9 8 8 9 8 9 14 13 12 10 10 8 9 11 12 13 12 11 11 10 9 8 8 10
28 25 24 23 19 16 16 14 12 14 13 14 16 16 15 14 12 11 10 10 10 10 12 11 9 9 12 15 14 14 12 11 13 14 15 12 11 10 11 11 11 11 11
31 27 25 24 22 19 18 17 14 15 14 13 14 17 18 18 16 15 14 13 14 14 13 9 10 9 7 7 9 11 11 12 13 13 14 14 15 14 14 13 14 15 15
35 31 28 26 25 21 19 19 16 17 18 14 14 17 19 19 20 18 16 16 16 13 13 14 9 10 9 9 9 12 13 12 12 13 14 17 18 18 19 18 18 19 19
37 33 30 28 27 24 22 22 19 18 20 19 16 17 16 17 18 22 20 19 18 16 16 15 15 13 12 13 12 14 14 16 17 17 18 20 21 22 24 22 21 21 19
38 37 31 30 29 28 25 24 23 22 21 21 21 19 19 18 18 18 21 23 20 19 18 17 16 16 17 16 16 17 19 21 23 21 21 24 23 21 21 23 25 28 29
40 40 38 33 34 32 29 27 26 26 25 22 22 23 20 20 19 18 19 22 22 21 22 22 20 21 20 17 17 17 18 22 25 25 23 24 26 25 24 23 25 25 26
43 42 41 40 35 33 31 29 29 29 28 28 27 25 24 23 21 20 19 19 21 22 21 23 23 22 19 20 20 23 25 26 25 21 21 24 22 21 23 22 23 24 25
43 43 43 41 40 36 34 33 32 32 31 32 33 28 25 25 24 23 22 21 20 21 23 23 22 23 24 25 24 26 27 28 25 23 22 19 21 21 17 17 17 14 15
43 44 44 44 43 40 40 38 37 36 33 34 35 30 27 25 26 25 23 22 22 20 21 24 23 24 23 24 27 27 27 30 26 24 21 22 21 16 18 20 20 20 20
44 43 43 42 42 41 39 37 36 35 33 33 31 28 27 25 26 26 23 21 22 24 23 21 25 23 24 23 24 27 28 23 24 23 25 25 22 23 20 21 21 23 24
47 43 41 41 38 37 36 34 31 33 32 27 24 24 23 23 25 25 24 23 23 23 25 22 23 24 29 23 25 26 24 24 24 23 24 30 24 25 21 22 24 24 23
47 44 39 35 33 33 28 25 28 33 32 27 25 19 18 20 20 22 23 24 23 21 19 18 21 22 21 24 22 21 23 24 27 24 20 23 19 25 27 29 26 22 22
47 42 34 31 29 25 17 19 19 25 28 26 19 19 20 19 19 21 23 22 23 19 17 17 20 20 20 17 21 23 21 19 16 15 17 20 23 24 25 28 25 26 22

GFSMA_850_spd_024.txt.gz
Wind_Speed
6 4 4 3 4 7 3 2 3 4 1 1 0 4 6 3 4 2 2 2 3 1 4 7 6 7 8 9 8 6 6 5 6 6 5 7 5 5 5 4 4 4 4
5 4 1 2 3 3 4 4 2 3 4 4 5 1 5 3 4 1 1 2 3 4 1 5 7 6 6 9 7 8 6 6 5 6 7 8 7 8 7 6 6 6 5
7 5 4 3 5 5 6 4 4 5 3 2 3 1 1 2 9 9 4 1 2 3 4 1 4 6 7 6 9 8 6 7 5 6 6 8 8 9 8 8 7 7 8
9 8 5 6 7 5 7 6 4 4 2 2 2 2 3 3 2 7 3 2 1 1 5 5 3 1 4 6 9 8 9 9 9 8 7 6 8 10 10 9 9 9 10
13 10 6 6 5 6 6 5 5 3 3 3 5 5 3 0 2 4 4 2 1 1 1 2 4 3 2 2 5 6 9 11 11 11 12 11 10 10 10 10 9 9 10
15 11 10 7 6 7 6 5 6 5 4 6 8 4 5 2 4 2 2 5 3 1 0 3 2 4 4 4 3 4 5 8 10 12 12 14 14 14 14 14 13 13 13
11 11 11 9 9 9 9 8 5 5 6 7 4 5 6 3 5 2 1 4 5 2 1 2 3 2 2 2 3 3 4 4 6 8 10 12 12 13 15 16 16 15 16
13 10 12 11 10 11 11 9 8 7 9 8 5 8 8 5 7 6 4 2 6 8 7 6 1 2 2 3 4 4 4 3 3 4 5 7 8 10 11 13 14 14 15
16 12 12 12 11 12 10 10 9 7 5 9 8 6 6 5 10 10 8 5 5 6 6 7 8 6 5 4 4 4 4 4 4 4 4 4 5 7 9 12 12 12 13
18 18 15 15 14 12 11 9 10 8 7 10 10 10 10 6 9 8 13 10 8 5 3 2 4 6 6 5 5 8 8 7 9 10 11 10 8 7 8 9 9 9 10
22 20 18 17 15 15 13 11 11 10 8 12 12 8 10 11 10 8 10 15 14 9 6 5 4 3 2 1 2 4 5 5 7 8 10 12 12 9 8 8 9 9 9
26 24 22 21 19 17 15 12 12 12 9 11 12 12 10 9 9 10 10 9 15 13 11 9 10 10 9 6 5 4 3 3 5 7 9 11 10 9 8 8 8 9 9
30 27 24 22 21 18 14 12 12 12 10 9 13 13 13 11 7 6 7 7 8 10 8 8 8 8 11 13 10 9 9 7 6 7 8 9 9 9 9 9 9 9 10
30 26 25 24 22 19 15 13 13 12 13 11 10 14 13 13 11 9 8 9 8 8 10 12 12 10 9 11 13 14 14 12 10 10 9 9 9 10 10 9 10 11 11
29 30 28 25 23 20 18 17 16 15 15 12 11 14 16 15 14 13 12 11 12 12 13 11 8 8 7 6 5 8 8 9 10 9 8 10 12 14 15 14 14 14 15
31 31 31 28 26 22 21 20 18 17 17 15 13 13 15 16 17 18 16 15 15 14 14 13 10 7 8 8 6 7 8 9 9 10 12 14 15 15 17 19 19 19 19
33 33 33 32 28 25 23 22 21 19 17 17 17 16 15 15 17 19 19 18 16 15 15 13 13 12 11 10 10 10 11 12 13 15 17 18 18 20 22 20 20 19 21
33 34 33 35 32 28 26 25 23 22 21 19 18 20 19 18 18 17 18 19 19 17 16 14 13 13 13 12 13 12 11 11 14 18 21 23 23 22 23 25 24 25 26
35 35 35 37 35 31 30 27 25 24 23 22 21 20 19 20 20 20 17 18 17 18 18 18 18 17 16 16 15 15 13 14 19 22 24 20 20 22 24 23 23 23 24
39 37 39 39 39 34 32 30 28 28 26 25 25 24 21 22 22 21 21 18 17 16 18 19 18 18 18 17 17 19 22 22 23 21 22 21 20 18 19 20 18 18 19
42 40 40 42 41 40 36 33 31 30 27 26 27 28 28 25 23 23 24 21 19 18 18 18 20 21 19 18 20 21 24 25 27 25 23 20 20 20 21 19 18 18 17
43 42 42 44 44 43 41 38 32 30 27 28 28 29 30 28 24 22 23 22 21 22 21 20 19 20 20 19 21 23 23 25 26 24 22 22 23 22 20 18 19 20 20
44 45 44 44 46 46 43 38 35 34 31 30 29 28 30 28 25 25 21 23 22 21 21 21 23 23 22 20 23 26 29 23 24 20 23 26 23 25 21 20 18 18 21
46 47 46 44 43 44 42 38 37 35 32 30 28 26 23 22 21 24 24 23 21 20 20 20 21 19 19 18 23 18 21 21 20 21 23 27 23 19 15 17 20 22 22
49 49 48 46 43 42 41 38 36 37 35 31 26 25 25 22 20 20 23 23 19 20 20 20 17 17 17 18 18 18 16 18 22 21 19 18 16 20 22 24 22 19 20
51 50 49 48 43 41 38 37 35 36 36 32 30 26 22 18 18 19 21 18 18 19 18 16 15 15 16 16 14 14 16 16 14 12 14 18 21 21 18 21 17 22 20

GFSMA_850_spd_027.txt.gz
Wind_Speed
5 4 4 3 3 4 2 3 3 3 3 2 1 5 6 4 5 2 3 4 5 2 3 5 4 4 5 6 5 4 4 4 5 4 4 4 4 3 3 4 3 4 4
5 3 2 2 3 4 5 3 4 5 5 5 3 4 5 5 7 3 3 4 5 6 2 2 6 5 4 6 6 6 4 5 4 5 6 6 5 6 5 6 6 5 5
6 3 3 2 4 4 6 5 4 4 2 4 5 3 3 3 7 6 5 3 3 6 7 3 3 5 6 5 7 6 6 5 4 4 6 6 6 7 7 7 7 7 6
7 6 6 5 5 6 6 6 5 4 3 1 1 3 2 2 6 6 4 3 3 3 6 7 5 1 2 4 7 7 7 9 7 7 6 6 7 7 7 8 8 9 9
10 10 8 6 5 5 6 4 5 3 2 1 1 2 1 1 3 6 6 5 2 3 2 4 5 4 4 1 3 5 7 8 8 9 10 9 10 9 8 9 10 9 10
14 13 11 8 7 5 4 5 4 3 2 4 7 1 7 3 4 3 5 5 3 2 1 1 1 1 2 3 2 1 2 4 6 9 10 10 11 12 13 13 13 14 13
16 14 13 10 9 6 6 6 5 3 5 9 4 4 6 3 4 2 4 5 4 3 1 2 1 1 1 2 5 3 2 2 3 5 7 8 9 10 10 12 13 13 15
16 13 12 12 9 8 8 8 6 5 6 4 5 6 4 2 4 3 2 4 7 7 6 6 2 2 1 2 4 4 3 3 2 2 3 5 6 6 7 9 10 11 9
16 14 12 12 10 9 9 9 7 5 5 6 6 4 3 3 5 7 5 5 5 6 6 7 8 6 4 5 6 6 6 5 5 5 5 4 5 6 7 8 9 9 8
19 16 15 13 13 11 9 10 8 5 4 7 8 8 8 4 5 4 10 8 7 5 4 3 4 4 5 4 5 7 8 9 9 9 9 10 9 7 6 7 8 7 7
21 19 18 16 14 12 11 11 10 7 6 7 9 6 7 9 8 6 7 8 13 11 8 5 3 3 2 1 1 3 4 4 5 6 8 10 11 11 9 8 7 7 7
26 25 21 18 17 15 12 12 11 9 8 7 10 10 7 5 6 7 7 8 10 11 14 11 9 9 9 8 6 4 3 3 4 5 7 8 8 8 9 9 9 8 8
26 27 25 22 20 17 16 13 12 11 9 8 9 11 11 11 8 5 6 6 6 9 11 10 11 9 9 13 13 10 8 8 7 8 8 8 8 8 9 9 9 9 9
24 24 25 23 21 18 16 14 13 12 11 11 11 11 13 12 11 10 8 6 5 6 8 8 9 10 8 7 10 13 14 12 12 11 11 10 10 10 12 14 14 14 14
26 25 26 24 23 20 19 17 16 14 13 13 13 13 14 15 14 13 12 11 8 7 7 8 7 6 7 7 7 7 9 10 12 13 12 11 11 12 12 13 16 19 19
28 28 28 28 26 24 22 21 20 18 17 16 16 15 14 15 16 15 15 14 13 12 10 8 7 7 6 8 8 7 7 8 10 11 11 12 15 16 17 17 19 19 20
32 31 31 30 31 28 25 25 24 21 21 20 20 19 16 15 17 17 16 16 16 15 11 9 10 9 10 11 10 9 9 8 9 10 11 14 16 18 18 20 20 21 22
36 34 33 34 33 33 30 29 28 26 24 23 20 21 19 19 18 18 18 18 17 17 15 13 11 13 11 12 13 12 12 11 11 13 15 17 17 16 18 20 21 22 21
38 36 35 36 36 36 36 33 30 29 27 25 24 22 19 20 21 21 20 19 17 16 17 16 12 14 15 16 16 16 14 14 16 18 20 19 19 18 19 19 19 21 20
41 39 38 36 37 37 38 37 34 33 31 29 27 26 25 25 23 22 22 21 20 17 17 18 15 13 15 14 17 15 15 19 21 22 21 19 20 17 18 17 19 18 17
44 41 40 40 38 39 40 40 38 36 36 33 31 30 30 28 25 23 22 23 23 21 20 18 15 16 14 18 19 18 21 21 23 23 20 18 14 13 16 19 20 19 18
47 45 45 43 42 42 44 44 41 39 39 37 36 33 32 29 27 28 22 22 24 25 24 19 17 17 18 18 20 18 15 16 19 28 22 15 18 16 17 17 19 18 20
47 48 47 47 46 45 46 45 42 43 41 39 37 35 34 32 27 29 25 25 25 24 24 23 23 21 20 20 19 20 18 20 18 13 18 14 13 16 16 15 15 14 15
49 50 49 49 48 47 47 46 44 43 45 42 40 38 37 32 28 27 28 29 28 25 24 22 20 18 16 16 18 17 18 18 21 16 16 14 14 13 11 12 18 20 20
50 52 51 50 50 50 49 46 43 44 47 46 42 40 38 31 31 27 29 30 28 26 23 19 19 17 15 16 16 17 16 16 13 12 13 9 10 11 13 15 12 15 17
51 52 53 51 50 49 50 45 41 42 48 47 43 43 36 33 31 28 30 30 28 26 23 20 18 16 15 15 16 16 12 12 12 9 8 8 11 13 13 12 11 14 13

GFSMA_850_spd_030.txt.gz
Wind_Speed
3 2 2 2 3 2 1 1 2 2 1 1 3 5 4 3 2 3 1 5 5 3 5 7 7 5 5 4 3 3 4 4 4 4 4 4 3 2 3 3 4 3 3
5 2 1 1 0 2 2 2 1 3 3 3 2 5 4 3 4 5 3 3 7 6 3 4 7 5 4 5 4 4 2 4 2 3 5 5 5 4 4 4 4 5 5
6 4 3 2 1 3 3 3 2 4 3 4 5 4 3 5 5 6 6 3 4 7 5 3 3 4 4 4 6 4 5 3 4 4 4 5 6 6 6 5 5 5 6
6 5 3 1 2 3 2 2 1 1 2 1 3 3 2 4 8 6 4 3 4 1 4 6 5 3 3 4 5 6 6 6 7 7 7 4 5 6 7 7 7 7 7
9 6 5 3 2 1 3 1 3 2 1 1 1 1 2 2 6 4 3 3 2 4 3 2 5 5 4 2 3 5 6 7 9 8 8 7 8 9 7 7 7 7 8
12 9 7 8 2 2 1 2 1 0 1 1 2 1 6 6 5 4 5 4 3 3 2 2 1 1 1 2 2 3 4 4 6 8 9 7 9 10 9 10 10 10 11
13 12 9 10 4 4 2 0 2 2 1 3 6 7 5 4 5 4 5 4 4 3 2 2 3 4 2 1 3 1 1 1 3 5 6 5 7 7 7 7 9 10 11
16 14 11 11 8 4 3 1 1 0 1 4 5 5 7 5 5 4 4 4 5 5 4 4 3 4 3 1 3 1 1 1 1 1 1 2 3 4 5 6 6 7 9
16 14 11 10 9 4 5 3 1 3 1 4 8 3 4 3 7 5 4 4 3 3 3 5 5 4 5 3 4 4 3 4 5 5 5 4 4 4 4 4 5 5 5
18 16 14 11 10 7 8 4 3 4 4 5 6 6 6 4 5 7 7 7 6 4 4 3 2 3 4 3 4 4 7 8 6 6 5 6 6 5 4 4 4 5 5
21 17 16 16 14 10 10 9 6 3 6 7 6 6 6 7 7 5 6 7 8 8 6 4 4 3 3 4 2 1 3 3 2 3 5 7 7 6 5 4 3 3 4
19 23 19 18 17 15 12 9 8 7 7 7 8 8 6 5 4 5 5 5 7 7 9 9 8 7 7 7 7 9 5 4 4 5 6 7 8 6 6 7 7 6 6
20 21 25 23 18 18 15 13 13 11 10 10 10 9 8 7 6 5 5 4 4 5 7 9 9 9 9 9 10 13 10 9 9 9 9 10 10 9 9 10 10 10 10
19 20 23 25 23 20 18 16 15 13 13 13 12 11 9 9 8 7 5 4 3 6 6 7 7 7 8 9 11 14 13 14 13 13 13 13 12 11 11 12 13 14 15
20 20 21 24 24 23 21 19 16 17 17 15 15 14 13 11 10 9 8 6 7 7 7 8 8 9 7 7 8 7 8 12 11 13 14 14 12 13 15 16 16 16 17
28 22 23 23 25 25 24 23 20 21 21 19 17 18 16 13 13 11 10 9 10 11 10 6 6 8 7 7 8 8 7 10 11 12 13 12 14 15 17 20 20 19 21
36 31 30 26 27 27 28 27 24 22 24 23 23 22 20 18 14 13 12 12 13 12 11 8 9 11 11 10 9 10 9 9 10 13 12 12 14 17 18 18 18 19 19
41 38 35 32 31 29 30 32 30 26 28 27 26 26 24 21 20 17 15 18 15 12 12 13 10 11 11 12 14 14 12 11 11 14 16 15 17 19 18 18 18 19 20
41 40 40 39 35 35 34 35 34 33 32 30 28 27 25 23 23 19 20 17 14 15 14 13 13 11 12 11 12 14 13 13 12 15 17 18 18 20 19 18 17 18 20
45 43 42 41 39 36 37 37 38 38 36 34 32 30 28 27 25 22 23 21 19 16 15 14 15 15 13 13 13 12 14 12 12 14 17 18 20 20 20 18 19 20 20
46 45 44 43 42 41 37 42 42 42 41 38 35 34 33 30 29 26 24 22 21 20 18 19 17 17 16 14 15 11 15 15 16 18 15 15 18 16 16 16 20 20 17
49 47 49 48 47 45 43 42 43 44 45 44 41 36 34 33 32 29 27 26 25 22 23 21 20 19 17 15 15 14 12 14 15 13 16 12 12 14 15 17 19 21 26
51 51 50 52 53 51 49 46 45 45 47 47 44 38 34 32 34 31 30 29 28 27 24 22 24 22 18 19 17 15 15 16 14 14 17 16 13 17 18 18 19 20 17
50 51 52 53 55 54 52 49 47 44 45 46 44 41 41 38 36 32 31 29 31 32 30 28 28 22 22 18 20 17 16 15 13 13 13 13 13 15 15 13 19 22 24
41 40 39 44 53 56 54 51 49 47 47 49 50 45 41 40 39 33 31 28 29 30 30 27 25 26 25 21 19 13 14 10 11 11 10 11 9 12 14 16 14 18 21
34 33 37 40 43 50 51 53 51 49 48 48 45 48 48 45 42 35 32 30 31 31 28 28 27 28 26 24 21 20 13 12 12 11 11 11 12 13 15 14 10 15 16

GFSMA_850_spd_033.txt.gz
Wind_Speed
2 5 5 1 1 3 2 1 5 4 4 2 2 4 2 1 3 4 3 2 4 6 8 7 6 5 6 6 5 5 4 4 2 1 1 2 2 1 1 3 3 3 4
4 3 3 0 1 3 5 1 1 4 2 2 4 6 4 3 5 6 1 5 6 3 6 8 7 6 6 7 6 5 4 4 3 3 4 3 3 3 3 3 4 4 4
4 2 2 3 2 5 4 3 2 4 8 5 3 3 2 2 6 3 6 2 5 6 4 5 8 8 5 5 4 4 4 4 4 3 3 3 3 4 5 4 4 5 5
11 5 2 1 1 2 1 3 3 1 4 2 1 1 2 4 5 5 4 2 0 1 4 4 3 5 5 6 5 5 5 5 4 4 5 3 4 3 4 5 5 6 6
9 6 6 7 2 1 2 1 1 3 0 2 5 3 3 4 2 4 2 2 4 3 4 5 5 4 2 1 2 4 5 7 7 7 7 6 8 7 6 6 7 6 7
11 7 3 3 2 1 3 6 3 1 1 1 1 2 5 4 3 3 3 6 3 2 1 6 2 5 4 4 1 1 2 3 6 7 8 8 9 9 10 10 11 10 10
11 10 7 5 3 4 4 2 1 2 3 2 6 7 3 4 3 3 5 6 4 3 2 3 4 2 5 1 3 3 2 2 2 4 4 4 5 6 7 8 9 10 11
13 12 10 10 8 4 7 3 5 4 1 6 5 7 8 6 4 4 4 4 4 4 4 3 3 1 3 3 5 2 1 1 1 2 2 2 3 4 5 6 7 8 10
14 15 12 10 9 9 9 2 3 6 2 5 8 3 0 7 9 5 3 5 4 3 2 5 4 4 4 0 4 5 2 3 3 5 5 6 5 4 3 3 4 5 7
16 15 13 11 11 8 8 5 5 6 5 5 6 5 4 1 5 7 6 6 3 4 4 3 2 4 5 6 6 1 5 6 5 5 5 6 7 6 6 6 6 6 6
17 16 15 14 13 12 12 10 9 7 6 7 5 5 4 3 2 0 9 9 5 7 4 3 2 4 2 4 5 2 3 3 3 1 3 6 7 6 6 6 6 7 8
16 21 18 19 16 13 12 9 9 8 10 8 7 6 4 4 4 4 5 7 9 8 7 6 7 7 7 6 8 10 7 4 4 3 4 6 7 7 6 7 8 9 9
20 21 22 23 17 17 15 14 14 11 9 10 12 7 7 6 5 5 5 3 2 4 3 8 9 10 9 9 10 13 12 11 9 9 10 10 10 10 10 10 11 13 14
20 19 24 22 22 18 19 18 14 12 12 12 12 13 9 8 7 7 6 4 4 5 7 7 7 9 9 9 12 13 13 15 14 14 13 13 11 10 11 12 14 14 14
20 22 22 21 23 23 21 20 17 18 16 15 14 13 15 10 10 9 7 6 6 6 7 10 5 10 9 9 10 10 11 14 13 12 13 13 12 12 13 15 17 18 18
25 21 26 24 23 25 25 24 19 18 20 17 15 17 16 12 13 11 9 9 8 8 8 3 5 8 8 7 12 11 9 13 14 12 13 13 13 13 14 15 17 18 19
32 30 26 27 26 27 27 27 25 21 24 22 20 20 21 19 15 13 13 12 11 10 11 10 9 10 16 16 11 15 12 12 11 15 14 13 13 14 15 16 18 18 16
40 38 34 34 29 27 29 30 29 25 26 23 23 24 25 22 23 20 16 16 14 14 14 14 12 12 15 14 14 17 14 12 12 14 14 16 19 18 19 18 19 17 17
44 42 40 40 38 33 33 34 33 33 30 30 28 27 27 27 26 22 24 18 17 19 16 15 14 13 14 13 13 12 14 13 14 17 20 17 15 17 20 20 17 17 16
44 44 43 42 42 40 38 38 39 38 37 35 34 32 30 30 28 26 25 24 22 18 16 15 14 14 15 15 14 12 13 13 12 11 15 12 21 20 22 19 16 16 14
47 44 44 45 45 44 41 44 42 43 41 41 37 37 33 32 30 28 26 26 22 23 17 16 15 16 16 17 16 14 11 12 15 16 15 15 14 16 19 17 17 14 17
48 48 49 48 48 46 43 43 43 43 43 42 41 39 39 33 33 33 30 26 26 24 22 17 18 20 19 17 16 16 15 14 15 13 13 12 14 17 16 14 15 18 15
51 52 51 50 50 51 50 47 45 44 43 45 44 43 41 34 36 36 34 31 32 31 27 27 25 23 19 16 18 18 19 18 16 13 13 12 12 13 12 16 19 21 23
51 52 52 52 52 54 52 51 50 48 49 47 45 45 43 42 39 39 36 36 36 37 32 30 32 26 24 26 23 20 20 21 19 18 14 14 10 12 13 12 18 21 22
47 50 50 51 54 56 55 53 52 53 54 53 50 44 43 43 44 45 40 37 35 34 34 31 34 30 28 25 23 15 14 17 13 15 16 14 10 9 11 14 15 18 18
45 41 44 48 52 54 56 57 55 55 56 57 56 51 47 47 45 46 46 42 40 37 31 32 34 31 34 28 25 24 17 16 15 14 12 12 11 11 12 13 10 14 16

GFSMA_850_spd_036.txt.gz
Wind_Speed
5 4 6 6 1 2 4 5 7 3 5 3 4 8 2 5 4 3 6 6 2 5 5 6 4 5 5 4 4 4 3 3 2 1 1 1 1 1 1 2 1 1 2
4 5 5 8 2 1 5 5 1 3 8 6 7 6 8 4 3 4 5 10 10 4 3 4 4 4 4 5 4 3 3 3 2 2 2 2 3 2 3 4 3 3 3
3 4 5 2 3 4 6 4 10 6 10 4 5 5 2 5 6 2 3 6 10 11 6 1 5 5 4 5 4 4 4 3 3 3 2 2 3 4 4 4 5 4 5
9 5 5 4 2 4 1 3 4 3 8 4 2 1 8 4 7 6 9 3 5 7 8 8 2 3 5 4 6 6 5 5 5 5 5 4 3 4 4 4 6 7 6
9 7 3 3 3 4 5 2 5 3 2 4 4 4 4 7 6 5 1 1 1 6 9 7 7 4 3 2 3 5 6 7 7 7 6 6 6 7 8 8 8 8 8
10 7 3 4 5 3 3 4 4 3 3 2 5 6 8 1 2 1 5 3 9 4 7 5 4 4 3 2 1 1 3 4 5 5 5 6 7 8 9 10 10 10 10
13 11 6 3 3 3 4 4 4 6 4 2 9 9 3 4 6 1 9 10 4 8 5 6 6 1 3 3 2 1 1 1 2 2 2 3 3 4 5 7 8 9 9
14 11 9 5 6 7 6 2 6 5 3 12 6 9 9 9 4 6 9 7 5 8 7 2 2 2 3 2 4 3 2 1 1 0 2 3 3 2 3 4 6 7 8
16 14 12 9 9 7 6 2 7 8 5 6 4 3 4 8 12 4 7 10 6 5 3 6 3 3 2 4 4 4 3 4 5 6 6 6 5 5 5 6 7 8 8
18 15 12 11 12 9 9 3 6 9 4 3 9 3 3 4 7 8 6 8 5 5 4 4 2 3 4 3 4 4 5 6 5 4 5 7 8 8 7 7 7 8 7
16 16 17 14 13 14 11 7 8 9 8 8 3 4 5 3 4 5 9 10 5 8 9 7 9 4 1 6 5 3 3 2 1 3 5 8 8 8 7 8 8 8 8
21 17 20 16 14 17 12 11 11 8 11 12 11 7 5 7 5 8 8 15 13 11 10 6 8 7 6 8 8 8 9 7 5 4 4 6 7 7 7 8 9 10 11
24 20 19 22 20 16 17 14 11 9 12 15 16 14 10 7 5 5 5 3 10 10 12 9 10 8 9 7 10 13 12 13 12 10 8 8 8 8 7 8 10 11 12
23 23 22 21 18 18 20 18 18 13 13 14 15 16 14 10 8 7 6 4 5 9 12 10 10 11 11 11 13 13 13 14 14 13 13 12 11 10 9 10 11 13 15
23 24 23 24 22 20 22 23 21 18 14 15 15 16 16 14 10 9 9 9 9 8 14 13 11 12 9 10 13 14 15 16 14 13 12 12 12 12 11 11 13 15 16
28 21 27 26 24 21 25 23 25 23 20 22 19 18 19 18 15 14 13 12 11 10 10 3 4 8 10 11 12 14 14 13 11 14 13 12 12 12 12 13 15 17 17
26 28 21 28 27 24 25 29 28 24 24 25 25 23 22 19 19 17 17 16 14 12 13 10 6 12 12 13 14 16 15 15 14 10 13 13 12 13 14 16 18 18 17
36 33 32 28 32 28 26 30 33 31 28 30 29 28 27 24 21 21 20 18 17 16 15 16 15 11 14 15 14 16 19 13 15 16 12 14 16 16 14 17 19 19 15
41 38 38 39 37 35 31 29 32 33 34 34 34 30 29 29 25 23 26 26 22 21 22 24 22 19 17 18 15 12 11 11 8 18 19 19 18 16 15 17 15 13 12
46 45 44 44 43 41 39 35 32 33 33 35 34 36 33 32 31 27 27 28 28 23 22 25 23 17 17 18 19 16 16 11 12 11 14 14 16 12 17 15 14 12 12
49 48 47 45 44 43 43 40 38 38 38 37 38 37 39 38 36 32 29 29 29 31 28 24 22 20 20 20 22 21 17 11 11 12 16 18 14 16 15 19 13 14 14
49 48 48 47 47 48 46 43 41 40 41 41 41 40 43 44 42 39 35 31 31 31 32 32 28 25 23 17 22 20 16 15 16 16 16 16 19 16 17 18 16 9 8
50 50 49 49 50 50 49 46 43 43 44 44 44 44 43 46 45 44 41 36 32 33 33 30 31 27 25 23 23 23 23 24 25 22 17 19 15 17 14 13 13 15 16
52 52 50 50 50 52 52 51 48 47 49 49 48 47 46 45 46 46 45 43 40 40 40 37 35 31 29 29 29 27 26 26 26 24 19 21 15 10 13 18 16 13 16
51 52 52 52 54 54 54 54 52 51 53 55 55 53 52 49 48 47 47 48 45 42 41 41 37 35 32 30 30 31 30 25 23 21 13 16 11 12 15 13 16 15 15
49 48 51 53 55 56 57 58 56 53 55 59 59 59 58 58 54 50 49 49 50 47 40 40 43 41 40 36 32 32 24 21 18 20 16 17 16 16 15 14 15 13 13

GFSMA_850_spd_039.txt.gz
Wind_Speed
9 5 7 5 4 5 5 4 6 6 6 8 12 15 14 13 6 7 10 6 4 3 5 6 6 6 6 6 6 5 5 4 3 3 2 1 1 1 1 1 2 3 4
7 6 6 3 4 4 4 4 7 11 14 14 10 10 10 7 7 8 9 11 8 3 3 4 5 5 6 6 5 4 4 4 3 2 2 2 2 2 2 1 2 2 2
5 5 6 3 5 8 7 10 8 11 13 12 9 7 2 7 6 6 3 10 10 8 5 4 4 3 3 5 5 5 3 4 3 2 2 2 2 3 3 3 3 4 4
8 7 5 5 4 2 8 5 6 9 8 8 6 10 8 8 6 4 8 5 6 9 7 6 3 2 3 3 5 4 4 4 4 4 4 4 3 3 2 3 4 5 5
11 7 5 7 9 8 5 5 3 5 4 9 4 12 9 6 6 4 5 3 7 10 7 5 6 4 2 1 2 4 6 6 6 6 6 6 6 6 6 6 6 6 6
10 9 7 9 8 7 6 5 5 6 7 8 11 8 7 6 4 5 6 2 4 5 7 6 5 7 4 3 1 1 3 3 4 5 5 6 6 7 7 7 8 8 7
10 10 11 7 10 5 5 4 8 10 5 6 12 12 8 6 4 9 5 6 7 8 5 5 6 4 5 6 2 1 1 2 2 2 2 2 2 3 4 4 5 5 5
13 11 11 9 7 6 4 5 9 8 6 13 12 8 11 9 4 12 9 7 7 8 5 5 2 1 5 1 3 3 2 1 2 3 3 2 2 2 2 3 4 4 5
17 13 12 11 9 9 6 5 9 9 7 14 6 8 5 5 12 12 7 6 8 5 3 1 2 1 1 3 7 7 5 6 6 6 6 5 5 4 4 4 5 5 5
18 16 14 12 13 11 10 6 11 11 10 10 9 7 5 9 10 7 8 10 9 6 6 3 3 2 3 2 5 7 8 7 6 6 7 7 6 6 7 8 7 7 7
15 13 15 12 13 13 11 8 10 14 10 10 7 10 7 10 10 9 12 14 11 8 7 5 6 4 2 3 1 2 3 8 6 5 4 6 7 6 6 6 7 7 9
19 17 15 15 12 15 16 12 9 11 12 13 11 9 8 12 10 10 9 13 14 11 11 9 8 6 6 7 4 4 6 6 9 8 6 6 6 6 6 6 7 9 10
25 22 19 19 17 15 20 13 11 12 13 17 15 13 11 10 6 8 6 4 12 12 13 13 12 9 8 7 8 8 9 8 9 9 9 9 8 8 7 8 8 9 11
26 21 21 18 17 17 18 19 16 13 13 16 19 18 17 14 10 11 12 6 5 8 17 13 14 13 12 11 10 11 12 11 11 9 9 9 9 9 9 9 10 11 13
25 22 19 20 17 15 17 21 21 18 17 15 17 20 19 18 15 11 8 12 8 5 11 18 16 15 15 15 13 12 12 11 10 10 10 9 10 10 10 11 12 15 16
29 24 23 23 22 20 20 20 24 24 22 19 18 17 20 18 16 15 13 12 13 14 12 8 12 13 17 17 15 13 13 12 9 9 8 8 7 9 10 12 15 17 19
28 31 26 24 28 26 24 22 25 26 26 23 22 21 19 21 22 20 18 19 18 16 17 14 11 13 19 20 16 14 14 15 13 9 5 9 12 11 11 12 15 18 19
35 31 34 33 25 28 27 22 21 26 28 28 28 26 24 21 24 26 26 24 22 22 20 17 15 14 20 19 16 15 14 15 18 14 13 12 13 12 11 12 14 16 16
38 38 33 32 33 28 29 28 24 25 27 31 30 29 28 27 27 29 30 29 27 24 24 24 21 21 20 20 21 21 17 13 12 13 15 17 15 14 13 10 12 12 11
42 41 40 38 35 36 34 32 31 29 26 28 34 35 34 35 34 30 30 31 32 30 29 28 27 27 27 25 23 22 21 18 12 15 13 12 13 13 13 11 11 14 13
45 43 43 43 43 43 42 41 40 38 36 33 32 37 39 39 39 36 33 32 33 37 36 35 33 31 28 26 29 26 25 22 16 14 15 12 14 17 15 14 13 13 16
44 45 47 47 47 48 48 47 44 43 41 40 39 38 39 40 41 41 39 36 34 35 40 41 39 37 33 30 25 26 25 26 24 20 19 18 16 17 16 17 14 16 14
44 45 46 47 49 50 49 49 47 46 44 44 43 41 41 42 43 44 44 43 41 37 39 40 44 42 36 31 28 27 28 27 28 24 23 21 19 20 21 20 15 15 14
45 45 46 46 46 47 47 48 48 47 48 47 47 45 45 43 43 43 43 45 46 44 42 41 43 44 41 34 32 31 31 29 28 27 26 26 25 21 16 16 15 15 15
44 46 47 47 48 49 47 45 44 46 50 53 53 52 51 51 50 46 45 47 45 47 43 42 42 42 41 37 37 32 33 33 34 34 31 25 21 19 18 19 18 15 14
45 44 45 47 49 50 50 48 46 46 49 53 54 57 58 58 56 54 52 50 52 53 46 44 45 46 45 45 43 43 39 37 37 35 30 25 17 18 20 23 20 15 14

GFSMA_850_spd_042.txt.gz
Wind_Speed
11 10 8 9 9 5 6 5 5 9 7 11 13 12 12 9 7 9 8 5 6 5 5 5 6 6 5 5 5 4 4 4 3 2 1 1 1 2 2 2 2 2 3
9 8 8 7 6 6 5 6 12 9 13 11 13 10 8 9 10 12 8 8 5 4 4 4 4 4 4 4 3 3 2 2 2 1 1 1 2 2 2 3 4 4 4
6 7 7 6 8 9 10 9 10 13 12 10 8 4 8 8 7 6 8 9 10 7 3 3 3 2 2 3 4 3 2 3 2 2 1 1 2 3 3 3 4 5 6
5 6 5 7 6 6 7 6 7 13 13 10 8 6 7 6 8 8 6 8 8 8 7 4 3 3 3 3 4 3 3 3 3 3 3 4 4 4 4 4 5 6 6
6 7 7 8 6 7 7 6 8 7 6 6 10 8 4 5 5 6 6 6 10 7 7 6 6 4 2 1 3 4 5 5 5 6 6 7 7 6 6 7 7 8 9
8 8 6 10 10 8 7 6 5 5 8 6 9 8 9 6 4 3 3 6 6 7 9 7 8 8 3 2 1 1 2 3 3 5 6 6 6 7 7 7 7 7 7
7 8 9 10 11 10 6 7 7 9 9 8 12 10 7 7 4 5 5 7 7 8 5 5 5 3 4 4 5 2 1 1 1 2 2 2 3 4 5 4 4 5 5
12 9 12 10 13 10 8 7 10 13 10 12 14 14 10 6 5 11 5 8 7 7 6 7 3 2 4 4 4 3 1 2 2 2 3 3 3 2 3 3 3 3 4
14 11 10 14 12 10 7 6 13 10 10 16 13 8 6 4 11 12 8 10 7 2 3 5 6 7 6 8 9 9 8 7 6 6 5 4 3 3 4 4 4 5 6
17 13 11 15 13 12 9 8 12 11 12 16 13 10 8 11 11 10 12 10 10 4 1 2 0 4 7 6 7 8 10 9 7 7 7 7 6 6 6 6 7 7 7
19 15 14 16 15 14 11 11 13 15 14 18 15 11 8 11 14 7 13 11 11 9 8 7 3 1 2 2 3 3 5 7 7 5 5 5 5 5 4 5 5 6 7
21 18 14 18 16 16 14 14 13 17 14 14 14 15 11 11 17 11 8 12 15 13 12 10 9 6 4 2 2 2 2 3 6 4 3 3 3 3 4 4 5 7 9
24 22 20 17 19 17 16 16 16 15 15 16 16 14 11 14 11 9 9 7 10 15 12 15 14 11 9 6 5 5 5 5 6 5 3 4 5 5 5 6 7 9 11
24 21 21 19 16 18 18 18 17 14 16 17 17 15 15 14 13 10 11 10 8 12 17 18 15 16 13 11 9 8 8 9 9 9 6 6 6 6 7 8 9 10 12
26 23 23 22 20 18 20 18 20 17 16 16 20 19 18 18 16 14 14 16 16 12 14 15 19 16 15 14 14 12 10 10 10 10 10 9 7 7 7 8 10 12 13
29 26 24 23 20 19 19 19 18 19 20 19 18 22 22 21 20 20 18 14 18 17 17 14 13 18 17 17 16 16 15 13 14 12 10 10 8 7 6 8 11 12 13
31 30 27 23 24 22 22 23 21 19 23 23 23 22 22 22 23 23 20 19 19 19 20 18 19 14 18 19 21 21 19 17 15 15 13 9 10 11 11 10 8 10 11
34 31 31 30 22 24 26 27 26 24 24 26 28 27 26 25 26 27 26 25 24 22 24 23 20 22 21 21 22 23 21 17 16 15 15 18 16 14 14 13 11 10 9
37 36 31 34 35 34 27 29 30 27 24 26 28 31 31 29 29 28 29 31 30 28 28 28 27 24 24 22 23 25 26 22 17 15 17 20 20 19 16 14 14 11 11
39 40 39 38 36 37 36 31 29 29 27 25 26 28 31 33 33 31 30 32 33 34 33 34 32 30 30 27 26 27 29 27 24 20 19 19 17 17 17 16 15 14 12
40 41 41 41 42 39 37 35 35 33 32 30 29 29 30 31 32 34 34 34 33 34 38 38 38 37 36 35 36 34 33 32 29 25 24 24 21 21 22 19 19 15 16
39 40 44 44 45 45 45 43 40 38 38 38 37 36 36 36 36 36 37 36 36 35 38 39 44 45 43 41 40 39 37 35 37 31 30 28 25 24 20 22 21 18 17
36 40 41 43 46 47 46 46 45 45 45 44 44 42 42 40 39 39 39 38 39 39 39 39 44 47 47 46 43 42 41 39 36 32 32 34 28 28 24 25 24 21 21
37 38 39 42 43 45 45 45 45 46 48 48 47 45 45 43 43 42 42 43 43 44 44 43 46 47 48 45 43 42 42 40 37 36 35 36 34 31 26 24 26 22 20
35 36 36 38 41 42 40 40 39 41 45 47 47 47 47 48 47 45 45 46 47 51 48 47 46 46 45 46 45 42 45 42 43 43 42 40 39 36 29 27 28 23 19
36 35 37 37 37 38 36 36 35 36 41 42 44 47 49 51 50 48 49 49 52 57 54 54 53 51 49 49 48 48 48 49 48 47 50 45 41 38 27 30 28 26 22

GFSMA_850_spd_045.txt.gz
Wind_Speed
8 8 8 9 9 7 6 7 7 7 7 6 8 10 8 6 5 6 6 6 6 6 5 5 5 6 5 5 4 4 4 3 2 1 1 1 2 3 4 5 5 5 6
8 9 8 7 7 8 6 6 6 6 11 10 13 10 9 8 7 9 9 5 5 5 4 3 3 3 3 3 3 2 1 2 1 2 2 3 4 5 4 5 6 6 7
6 6 9 9 10 9 8 8 9 12 13 12 9 7 9 8 7 9 10 7 6 4 4 3 3 2 2 2 2 1 1 2 2 2 3 3 4 5 6 6 6 8 8
3 7 8 8 9 9 11 11 13 11 10 7 6 7 7 9 9 8 9 8 6 5 5 2 1 2 2 2 2 2 2 2 3 4 4 5 6 6 6 6 7 8 9
4 6 5 7 8 7 9 7 10 11 10 5 4 4 7 8 8 8 8 8 6 6 4 5 4 2 1 0 2 3 4 5 6 7 7 8 8 7 8 9 9 10 11
3 4 4 7 8 6 6 6 6 4 8 7 7 2 3 4 5 4 4 5 5 6 6 6 6 7 3 3 3 2 3 2 4 5 7 7 7 7 7 7 8 8 9
3 5 5 8 8 6 5 7 7 7 8 8 9 7 5 5 5 4 2 3 4 4 5 3 2 4 4 3 3 1 2 2 2 2 3 4 5 5 5 5 5 6 6
8 6 7 8 8 10 7 8 8 11 9 8 13 10 5 5 4 9 7 7 4 5 6 9 4 3 2 4 5 4 2 1 1 2 3 3 2 3 5 5 6 6 7
13 10 8 11 10 11 9 6 10 11 10 10 11 10 6 4 6 9 8 8 8 4 3 4 7 6 5 7 10 10 8 6 5 4 3 2 3 4 5 5 6 7 8
15 14 11 11 13 12 10 8 9 11 10 14 13 8 9 7 6 7 11 10 12 7 3 1 2 4 5 5 6 8 8 7 6 5 5 6 6 6 5 5 5 6 7
18 16 14 10 13 14 11 9 9 13 12 15 12 9 11 11 10 5 8 10 10 9 7 5 3 3 1 1 2 2 3 5 4 3 3 3 3 3 2 3 4 5 6
24 20 16 13 14 15 13 12 10 15 12 15 16 13 10 11 16 13 8 7 9 9 9 10 9 6 5 4 4 3 3 2 2 2 1 2 2 3 3 3 4 5 7
25 23 18 16 15 16 14 13 13 12 16 14 14 17 16 13 11 15 11 9 9 12 14 11 9 9 9 9 6 6 5 6 6 6 5 6 6 6 7 7 7 7 9
26 20 19 18 16 16 15 15 15 14 14 15 15 16 16 16 17 14 12 11 10 9 13 13 10 10 9 7 8 9 9 8 9 10 10 10 9 8 8 9 9 10 11
26 23 20 20 18 17 17 17 17 17 16 17 16 18 18 17 16 16 13 14 14 17 16 13 15 12 11 12 10 12 12 11 10 11 11 13 14 11 11 10 10 11 12
29 26 24 22 21 19 19 19 19 18 19 17 16 20 22 20 19 19 18 17 17 17 21 17 14 13 13 17 16 17 16 16 16 15 15 14 15 14 11 10 11 11 11
32 29 28 25 23 21 20 21 20 19 21 21 20 22 23 23 24 24 24 23 21 21 23 19 19 18 20 18 18 19 19 21 20 19 19 18 16 16 15 14 12 11 11
33 33 29 27 25 24 24 24 24 24 23 23 23 25 26 24 26 26 26 27 26 25 26 27 23 22 22 22 22 23 24 25 24 21 19 19 20 21 20 19 18 16 13
35 33 32 31 30 29 26 27 27 28 27 26 24 25 28 29 30 29 28 29 31 30 31 32 32 28 26 27 27 28 28 29 29 26 23 22 21 25 24 22 22 21 17
36 36 36 36 33 32 32 30 27 27 30 30 28 25 25 28 31 32 32 32 31 32 34 37 39 38 35 32 33 34 32 31 32 31 29 26 22 22 24 25 24 24 21
35 38 38 39 39 37 34 35 35 34 30 29 28 28 27 27 26 27 30 32 34 35 36 37 40 42 42 41 42 39 38 37 36 33 32 31 28 26 27 27 26 25 25
34 36 40 42 41 43 41 39 36 35 34 34 34 32 32 32 32 32 32 33 35 36 39 41 43 46 46 46 45 44 44 44 45 40 39 39 35 37 33 31 27 26 24
33 36 37 40 43 43 42 41 40 40 40 39 39 38 39 39 39 39 39 40 41 43 44 44 46 47 49 48 45 46 48 51 51 48 43 43 40 42 38 35 31 26 24
35 34 35 38 40 41 41 42 41 42 44 45 45 44 45 44 44 42 41 43 43 45 45 45 48 51 50 49 51 48 47 49 49 50 49 51 45 42 41 38 34 29 23
34 34 34 35 37 37 37 36 37 40 44 45 45 45 44 44 42 41 41 43 43 47 44 44 46 47 47 49 51 52 54 51 55 55 49 49 50 46 41 39 36 33 24
29 28 29 29 29 30 29 28 30 33 37 39 39 41 42 42 41 40 42 43 47 49 45 45 46 45 43 43 43 52 56 53 56 50 56 49 48 49 48 46 41 35 28

GFSMA_850_spd_048.txt.gz
Wind_Speed
8 8 5 5 9 7 7 11 9 8 6 4 6 5 5 4 5 4 5 6 7 6 5 4 3 3 3 3 3 2 1 1 2 3 3 3 4 5 6 6 6 7 8
7 7 6 6 5 7 5 7 7 8 7 10 11 9 6 7 6 8 7 5 6 6 4 3 3 3 2 1 1 0 0 1 2 2 3 4 5 6 6 6 7 8 8
8 9 6 6 6 8 7 6 9 11 9 11 10 8 8 7 7 9 9 7 4 4 3 3 2 1 1 1 1 1 1 1 1 2 3 3 5 6 6 7 7 8 9
7 7 7 7 8 8 8 7 11 11 10 7 8 8 9 8 7 8 8 6 5 4 2 0 1 1 0 1 3 3 3 3 3 4 5 6 6 6 6 8 9 10 11
6 9 7 8 7 8 9 7 9 8 5 4 5 6 8 9 9 7 8 7 6 5 4 3 3 2 1 0 2 3 5 5 6 6 7 7 8 8 7 8 9 9 9
7 7 6 7 8 8 6 9 7 5 3 3 3 4 5 5 5 5 5 6 5 5 5 5 5 5 3 2 1 2 2 4 5 5 5 5 5 5 5 5 5 6 7
7 7 5 6 7 7 6 7 7 3 7 7 5 2 2 2 3 2 2 2 3 3 3 1 1 3 4 4 3 2 2 2 3 3 4 4 4 4 4 4 5 6 7
8 7 5 5 7 7 4 6 7 6 7 8 8 5 2 2 3 6 4 3 2 2 3 4 3 2 2 4 3 2 2 2 2 2 3 4 4 3 4 5 6 7 8
11 9 7 7 8 6 6 5 6 8 9 8 10 8 4 3 3 6 7 5 6 2 2 3 5 3 4 6 7 7 6 5 4 4 4 4 3 4 5 6 7 9 10
13 11 10 7 8 7 7 6 5 7 10 9 10 10 8 4 4 4 9 7 7 4 2 1 2 3 4 4 4 5 5 4 4 4 5 5 5 5 5 5 7 8 9
15 13 12 10 8 10 9 8 7 9 9 10 12 9 8 7 7 5 2 5 7 8 6 4 2 2 2 2 1 1 1 2 2 1 2 2 2 3 3 4 5 6 7
22 18 15 14 11 10 11 9 9 9 11 12 13 10 9 10 11 10 7 6 5 5 7 7 7 6 5 4 4 4 4 4 3 3 4 3 3 4 5 5 6 6 6
29 25 20 17 14 11 11 11 11 10 13 13 15 16 15 12 10 9 13 10 8 8 9 8 7 8 7 6 6 5 6 6 6 7 7 8 8 9 8 8 9 9 10
28 22 21 18 15 12 12 12 13 13 11 16 15 13 15 15 15 13 11 11 11 10 11 10 7 7 7 7 7 9 10 9 9 9 10 11 12 12 12 12 11 11 11
26 24 19 18 17 15 13 14 15 15 15 14 15 15 15 15 14 14 15 13 12 14 16 11 11 9 11 12 10 12 13 12 13 12 14 14 14 15 14 14 14 13 13
27 26 23 20 19 18 17 17 17 16 17 17 15 16 16 16 15 15 15 15 15 16 19 16 14 15 13 14 14 17 18 17 17 18 18 18 18 17 18 16 14 14 13
27 28 24 22 21 21 21 22 21 19 19 19 19 18 17 17 19 20 20 21 20 20 24 22 20 18 19 18 18 20 20 22 22 22 22 21 21 21 20 19 19 18 16
29 29 27 26 26 24 23 23 22 21 20 20 19 21 21 20 21 21 23 25 25 25 28 30 27 25 25 24 25 25 24 24 26 25 25 26 23 22 24 24 23 22 20
31 30 30 30 29 28 27 25 24 24 23 23 22 21 21 22 25 25 25 26 26 26 29 34 36 34 33 30 31 32 31 31 30 28 28 28 28 26 26 27 28 24 23
31 32 33 32 32 30 30 28 27 26 26 27 26 27 26 25 24 25 28 30 30 31 33 36 38 40 39 37 37 40 40 38 37 34 33 33 30 31 30 28 28 26 25
34 32 34 35 34 34 33 32 30 29 28 27 26 26 27 26 24 23 25 26 27 30 33 36 40 42 43 44 43 42 45 44 46 41 40 39 35 34 34 33 30 27 26
36 35 36 36 37 37 36 34 33 33 33 32 32 31 30 29 28 27 28 29 31 33 35 37 40 43 44 44 45 45 44 44 49 42 37 42 41 42 39 37 35 30 27
36 36 36 37 38 39 37 36 36 36 36 36 35 35 34 34 33 33 33 34 37 39 39 40 45 48 49 48 47 49 49 49 51 49 46 47 44 45 42 40 40 38 34
37 36 36 35 36 38 38 37 37 38 41 42 41 40 40 40 40 39 39 41 43 43 42 40 42 46 46 46 46 48 47 49 50 50 49 52 49 51 45 43 41 42 43
35 36 35 34 35 34 34 35 36 40 42 44 44 44 44 44 43 42 42 43 42 42 40 40 40 41 41 40 35 36 44 47 52 52 51 54 53 53 53 51 45 43 45
33 34 34 34 33 31 29 29 30 34 39 40 40 41 41 40 38 36 37 37 41 40 36 34 35 34 33 34 33 33 36 42 49 51 49 47 50 48 48 52 52 49 47

GFSMA_850_spd_051.txt.gz
Wind_Speed
8 8 6 5 7 7 6 8 8 7 6 7 5 4 4 6 6 5 4 5 6 5 5 4 3 3 2 2 2 2 2 2 3 4 4 5 5 6 6 6 7 8 9
7 5 4 5 5 6 6 7 7 6 7 7 7 5 4 7 7 6 5 4 4 4 3 2 2 2 2 2 1 2 2 2 3 3 4 4 5 6 6 6 7 8 10
8 7 4 5 4 5 5 5 8 6 8 8 7 6 6 6 7 7 6 6 2 1 1 2 2 1 0 1 1 1 2 2 2 3 3 4 7 8 8 8 8 9 10
9 8 5 7 7 7 7 7 9 7 8 6 7 6 6 5 6 7 6 5 4 2 2 1 1 1 1 1 3 3 3 3 3 5 6 7 8 8 8 8 9 9 9
8 9 7 7 7 7 7 10 9 9 7 7 7 7 7 6 6 7 7 6 6 5 2 3 2 2 2 2 3 4 4 5 5 6 7 7 7 7 7 7 7 7 8
7 8 5 6 6 10 6 8 7 5 5 6 6 5 5 4 4 4 5 6 5 5 5 4 5 2 3 3 4 3 4 4 4 4 6 6 6 6 6 6 7 7 8
8 8 6 8 8 8 8 8 7 4 6 8 7 3 3 2 2 1 1 3 3 4 3 2 2 2 3 4 4 2 2 3 4 5 5 5 5 6 6 6 7 8 10
7 8 6 6 7 6 6 7 6 5 6 7 6 3 2 1 2 4 2 1 2 2 3 4 2 2 3 4 4 3 2 2 3 4 4 4 5 6 6 7 8 10 11
9 7 6 5 7 5 6 5 7 8 7 7 8 5 2 3 2 4 5 3 4 2 2 2 3 2 4 5 5 5 4 4 5 5 4 5 6 6 6 7 8 9 10
11 9 8 6 6 6 7 5 4 7 10 8 7 10 8 5 2 1 5 6 5 3 2 2 2 1 1 2 2 3 4 4 4 4 4 4 5 4 4 5 6 6 7
12 11 11 9 6 7 7 5 5 7 8 8 9 9 7 7 4 2 1 2 3 4 6 4 4 3 3 3 2 2 1 2 3 2 2 2 2 1 2 2 2 3 4
18 15 13 12 10 8 9 7 7 7 9 9 11 10 7 5 6 7 5 5 5 4 5 5 6 7 7 7 6 5 5 5 4 4 4 5 6 5 6 6 6 6 6
24 22 17 15 13 11 9 11 10 10 9 10 11 12 11 9 8 7 7 7 7 8 7 6 6 8 9 9 8 7 7 8 8 9 8 8 9 10 9 10 10 10 10
28 25 22 20 17 14 12 12 11 11 11 12 12 13 12 13 12 12 11 8 8 8 10 7 7 9 8 8 9 10 12 10 11 11 12 12 13 13 14 14 14 13 13
22 25 23 20 20 17 15 12 13 12 12 12 12 14 13 13 13 12 13 12 9 9 10 8 7 6 7 11 12 14 15 14 14 15 16 16 16 17 18 18 17 16 15
20 20 21 21 20 20 18 16 15 14 14 14 14 14 14 14 14 13 13 13 13 13 13 11 13 14 13 13 13 15 17 18 20 21 21 21 21 21 22 21 20 20 18
24 22 22 24 23 22 21 20 18 17 17 16 17 17 15 13 14 16 17 18 18 19 21 19 21 21 20 19 19 20 21 22 23 22 24 26 26 26 26 25 25 23 23
28 25 25 26 25 26 24 23 21 21 21 19 18 19 19 18 17 17 18 20 21 22 24 29 27 29 29 26 27 28 28 28 28 28 25 27 29 30 31 30 28 27 26
32 29 29 29 29 29 27 26 24 23 23 21 19 20 19 19 19 19 21 23 24 25 26 30 33 32 35 34 33 34 35 34 35 35 33 33 32 32 34 34 32 31 30
33 33 31 31 31 31 30 29 28 27 26 24 23 23 23 23 23 22 23 25 26 28 30 33 36 33 33 35 37 37 39 37 39 37 38 37 38 36 36 36 37 36 33
33 34 33 33 32 33 32 32 31 30 30 29 28 27 27 26 26 25 26 27 26 27 27 25 27 28 29 26 30 34 38 40 42 38 40 38 34 35 35 38 40 41 40
33 34 36 35 34 35 34 33 32 33 32 32 31 30 29 28 27 26 26 27 29 31 32 33 32 32 40 40 37 38 35 34 43 27 31 40 35 41 42 40 39 40 43
34 35 36 37 37 36 36 35 34 35 35 35 35 34 33 32 30 30 31 31 33 34 35 36 43 45 48 46 46 45 36 39 47 38 33 48 38 47 49 44 45 44 40
36 36 36 37 38 38 37 36 36 37 39 39 38 37 37 36 36 35 34 37 39 40 41 41 43 46 44 42 39 39 38 40 45 44 37 46 45 47 48 46 47 45 43
36 36 36 37 38 37 36 35 36 39 42 43 42 41 41 40 40 39 40 42 43 44 41 42 40 38 36 33 27 28 33 36 46 48 42 36 49 46 45 45 42 49 46
32 32 34 35 36 35 33 32 32 36 40 41 41 42 42 42 41 40 41 41 44 41 38 34 31 34 33 31 26 28 33 39 42 49 40 35 40 37 39 37 39 38 40

GFSMA_850_spd_054.txt.gz
Wind_Speed
8 7 5 6 5 6 6 8 7 6 5 5 5 5 5 7 6 6 2 5 5 5 5 4 3 3 3 3 2 2 3 3 5 5 5 6 7 8 8 7 7 8 9
8 6 6 6 5 5 7 7 7 6 7 5 5 6 6 6 7 6 4 1 4 4 4 3 3 2 2 2 2 3 3 3 4 4 4 5 6 7 7 7 7 7 8
9 7 3 7 5 5 7 6 6 7 6 5 5 6 5 7 6 5 6 2 2 4 3 3 2 1 1 2 2 3 3 3 3 4 4 5 6 6 6 6 8 8 8
9 7 8 5 6 5 5 7 7 7 6 5 6 6 5 6 7 5 4 3 3 4 6 4 1 1 1 1 2 3 3 3 4 5 5 6 6 6 6 7 7 7 7
7 6 5 8 9 6 7 8 8 6 6 5 7 6 6 5 6 4 4 4 1 2 1 5 3 3 3 2 3 3 3 3 4 4 4 5 5 6 5 5 5 6 7
6 7 6 8 9 7 7 8 8 7 7 7 7 6 5 4 4 3 4 4 2 3 2 1 4 5 4 3 3 3 3 2 3 3 3 4 4 3 3 4 5 6 7
6 6 5 6 7 8 7 7 6 5 7 7 6 5 2 2 1 1 2 2 2 3 2 1 2 0 7 5 3 3 3 2 2 2 3 4 4 4 5 6 7 7 8
8 7 7 6 8 7 8 9 8 6 6 8 3 4 4 3 1 2 1 0 0 1 2 2 0 1 1 1 3 3 2 2 3 3 4 4 4 5 6 7 7 7 7
8 8 7 8 8 8 5 6 7 8 6 7 7 3 2 1 1 1 3 1 2 1 1 1 0 1 0 1 4 4 4 3 4 4 4 4 4 4 5 5 5 5 5
11 9 7 6 6 7 9 5 6 8 9 7 6 7 4 2 3 3 1 3 3 3 4 2 3 3 3 0 2 0 2 2 2 2 2 1 1 1 1 1 1 1 2
12 11 9 7 6 5 7 8 6 9 8 7 7 6 4 2 2 3 3 2 2 4 5 5 5 4 5 4 5 4 3 3 2 2 2 2 3 4 4 4 4 5 5
13 13 11 9 8 6 6 7 6 7 9 9 8 8 5 3 2 3 2 1 1 2 3 5 6 6 6 7 7 10 7 7 7 6 6 6 7 8 8 8 8 9 9
14 14 15 12 10 9 8 8 7 7 6 8 9 8 7 5 5 3 2 3 3 3 4 5 7 8 7 9 9 12 9 9 10 10 11 11 11 11 12 12 12 13 13
15 15 15 15 13 12 11 10 8 7 8 8 10 11 8 8 8 6 6 5 6 5 5 5 6 7 9 9 11 13 14 13 15 14 15 15 16 16 15 15 16 17 17
16 16 17 17 16 16 16 13 10 10 10 10 9 12 11 9 8 8 8 8 7 7 5 4 3 6 6 8 11 13 16 19 18 19 21 22 21 21 21 20 20 20 20
21 19 17 18 18 17 18 17 13 12 11 10 10 11 11 10 9 9 9 8 8 9 11 7 8 10 12 12 14 17 18 19 22 22 24 27 28 27 27 26 25 24 23
26 22 20 19 19 18 19 21 18 15 14 13 13 14 13 13 10 10 10 11 11 12 15 14 13 15 22 20 19 21 25 26 25 28 26 26 29 30 31 31 31 29 28
28 27 24 22 22 21 19 23 23 18 17 16 15 16 16 14 16 15 13 15 15 16 17 23 19 20 21 23 28 27 27 25 26 28 35 33 31 33 33 34 35 35 34
31 28 29 27 25 22 21 23 24 23 20 19 18 18 18 17 19 16 16 16 16 17 18 20 22 20 22 22 24 27 27 27 27 27 28 30 30 32 34 37 38 38 39
33 31 31 30 28 26 24 23 24 25 23 21 21 20 20 20 20 20 19 20 20 20 20 23 23 23 23 22 23 25 26 23 26 26 28 29 34 36 35 33 36 40 42
35 34 33 32 32 28 26 27 26 24 25 25 23 23 23 24 25 24 20 20 21 21 21 22 24 23 23 23 23 27 32 31 31 29 30 29 30 30 32 38 38 36 39
37 35 36 35 35 30 28 31 29 25 26 27 27 27 28 28 29 29 28 27 27 27 27 26 27 28 30 30 28 31 35 38 43 30 32 35 31 37 36 34 35 40 43
38 38 38 37 37 36 33 33 32 32 27 27 29 29 27 25 27 29 30 30 30 31 33 34 39 38 38 35 36 39 37 38 39 36 34 47 34 35 32 33 35 38 41
40 39 38 39 38 38 36 35 33 33 35 35 32 30 31 32 30 27 26 26 28 29 32 35 39 41 39 35 31 32 36 39 37 35 32 39 34 37 35 34 35 36 38
40 40 39 39 40 39 38 36 34 35 38 40 40 40 38 38 37 36 37 39 40 40 32 35 39 39 36 34 29 28 33 30 37 37 28 34 39 38 40 40 39 41 41
40 37 37 39 39 39 38 37 35 36 35 37 39 42 42 42 41 40 41 41 44 39 33 31 29 29 30 29 30 27 29 33 38 48 33 32 40 41 51 45 36 33 34

GFSMA_850_spd_057.txt.gz
Wind_Speed
7 4 4 8 8 8 5 7 4 7 4 5 9 7 5 8 8 7 4 5 6 5 6 4 4 4 4 4 3 2 2 3 3 3 4 5 6 7 6 6 7 7 8
8 8 2 5 9 4 7 7 6 4 4 5 3 10 11 8 8 7 6 6 6 5 4 3 3 4 3 2 2 1 2 1 2 2 3 4 5 6 6 6 7 8 9
5 5 5 6 5 2 9 4 6 6 5 5 5 5 6 8 7 6 5 3 6 6 5 3 1 1 2 1 1 1 2 2 2 3 4 5 6 6 7 7 7 8 8
8 2 6 5 5 5 4 9 5 3 4 6 7 6 9 8 6 5 5 4 5 1 7 8 3 2 1 2 3 3 3 4 5 5 5 5 5 5 5 5 6 6 7
7 7 1 6 11 3 8 5 6 5 4 6 4 7 5 5 5 5 3 3 2 1 5 5 7 6 3 2 2 2 3 4 3 4 4 4 4 4 4 4 4 5 6
6 7 8 6 8 7 7 7 5 4 7 4 7 8 5 4 3 3 4 4 3 3 1 5 4 7 9 7 5 3 3 3 3 3 3 2 2 2 2 3 4 5 6
6 9 5 7 8 3 10 7 7 7 5 3 5 6 2 3 2 2 3 4 4 3 0 1 1 4 7 9 6 5 3 3 3 2 1 1 2 2 3 4 4 5 6
8 6 7 6 8 4 5 7 7 8 4 5 7 6 5 5 4 2 2 2 3 1 0 2 1 4 3 5 8 4 3 3 2 1 1 2 3 3 3 3 3 4 5
9 9 7 9 9 9 6 8 7 6 4 6 8 3 3 5 7 1 2 2 1 2 2 2 2 3 2 4 4 4 3 3 2 1 1 1 1 1 1 1 1 1 3
10 8 8 7 8 6 6 6 6 8 5 6 3 3 2 3 3 1 2 3 3 2 4 3 3 4 4 1 5 6 3 2 1 1 2 2 3 3 3 4 3 4 5
12 10 9 9 7 8 8 7 8 10 8 5 6 6 3 2 3 5 5 5 1 2 3 1 3 3 6 4 6 7 5 5 5 4 5 6 6 7 7 8 8 8 9
12 13 11 11 9 7 7 7 6 11 9 9 5 7 7 6 6 3 1 3 3 0 2 3 4 5 6 7 6 11 11 8 7 8 8 9 10 10 11 11 12 12 13
14 16 15 12 8 7 7 9 9 9 9 8 11 8 5 4 1 2 1 2 1 1 2 4 5 6 7 8 9 15 13 10 11 11 12 13 14 14 14 15 15 16 16
15 14 14 14 12 11 9 9 7 6 8 9 10 13 7 7 6 6 5 3 5 5 5 4 6 7 8 9 10 16 19 18 16 16 17 18 19 19 19 19 19 19 19
16 17 14 13 15 13 12 12 9 9 8 9 10 11 11 7 7 8 7 7 6 7 4 3 2 7 7 8 11 18 17 19 19 19 21 23 24 25 26 26 25 25 25
23 14 18 17 16 17 16 16 12 13 12 11 9 12 11 9 9 10 9 8 8 9 10 7 7 8 12 13 14 19 22 22 25 26 25 26 28 29 30 32 32 32 32
22 25 20 18 18 18 18 19 17 13 14 14 14 12 12 13 10 9 10 10 10 10 12 12 11 12 16 23 25 25 25 23 22 27 30 31 32 32 33 34 36 37 38
29 27 24 22 19 19 19 20 19 17 17 15 15 15 15 13 16 15 14 14 13 14 14 19 17 19 20 20 23 27 30 22 21 24 26 26 27 27 28 31 36 42 41
33 28 27 26 23 21 23 22 21 20 20 20 19 18 18 17 19 16 17 15 15 17 15 17 19 19 21 21 22 23 25 27 27 22 27 29 30 33 36 35 32 31 35
37 34 31 29 27 24 24 24 23 23 22 22 21 20 20 21 22 21 20 21 20 20 19 21 22 22 22 22 22 24 24 23 27 27 27 28 32 33 35 37 35 36 36
40 37 34 32 30 26 24 26 26 25 24 24 23 22 22 23 23 24 20 20 20 19 19 21 23 23 23 23 21 25 31 30 30 33 37 33 29 29 31 36 39 39 40
42 40 38 36 34 29 27 28 27 26 27 26 26 25 24 24 25 26 29 28 27 27 28 26 26 27 29 29 28 28 32 39 39 26 31 37 33 37 34 29 28 34 37
43 43 40 39 38 37 32 31 30 31 26 28 28 26 24 21 23 25 25 25 27 29 32 33 36 37 39 37 37 37 30 33 38 37 32 37 29 33 33 29 35 29 32
44 44 43 42 41 40 37 35 34 33 32 32 28 27 28 27 27 23 24 24 27 28 27 28 32 34 35 34 31 32 36 38 37 31 26 33 34 35 32 33 33 33 37
46 45 44 43 43 42 38 36 35 35 34 35 34 34 34 34 33 31 32 34 35 35 31 32 34 35 34 32 31 32 34 32 32 27 26 31 27 34 36 38 26 29 33
47 43 44 44 43 42 40 39 36 35 31 33 34 36 37 38 38 37 37 37 39 39 37 35 33 32 28 26 28 26 25 29 30 36 24 27 32 31 37 34 33 33 35

GFSMA_850_spd_063.txt.gz
Wind_Speed
10 9 9 8 11 9 10 8 10 12 11 12 15 17 17 8 10 11 8 7 7 6 4 4 4 3 2 2 3 3 3 4 5 6 6 6 7 7 8 8 9 9 10
8 10 8 8 11 13 11 13 8 9 11 9 9 8 9 9 6 7 9 10 9 9 7 5 4 3 2 2 2 3 3 4 4 5 6 7 7 8 8 7 8 8 8
6 4 9 13 11 8 7 9 4 9 11 11 13 11 6 6 4 7 7 7 8 11 11 7 4 4 4 3 3 3 3 3 4 5 6 6 6 6 7 6 6 7 7
9 8 6 8 11 11 8 11 10 9 9 8 8 9 8 5 5 5 8 7 8 7 7 10 9 8 6 5 5 5 4 4 4 5 5 5 6 5 5 5 5 5 6
9 10 15 15 14 9 12 10 8 8 13 6 12 12 7 6 6 6 6 4 7 8 7 3 7 9 10 7 5 4 4 4 4 4 4 4 4 4 4 4 4 4 5
8 11 13 13 8 13 11 12 7 6 6 10 6 9 5 2 2 2 4 6 7 5 7 9 5 8 9 12 10 7 5 4 4 4 4 4 3 3 2 2 3 3 5
8 7 9 12 11 11 11 10 10 7 11 10 10 8 4 2 3 4 3 2 2 3 6 6 6 6 7 8 11 8 6 5 5 4 4 4 3 3 2 1 2 3 4
8 10 11 14 5 11 13 11 10 10 10 7 8 2 1 5 5 4 3 1 1 3 5 10 11 9 8 6 7 8 7 6 5 5 5 4 4 4 4 4 4 4 4
7 11 11 12 11 9 12 10 11 10 9 7 4 2 4 2 7 6 3 4 6 4 6 9 10 10 13 4 5 8 8 8 7 6 6 6 6 7 7 7 7 8 8
8 11 9 10 10 8 7 8 18 10 3 6 4 3 2 5 4 6 7 7 4 4 7 5 10 8 8 12 6 8 8 10 10 9 8 8 9 10 10 11 11 11 12
7 9 9 11 11 10 10 9 14 10 10 8 7 6 3 5 3 2 1 9 5 6 3 4 5 7 7 10 10 8 8 10 11 12 12 12 12 13 13 14 15 14 14
12 8 8 6 9 13 11 12 11 12 12 12 6 6 9 5 2 6 9 9 8 2 1 2 6 7 8 7 9 11 11 13 15 17 18 18 18 18 19 19 19 19 19
15 11 15 11 8 9 8 9 11 13 13 11 9 8 6 5 1 3 4 7 1 7 3 5 6 7 10 11 12 13 14 16 19 21 22 23 23 24 24 25 25 26 25
16 13 9 10 9 9 10 8 10 12 14 15 14 11 8 7 4 1 1 3 3 2 5 9 5 7 9 11 14 14 16 17 24 26 27 26 24 23 23 24 26 28 30
15 19 16 13 12 9 12 10 8 11 13 15 17 17 14 10 8 4 4 6 6 8 8 0 6 8 9 12 13 14 15 23 25 21 19 19 17 18 22 25 26 25 25
24 15 23 21 16 11 14 12 10 12 11 10 11 17 19 14 12 9 6 9 9 9 10 8 6 8 6 11 12 16 24 22 20 22 22 23 22 24 25 27 29 29 29
29 22 18 23 18 14 14 14 13 13 10 9 10 11 14 13 18 15 12 12 10 12 15 12 12 12 15 18 21 20 16 21 24 24 23 25 25 27 30 32 35 35 35
31 28 24 21 21 18 16 19 17 16 18 15 15 14 16 13 14 19 17 14 14 14 15 19 18 18 16 13 14 14 19 23 19 17 24 23 25 27 35 33 28 29 29
36 32 24 27 25 24 20 19 19 18 22 21 17 17 19 20 18 16 20 22 21 19 19 22 22 19 20 18 14 20 16 17 24 29 28 31 36 31 23 27 30 23 21
40 39 37 34 33 33 29 23 21 20 19 25 22 20 19 19 21 20 19 19 18 20 21 23 25 25 20 16 16 20 27 26 28 30 30 26 23 25 20 19 20 21 26
44 41 41 41 38 34 31 28 26 24 22 22 25 26 24 23 23 22 22 22 21 21 20 20 22 22 22 21 25 30 31 30 31 29 29 26 26 23 25 26 22 23 26
48 45 44 43 42 40 35 31 28 28 26 24 23 23 25 25 23 22 21 21 22 25 25 25 27 29 31 31 27 24 27 31 36 31 32 29 25 28 28 25 27 25 21
42 48 45 44 44 43 40 34 30 29 28 27 26 24 23 24 24 25 24 24 22 21 22 23 25 25 24 20 22 28 30 32 33 31 30 33 28 30 28 27 15 15 26
41 43 47 46 45 44 41 37 33 30 29 27 26 25 24 23 23 22 22 22 23 23 23 23 24 22 22 24 28 29 31 34 32 27 28 30 28 30 28 18 13 23 29
42 41 42 44 44 42 40 38 35 34 34 33 31 30 29 28 25 24 24 26 29 30 28 27 27 28 31 31 30 29 27 28 30 27 24 26 30 28 27 17 22 31 28
42 41 42 42 42 42 40 38 37 37 37 38 37 36 35 34 31 30 31 30 32 30 28 28 29 30 27 25 24 25 21 23 25 28 25 28 23 22 23 14 32 32 29

GFSMA_850_spd_066.txt.gz
Wind_Speed
14 12 14 14 12 14 15 15 14 15 10 12 8 10 8 8 11 9 7 7 6 6 5 4 4 4 3 3 3 3 4 5 5 5 5 6 8 8 9 9 9 9 10
11 13 11 13 14 13 13 12 10 13 11 8 11 11 9 8 9 7 11 10 10 9 6 5 5 5 4 4 4 5 5 5 5 6 7 8 8 8 8 9 9 9 9
12 11 12 20 19 15 12 6 10 10 12 12 8 7 8 7 7 6 8 8 10 9 11 6 6 5 4 3 4 4 5 5 6 7 7 7 7 7 7 7 7 7 7
8 12 14 13 13 12 12 7 9 11 13 12 7 8 8 6 6 6 6 7 7 7 7 9 9 7 4 3 3 4 4 4 5 5 6 6 7 6 6 6 6 6 7
8 10 11 13 13 11 11 11 8 8 9 10 9 6 6 7 8 6 7 11 7 6 9 6 8 8 8 6 5 4 4 4 5 6 6 6 6 6 5 5 5 6 7
9 11 18 14 12 13 14 13 10 10 8 12 10 6 3 1 1 2 4 4 4 5 9 7 5 5 7 9 9 7 6 5 5 5 5 5 6 5 5 5 5 5 6
12 13 15 13 17 11 13 12 10 7 10 13 8 8 6 5 5 6 4 2 2 3 7 8 9 5 6 7 9 9 8 7 7 6 6 6 6 6 6 6 6 6 7
13 13 14 15 11 13 13 11 13 12 13 10 9 6 4 5 7 8 8 6 1 1 6 7 9 10 9 7 8 8 8 8 8 8 8 8 8 8 8 8 8 8 9
13 12 13 14 13 14 14 13 14 12 13 11 6 3 4 3 3 4 4 3 4 3 6 7 7 8 11 6 7 7 8 9 10 10 10 11 10 10 11 11 11 11 11
13 14 15 16 14 11 15 15 14 13 11 11 8 4 2 3 2 3 4 4 5 4 5 5 6 7 7 8 8 8 9 11 12 13 14 14 15 14 14 14 14 14 14
12 15 12 14 13 13 12 15 16 13 11 10 8 8 4 3 2 3 3 6 9 6 3 4 5 8 7 7 7 7 9 11 13 15 16 18 19 19 19 19 19 19 18
13 14 14 13 11 13 13 12 17 15 12 11 10 8 5 3 1 5 5 5 9 5 3 3 4 6 7 9 9 9 11 13 17 21 22 23 23 23 22 22 23 24 24
16 14 16 13 12 14 13 13 15 16 14 13 13 7 3 4 1 2 5 4 2 7 4 6 4 5 5 8 12 14 15 18 22 25 25 24 23 22 21 21 21 23 25
17 13 13 14 12 12 13 14 13 14 17 16 13 11 8 6 4 2 2 4 1 2 4 5 3 7 10 10 12 15 18 20 25 24 20 22 22 22 25 26 24 24 24
18 19 16 15 14 9 10 11 13 13 16 18 17 14 13 9 8 5 6 5 7 7 9 1 5 7 9 11 13 15 18 24 24 21 23 23 22 25 28 30 31 31 33
20 17 19 18 18 14 12 12 14 14 16 16 19 20 18 16 13 11 9 8 8 9 10 8 8 10 10 10 14 18 22 20 21 23 23 20 24 24 25 26 30 28 25
24 23 20 19 23 20 15 15 15 15 16 16 15 16 19 21 18 17 13 12 10 12 16 15 14 13 14 16 15 13 15 18 21 20 20 27 26 26 32 27 21 25 28
30 29 27 22 23 24 19 16 16 17 17 17 15 14 16 20 21 22 20 16 15 15 17 19 16 16 18 17 18 14 15 17 17 26 27 31 30 23 22 21 20 19 14
34 33 33 30 24 25 23 18 16 17 18 19 17 17 15 17 19 18 20 23 20 18 19 22 23 24 24 22 19 17 17 19 27 26 25 24 20 19 16 17 18 13 18
42 38 35 35 31 29 27 23 19 17 19 21 22 21 19 19 19 20 19 18 19 22 22 23 26 26 25 21 20 21 26 28 25 24 23 18 18 16 16 17 16 17 20
47 45 43 39 35 33 31 30 27 24 21 21 23 25 24 22 22 21 21 21 20 21 21 22 24 23 23 23 24 26 28 25 27 28 22 20 19 19 20 21 17 18 18
51 50 49 45 42 40 36 33 30 28 25 24 24 24 25 25 25 24 23 23 22 22 22 22 23 24 24 23 20 20 23 27 32 26 30 21 22 21 21 18 13 11 24
47 52 53 51 48 46 45 41 37 33 30 29 27 26 26 26 25 25 25 24 24 23 23 22 23 24 24 20 21 24 27 30 30 25 24 24 21 22 19 12 8 22 27
43 47 49 53 52 50 47 45 42 39 36 33 31 28 26 24 24 23 23 24 25 25 24 23 25 25 25 22 24 27 31 31 28 20 20 25 20 23 18 11 10 26 27
41 42 45 46 49 50 48 46 44 43 41 39 35 32 30 27 24 22 24 25 25 25 23 25 26 26 26 26 28 30 27 25 26 18 17 20 23 22 17 9 17 27 25
41 38 41 44 45 45 45 43 41 42 42 41 39 37 35 33 30 27 28 29 30 28 25 26 27 27 26 26 23 22 21 24 22 23 18 21 23 16 12 7 24 26 26

GFSMA_850_spd_069.txt.gz
Wind_Speed
15 16 16 15 12 13 16 15 15 11 6 4 4 8 9 11 11 9 8 8 7 6 6 5 4 4 5 5 5 5 6 6 6 7 8 9 9 10 10 10 11 11 11
11 14 12 10 13 13 15 13 10 11 9 7 8 9 8 8 9 11 11 11 10 7 6 5 5 5 4 4 5 5 6 7 8 9 9 9 10 10 10 10 11 11 10
9 10 13 13 15 14 13 10 10 7 7 7 9 7 6 7 8 9 9 8 8 8 8 6 5 4 4 4 4 5 7 7 8 8 9 9 9 9 9 10 10 9 9
9 10 18 15 12 11 9 9 8 6 7 8 8 6 5 7 8 6 7 6 7 5 6 7 8 7 4 4 5 5 5 6 7 8 8 9 9 9 9 9 8 8 9
11 13 15 14 11 10 7 8 9 6 3 5 5 4 4 4 6 6 7 5 6 8 6 6 7 8 8 7 5 5 5 6 7 8 9 9 9 9 9 9 9 8 8
8 14 12 13 13 11 10 6 5 8 6 6 5 3 1 0 0 3 3 2 3 5 7 6 5 6 7 8 7 7 8 8 9 10 9 10 10 10 9 9 9 9 9
7 10 16 12 10 11 10 9 7 9 10 9 6 4 4 5 6 3 3 3 1 3 7 9 10 6 6 7 8 9 9 9 9 10 10 10 10 10 10 10 10 11 11
10 10 13 11 14 11 13 11 8 6 10 11 6 6 5 5 7 4 4 3 1 2 4 6 8 9 7 7 8 9 9 10 11 12 12 12 13 13 13 13 13 13 13
12 13 14 14 13 12 12 10 10 8 10 10 6 5 3 3 3 2 2 2 2 1 3 6 7 7 9 8 8 9 10 12 13 14 15 16 16 16 16 17 17 16 16
12 12 13 15 12 15 13 13 13 10 10 8 8 3 2 4 3 3 4 3 3 2 2 4 6 6 6 6 8 9 11 12 14 16 18 19 19 19 19 19 19 19 19
13 13 11 15 13 13 12 15 15 14 12 12 11 8 4 2 4 6 5 5 5 3 2 4 5 8 6 6 7 8 10 13 16 18 20 21 22 22 22 20 20 20 19
15 16 14 14 15 14 12 14 17 16 14 13 11 9 5 1 3 5 7 4 4 4 3 1 5 6 6 7 8 9 11 14 18 21 22 23 24 25 24 23 21 21 20
15 15 16 14 14 13 14 15 14 18 14 15 12 7 5 3 2 3 6 5 4 3 4 6 4 3 5 7 8 11 14 17 21 23 22 22 24 27 28 28 28 27 27
17 13 13 15 12 11 13 13 13 16 18 17 13 11 7 4 4 2 1 3 3 3 5 6 3 5 8 10 11 13 16 19 23 21 22 24 24 23 26 26 25 25 27
18 17 16 16 15 12 12 14 14 15 17 18 17 15 12 9 7 5 5 6 7 6 8 5 4 7 9 10 12 16 19 21 20 21 23 22 22 27 26 24 27 24 19
22 19 19 17 15 15 14 14 14 13 15 18 20 19 16 15 12 11 9 8 9 10 9 9 10 12 13 14 16 17 17 19 18 20 20 24 29 30 25 21 19 20 18
23 21 20 19 19 18 17 16 15 15 16 16 17 20 20 20 19 18 16 14 13 12 15 15 15 15 15 16 16 15 19 16 19 19 25 30 26 22 21 19 16 15 16
25 25 23 23 21 18 22 21 18 17 17 17 17 18 18 20 22 23 21 20 18 16 17 20 18 16 16 17 20 22 17 18 19 24 26 24 18 19 15 17 18 18 16
33 29 28 28 25 22 21 24 21 18 19 18 19 19 18 17 20 20 22 23 23 21 21 23 23 23 24 22 23 18 18 20 22 20 22 17 17 15 15 16 19 17 19
41 37 33 31 29 27 26 23 22 21 18 19 20 21 22 21 20 20 22 21 18 20 22 24 27 27 26 24 21 23 24 20 20 22 20 18 14 13 14 17 18 17 15
43 43 40 38 34 31 30 30 28 26 24 21 20 21 22 23 22 22 21 21 21 21 22 24 26 27 27 24 22 21 21 22 24 26 20 16 13 14 14 17 17 12 21
41 45 46 45 43 40 36 32 32 32 30 28 26 24 24 24 24 25 25 24 24 24 25 26 27 26 25 23 19 20 22 26 31 27 27 14 15 15 16 17 13 11 24
38 40 46 48 48 47 45 40 38 36 35 33 31 29 28 27 26 26 26 27 28 27 27 26 27 27 26 21 21 23 25 28 30 28 25 19 14 15 17 17 11 13 24
40 40 41 43 48 51 50 47 44 42 42 42 38 36 34 32 29 27 27 27 27 26 26 26 28 27 25 23 25 25 28 31 32 24 21 20 14 15 18 15 11 17 24
35 38 38 40 43 47 49 50 48 47 47 47 44 42 40 37 34 29 27 27 26 26 24 24 24 25 27 27 27 30 30 30 31 24 19 19 16 17 17 13 9 20 23
37 36 36 35 37 42 44 46 45 48 50 49 48 47 43 40 37 33 31 29 30 29 25 25 26 26 26 27 27 27 27 28 25 26 15 17 16 18 13 11 16 17 20

GFSMA_850_spd_072.txt.gz
Wind_Speed
13 14 15 12 10 8 6 6 5 1 2 1 5 7 8 9 10 9 9 8 7 6 6 5 5 5 5 5 6 6 7 8 8 9 10 11 10 10 10 10 11 11 11
9 11 10 8 9 9 10 8 6 3 2 4 7 7 7 6 9 9 9 9 8 6 4 4 5 5 4 5 5 6 7 7 8 9 10 9 10 10 11 11 11 11 11
7 9 7 6 10 12 9 6 5 4 1 4 6 6 6 7 8 7 6 7 7 7 7 6 6 5 5 6 6 6 6 7 8 9 9 9 10 11 11 11 11 11 11
8 7 10 10 10 10 7 6 4 5 5 6 5 7 7 7 6 5 6 6 6 5 6 6 7 8 7 6 6 7 7 7 7 7 8 10 11 11 11 11 11 11 11
7 6 12 11 10 9 5 3 4 4 5 5 5 6 6 6 5 5 5 5 7 7 4 6 6 7 8 9 8 8 8 8 8 10 11 12 12 12 13 12 12 11 11
8 10 12 12 9 8 5 4 3 2 2 1 2 2 3 3 3 2 3 3 4 6 6 5 5 6 7 8 9 9 9 10 11 13 13 13 13 13 13 13 13 13 12
6 10 12 11 12 10 7 4 3 4 4 2 1 0 4 4 4 4 5 5 3 3 4 6 8 7 6 7 8 10 11 13 14 14 14 14 14 13 13 13 13 14 14
8 5 12 10 9 10 9 6 3 3 6 4 1 5 6 5 5 5 4 2 2 3 2 4 6 7 6 7 10 11 12 13 14 15 15 16 16 16 16 16 16 16 16
9 8 10 9 10 9 9 8 7 3 5 5 3 4 5 5 8 5 3 2 1 1 1 3 5 6 7 7 8 10 11 12 14 15 16 17 18 18 18 18 18 16 17
9 11 10 12 11 10 10 9 8 5 5 4 5 5 5 7 5 7 6 3 1 0 1 3 4 4 5 7 8 9 10 12 14 16 18 19 20 20 19 18 18 17 16
10 11 12 13 12 10 11 11 11 10 8 6 7 7 6 6 6 10 7 5 3 2 1 1 3 5 5 6 7 8 10 13 16 18 20 21 21 23 24 23 21 18 18
11 12 12 11 12 10 10 10 13 13 13 11 10 8 6 3 5 8 9 7 6 5 5 5 3 4 4 5 6 8 11 14 17 18 18 19 21 22 23 24 23 22 18
13 13 13 12 12 12 12 10 10 12 13 12 10 9 4 4 3 4 7 7 7 7 8 6 5 4 7 7 8 10 12 15 19 19 19 22 22 22 23 25 23 22 23
14 11 10 12 12 11 11 12 12 12 15 14 12 11 7 4 3 3 5 6 8 8 8 8 3 6 9 10 12 14 17 17 18 19 21 21 24 27 30 29 23 22 16
16 15 15 11 11 11 9 10 12 11 12 14 14 14 11 9 6 6 6 7 9 10 12 7 6 8 11 13 16 18 20 19 21 19 20 24 30 29 26 22 18 18 16
19 17 17 16 13 14 12 10 10 12 12 13 15 16 14 13 12 10 10 10 11 12 13 14 14 15 15 16 17 18 20 23 20 21 23 28 28 26 22 20 18 18 18
21 19 17 16 16 15 14 13 10 11 13 12 13 16 17 16 15 15 15 14 15 17 19 19 18 17 17 18 17 19 21 22 20 22 25 25 25 21 21 20 20 21 19
25 20 20 18 18 17 17 18 16 14 13 14 13 15 16 16 17 18 19 19 18 19 21 23 22 21 20 20 22 23 22 21 23 23 21 24 20 19 20 20 22 21 20
30 27 24 23 21 20 19 18 18 19 17 15 15 15 16 16 17 17 18 18 19 20 21 24 26 26 26 25 24 23 22 23 20 18 23 19 20 18 20 21 21 20 15
34 33 31 27 26 24 23 22 20 20 19 17 15 17 17 18 18 17 17 18 19 21 21 23 25 26 26 25 25 26 26 22 22 22 20 21 15 17 19 21 20 17 14
36 37 36 34 32 30 28 26 24 22 21 20 18 17 17 17 18 19 20 20 20 21 22 24 26 27 28 27 24 24 25 25 24 26 25 22 15 18 20 21 21 17 16
35 37 40 39 39 39 36 31 28 26 25 25 26 23 22 20 19 18 20 22 23 24 25 26 27 29 28 26 24 22 25 27 29 26 32 23 17 18 19 23 22 18 18
39 38 36 39 42 42 41 39 36 34 32 30 29 28 26 24 21 21 21 22 23 24 26 28 30 30 29 25 24 23 24 26 27 29 31 28 19 17 17 23 22 19 19
39 40 39 37 37 40 43 44 42 41 40 38 35 33 32 30 27 25 25 25 26 26 26 26 28 28 27 25 24 24 27 30 31 27 24 27 19 15 17 22 21 17 22
33 33 37 37 37 38 38 39 42 46 46 45 42 40 38 36 33 30 30 31 30 29 25 24 25 24 24 24 23 26 27 28 31 27 23 25 15 18 19 23 18 18 23
29 28 30 31 31 31 33 35 38 40 44 47 47 47 44 41 37 35 35 34 35 32 28 26 26 27 26 26 25 27 26 29 29 29 19 24 22 22 18 16 17 22 22

GFSMA_850_spd_075.txt.gz
Wind_Speed
12 14 13 11 10 8 7 5 5 7 8 5 6 9 10 10 9 8 6 6 5 5 5 5 5 5 5 5 6 6 7 8 8 8 8 9 10 10 10 10 10 10 10
10 10 8 6 4 4 5 5 4 6 8 5 5 7 8 8 9 9 8 7 8 6 5 5 5 5 5 5 6 6 7 7 7 8 9 9 9 9 10 11 10 10 10
9 7 6 4 5 7 4 2 2 3 5 6 6 5 7 7 9 7 7 7 7 7 7 7 7 6 6 6 5 6 7 7 8 9 9 8 10 11 11 11 10 10 10
7 7 4 5 7 6 3 1 2 4 6 7 7 7 8 8 7 7 7 8 7 5 7 7 8 8 8 8 7 7 7 8 9 9 9 10 11 11 11 11 11 10 9
6 4 6 8 8 7 3 2 4 6 6 7 7 7 7 7 7 7 7 8 8 7 5 6 6 7 7 8 8 9 10 10 10 10 11 12 12 13 13 13 12 11 10
5 4 8 9 8 6 2 2 3 5 5 5 5 4 5 5 5 5 6 7 6 5 6 6 6 6 6 7 8 9 9 10 11 12 13 13 14 14 14 14 13 12 11
3 6 9 9 7 6 4 2 3 4 4 3 4 2 3 2 3 6 7 5 6 6 4 5 6 6 6 6 7 8 9 10 11 13 14 15 15 16 16 16 16 15 13
5 3 12 8 9 7 7 4 2 2 2 2 2 6 5 5 6 5 4 3 4 4 3 3 3 4 5 6 7 8 9 11 12 14 15 15 16 17 17 17 17 16 16
6 4 8 8 8 7 8 6 3 0 2 4 1 5 4 5 8 7 4 3 3 2 3 2 2 3 4 5 6 7 9 11 14 15 17 18 18 19 19 18 18 16 16
7 8 7 8 8 8 7 6 4 2 2 1 2 4 6 7 5 6 6 3 2 3 2 2 2 2 2 4 6 8 10 12 15 17 18 17 19 20 21 21 19 17 17
7 8 9 9 10 8 9 9 7 5 4 4 3 5 7 7 7 7 5 5 5 4 4 4 2 2 5 6 7 8 11 14 15 17 17 18 21 22 21 21 24 22 18
8 8 9 9 11 9 9 8 8 9 9 7 5 6 5 3 4 6 5 6 7 5 6 6 3 4 7 7 8 10 13 15 17 17 18 20 22 25 27 28 27 23 19
11 9 10 10 11 10 9 9 7 10 10 9 8 5 5 3 2 4 7 7 6 6 8 5 5 5 7 9 11 13 17 18 19 21 20 23 26 29 30 26 24 21 17
13 9 7 9 9 8 10 10 10 10 9 11 10 7 6 5 3 3 5 7 6 6 9 5 4 6 10 12 15 18 20 21 23 23 22 26 28 30 27 26 24 19 17
15 13 10 8 7 9 8 8 10 9 8 9 12 11 9 9 7 5 4 5 7 7 7 6 7 11 14 15 17 19 21 24 25 23 24 27 28 27 26 26 22 21 21
18 16 14 12 11 10 11 9 8 9 9 10 11 12 13 12 11 10 8 8 8 8 9 12 12 16 15 16 17 19 21 24 23 23 26 25 25 25 26 24 22 22 21
22 19 17 15 14 12 11 11 9 9 8 9 10 11 14 14 14 14 13 13 13 14 13 13 18 18 18 18 18 19 21 23 23 24 22 24 24 26 23 22 22 22 21
25 22 20 18 17 15 16 15 14 14 12 9 10 12 12 14 15 16 16 17 17 18 18 19 18 20 21 20 20 21 20 22 24 20 19 23 25 24 22 22 22 22 19
30 27 25 22 20 18 18 17 15 14 15 14 11 13 12 14 14 14 14 16 16 17 18 20 20 19 23 22 22 22 23 22 20 21 20 24 24 23 22 21 23 22 18
31 32 30 28 24 22 22 20 19 17 15 16 15 13 14 15 16 15 15 16 16 17 16 19 18 18 18 20 21 19 20 19 23 22 19 23 24 22 21 21 23 22 19
30 32 34 33 32 30 28 27 24 21 20 17 18 16 14 13 13 15 17 18 18 18 15 16 18 18 18 16 18 18 18 19 20 21 21 22 17 16 20 20 23 24 21
36 34 34 36 37 37 36 32 29 27 25 24 23 22 20 18 18 17 16 16 17 19 21 20 20 21 25 21 17 17 18 18 18 16 25 21 17 15 16 20 22 25 23
33 36 37 37 37 39 39 40 36 34 32 30 27 25 24 24 22 21 19 18 19 19 21 22 26 26 26 23 22 23 19 18 20 23 25 20 17 15 15 20 22 26 21
31 31 35 36 37 38 37 39 40 39 40 38 36 34 32 30 27 24 23 24 24 24 24 23 26 27 25 23 21 21 23 24 25 21 19 19 16 14 15 22 22 20 22
29 29 31 34 36 37 37 36 35 38 43 44 43 40 39 37 34 30 29 30 30 30 28 27 26 27 24 22 21 22 22 19 21 19 17 19 13 15 16 21 19 21 24
30 28 29 31 32 34 35 36 36 37 40 41 42 44 44 42 40 37 36 35 36 35 31 30 29 28 27 27 25 25 25 24 22 22 14 18 15 15 14 15 19 24 26

GFSMA_850_spd_078.txt.gz
Wind_Speed
12 11 12 10 9 9 6 8 8 7 7 6 8 8 7 8 8 7 4 7 6 6 5 5 5 4 4 5 5 6 6 7 8 9 8 9 9 8 8 8 8 9 10
11 8 8 6 6 7 6 6 7 7 6 5 7 7 8 7 7 8 5 6 9 7 6 6 5 5 5 5 6 6 7 8 8 8 9 9 8 8 8 8 7 8 9
9 8 4 5 5 6 7 6 6 6 6 5 6 6 6 7 6 6 5 4 5 8 8 7 6 6 6 6 6 7 8 8 8 9 8 8 9 10 9 9 8 8 8
6 6 3 3 4 5 6 5 5 6 7 7 6 6 6 6 6 6 6 5 3 3 7 7 7 7 8 8 8 8 8 8 9 9 10 10 11 11 11 11 10 9 8
5 4 3 4 6 4 4 5 5 5 6 7 7 6 5 5 5 4 4 4 3 3 2 5 6 8 8 8 8 8 9 10 11 12 12 13 13 13 13 12 11 11 10
4 3 5 7 7 4 3 4 5 5 4 4 3 3 2 2 2 3 3 3 2 3 3 4 4 6 8 7 8 9 10 11 12 12 13 14 15 15 15 14 13 11 11
3 5 6 6 5 4 4 4 5 4 3 2 3 2 2 2 2 1 1 1 1 2 2 3 4 2 4 6 8 9 10 11 12 13 15 16 17 17 17 17 16 15 13
4 4 8 6 7 4 4 5 5 4 4 3 4 1 3 6 5 3 2 1 0 0 2 3 2 3 3 2 5 9 10 12 13 15 16 16 17 18 19 20 20 18 16
6 4 9 8 7 7 5 4 3 3 4 2 5 5 5 7 1 4 3 1 1 1 1 2 3 2 4 3 6 8 11 13 15 15 16 16 18 20 21 22 22 21 19
6 6 8 8 8 7 7 5 4 3 6 3 2 3 7 4 6 5 4 2 3 3 1 3 2 3 4 4 6 8 10 13 14 16 16 17 19 21 24 26 26 24 20
6 6 9 9 9 7 7 7 5 4 3 3 1 1 3 3 4 3 6 5 5 4 3 3 2 2 4 5 6 8 11 15 16 17 17 17 21 25 28 27 24 22 17
5 6 7 9 10 8 8 8 8 7 7 6 3 2 1 1 3 3 2 4 4 4 3 3 3 3 4 5 7 10 14 17 18 21 19 20 24 27 29 25 22 20 17
7 9 7 8 9 10 8 8 6 8 9 7 6 4 3 1 0 2 2 4 2 3 3 3 3 3 3 5 8 15 16 18 21 22 20 22 26 27 27 24 21 19 19
9 9 7 8 8 11 10 9 8 6 9 8 8 7 5 4 2 1 1 1 1 2 1 2 2 2 6 8 12 15 12 20 22 22 23 24 25 26 26 23 20 19 19
10 11 9 9 10 10 9 9 7 9 10 8 9 11 7 8 6 4 3 2 1 3 2 2 2 7 7 9 13 16 15 20 22 22 24 24 24 26 25 22 20 20 19
13 12 13 12 10 10 11 9 8 8 8 8 8 11 10 10 10 8 7 6 5 5 7 6 8 9 10 10 12 17 17 20 21 26 24 24 24 26 23 20 20 20 19
16 16 16 15 13 12 12 13 11 9 8 9 10 11 11 13 11 11 10 10 9 9 10 11 11 11 15 13 14 16 15 16 14 22 22 23 23 25 22 20 21 21 19
18 17 17 16 14 14 15 14 12 11 11 10 9 11 11 11 16 15 12 13 12 12 13 15 14 12 13 14 14 16 15 14 16 16 25 22 24 24 20 19 20 22 21
20 20 19 19 17 16 17 17 16 15 15 14 13 12 12 12 14 13 13 13 12 12 12 13 14 13 13 13 13 14 15 17 15 19 20 20 25 27 23 19 19 22 22
22 22 24 21 19 19 18 19 18 19 16 15 14 15 14 14 15 14 14 14 14 14 14 14 14 14 13 12 13 14 16 15 17 16 15 15 20 23 24 23 17 21 24
28 25 24 26 26 22 21 20 20 20 20 19 17 16 16 16 15 15 14 15 15 15 14 14 15 15 14 13 13 16 16 17 18 15 16 16 15 18 23 25 18 20 24
31 31 30 28 27 26 26 27 26 21 21 20 20 19 19 21 19 18 17 17 19 18 18 17 17 18 19 16 15 15 16 18 19 13 14 19 16 14 13 16 21 21 21
28 30 32 32 32 32 30 32 33 32 26 24 23 22 22 22 24 24 22 21 22 22 22 21 22 22 21 19 18 18 16 17 19 19 19 17 15 14 14 19 18 17 16
25 29 31 33 34 34 34 33 32 34 37 37 33 29 27 26 25 24 23 23 24 24 25 25 27 26 24 22 21 18 17 20 20 17 16 20 16 17 15 21 23 14 19
22 24 26 30 32 35 35 35 34 35 36 40 41 42 40 37 36 34 33 30 27 28 24 28 28 29 28 26 24 22 20 19 21 20 17 19 18 16 16 18 24 19 22
24 23 23 25 28 33 35 36 36 36 31 33 36 40 43 45 43 42 40 38 38 38 28 27 27 31 31 30 28 28 27 23 22 23 18 17 18 16 17 14 13 25 23

GFSMA_850_spd_081.txt.gz
Wind_Speed
12 12 9 10 9 9 7 7 7 8 9 8 8 7 6 8 7 5 7 8 7 7 6 5 5 6 6 6 7 7 7 8 9 9 10 10 9 8 8 8 7 7 7
11 9 9 9 5 9 7 5 12 9 5 8 7 7 6 5 6 5 4 9 10 10 8 7 7 6 6 7 6 7 8 9 9 10 10 9 9 8 8 8 7 7 7
5 7 6 9 6 7 8 4 5 5 6 6 6 5 6 6 5 4 4 4 9 10 12 10 9 9 9 8 8 8 9 10 10 10 10 11 10 10 9 9 8 7 7
6 9 5 5 7 4 8 3 6 7 6 7 6 6 4 5 4 5 3 4 4 5 10 11 10 10 9 9 9 10 10 10 10 11 11 12 12 11 12 13 12 10 9
6 6 5 3 8 3 6 5 6 5 5 4 6 6 4 2 3 3 3 4 3 4 2 6 11 13 10 10 10 11 11 11 11 12 12 12 12 12 12 13 14 13 12
4 6 5 5 4 7 5 5 5 4 5 1 5 4 1 1 2 2 2 3 2 4 2 3 7 9 10 10 10 10 10 11 12 12 13 14 14 14 15 15 14 13 13
5 9 6 5 3 3 8 6 6 5 3 1 2 2 2 3 3 2 2 3 2 3 1 1 6 2 6 8 8 9 10 11 12 14 15 16 16 18 20 20 19 16 15
3 4 8 6 5 8 5 2 2 4 5 4 8 3 2 8 6 4 2 2 2 2 2 3 1 1 3 2 5 10 11 13 15 16 17 17 18 19 20 22 22 20 18
4 4 9 3 7 6 6 5 3 1 3 4 6 9 8 3 6 5 4 2 3 2 2 2 3 1 1 1 8 11 13 15 16 18 18 17 18 22 23 24 22 21 16
4 4 5 5 8 6 8 5 3 2 0 4 3 5 8 9 8 4 5 1 4 4 2 2 1 0 2 5 8 9 12 15 15 18 19 18 21 24 25 23 21 19 17
6 6 6 6 10 8 9 6 4 7 2 3 2 1 4 3 4 8 8 6 5 3 2 3 3 1 2 2 4 8 13 15 18 20 20 21 23 24 24 23 19 16 15
4 7 8 9 8 6 2 6 6 6 7 5 0 3 5 3 7 6 3 1 6 3 2 2 2 1 2 5 9 14 15 18 21 21 22 24 24 24 24 22 18 16 16
9 9 4 8 8 11 8 8 7 8 10 7 7 7 3 4 2 3 5 3 0 3 2 1 1 1 3 5 10 15 18 21 22 22 24 24 23 24 24 20 18 17 16
9 10 6 7 9 9 7 9 7 4 8 7 9 10 6 5 4 4 5 3 5 4 3 3 3 3 6 7 13 17 14 20 22 22 26 25 23 25 22 19 18 18 17
8 7 7 8 8 8 9 10 7 8 9 7 8 10 13 6 7 6 5 6 7 11 5 4 2 6 6 8 13 17 17 16 17 23 26 26 24 24 21 19 17 19 17
11 13 10 10 9 10 9 9 9 10 10 8 7 13 11 11 8 9 8 7 8 9 10 6 6 9 15 15 11 21 17 16 17 19 26 25 24 24 22 19 18 19 18
14 12 9 12 12 10 11 12 12 7 6 9 13 8 11 15 10 10 10 11 10 10 13 13 12 11 14 21 16 17 15 14 16 21 23 28 24 24 24 21 18 19 20
15 17 15 17 15 14 13 14 12 11 11 10 10 11 11 11 15 17 12 12 12 13 12 17 17 17 15 16 20 21 16 13 14 15 22 24 22 22 24 24 22 20 21
17 16 16 18 16 15 15 15 17 15 14 13 12 12 12 13 15 15 15 15 14 14 13 14 16 15 15 14 16 16 17 15 15 15 19 19 21 20 22 22 24 20 21
19 18 20 20 19 18 17 17 18 19 18 16 15 15 15 15 16 16 15 17 17 18 15 17 17 16 15 14 15 15 15 15 15 17 15 16 22 24 23 20 19 22 23
22 22 20 21 23 21 19 19 20 19 19 17 17 17 16 18 19 19 16 15 16 16 15 15 16 16 14 14 12 15 18 18 18 15 16 15 16 23 24 22 16 21 24
26 26 25 25 24 23 23 25 24 21 21 22 23 21 20 20 23 21 19 17 22 20 22 19 17 18 21 20 17 16 18 19 21 13 14 19 15 16 15 20 17 23 24
23 27 29 27 29 30 26 28 31 31 28 26 25 23 22 21 24 24 23 24 25 25 26 25 26 25 23 22 22 23 19 21 22 21 20 16 14 15 14 20 21 26 22
22 24 29 31 33 32 32 31 32 33 33 35 34 30 29 29 28 22 25 25 27 27 28 29 31 30 28 26 25 22 22 24 22 20 17 21 18 18 16 20 22 21 21
24 26 27 29 31 34 34 33 33 35 35 38 38 39 39 37 36 35 32 30 30 32 25 28 29 29 28 26 25 27 27 23 26 24 18 20 21 19 17 20 22 17 22
21 25 27 29 30 31 33 34 36 36 31 33 35 38 40 41 42 42 41 41 42 43 33 30 30 30 29 31 31 30 31 31 27 28 22 20 19 19 21 18 21 21 22

GFSMA_850_spd_084.txt.gz
Wind_Speed
13 12 13 6 9 6 7 6 12 11 10 8 10 6 5 11 5 7 12 12 10 9 8 7 6 6 6 6 6 7 8 9 10 10 10 10 10 11 10 9 8 7 7
11 11 5 8 11 9 6 10 14 12 12 8 7 8 6 4 7 6 9 10 13 15 11 9 8 7 7 7 7 8 10 10 11 11 11 11 12 12 11 11 10 9 7
14 11 8 10 9 4 7 3 11 3 6 3 10 7 8 5 2 4 5 8 10 11 15 11 10 9 9 9 10 10 11 11 12 11 12 12 13 13 13 12 11 10 8
12 5 3 11 6 5 6 9 9 5 4 9 12 7 5 4 6 9 1 4 6 6 10 12 13 11 10 10 10 11 11 12 12 12 12 13 13 13 13 12 13 12 11
11 11 4 9 6 5 7 9 5 5 6 5 9 3 3 3 5 4 8 4 6 2 7 6 12 13 9 10 11 12 12 12 12 12 13 14 14 15 16 16 14 13 12
8 7 6 8 8 12 9 7 8 9 5 8 6 3 3 3 1 3 2 7 8 6 1 6 8 9 8 10 11 11 12 13 14 15 17 17 17 18 18 18 17 16 13
5 10 8 8 8 8 9 4 7 4 4 2 4 4 2 6 8 3 2 10 7 8 5 4 2 3 3 8 11 13 14 15 17 17 18 18 18 19 21 21 19 16 14
7 8 10 7 3 8 5 8 9 5 3 4 6 5 2 6 3 6 3 5 1 1 1 1 4 2 2 4 10 13 16 18 17 18 19 17 18 21 22 20 18 15 11
5 6 9 8 8 8 6 7 4 1 7 5 11 6 5 4 3 4 8 5 8 4 3 2 2 6 9 4 8 15 16 17 18 20 19 18 20 21 19 18 17 15 12
6 5 9 5 7 5 10 7 1 8 2 4 2 7 8 5 8 5 5 3 7 5 2 5 5 6 9 10 4 13 15 16 20 22 21 21 21 20 19 18 15 14 12
9 9 6 7 8 8 12 6 8 6 4 6 6 1 5 2 2 7 10 6 5 4 5 4 3 4 8 5 9 14 19 16 20 22 24 23 21 21 21 17 15 14 13
6 8 9 8 8 10 13 9 10 11 8 3 3 3 3 7 7 10 8 0 9 5 1 1 2 1 5 6 11 16 21 19 22 22 23 25 23 23 21 17 16 15 13
13 12 4 6 8 11 8 8 8 10 12 8 8 6 4 2 5 4 3 12 6 3 5 1 2 3 2 8 12 18 18 19 21 21 21 26 27 24 21 18 17 16 13
6 12 7 5 9 8 11 12 7 6 7 9 13 12 9 4 2 4 7 8 6 9 8 8 6 4 8 8 12 15 20 21 19 20 21 25 27 25 21 19 17 16 12
4 7 6 6 6 10 8 8 7 7 6 8 8 10 12 8 4 6 8 6 8 10 14 7 2 7 7 10 17 19 20 21 16 17 19 23 24 25 25 20 18 18 15
6 6 10 12 5 6 8 9 7 6 8 9 5 7 10 16 10 4 9 8 8 10 12 10 5 6 11 17 20 20 21 19 14 16 19 21 21 24 24 22 21 19 20
8 8 10 14 9 9 11 9 9 9 11 9 13 11 12 14 17 8 8 13 13 12 15 16 16 16 16 20 19 22 24 19 16 16 18 21 19 23 22 22 22 20 21
20 21 10 12 15 14 13 13 9 9 11 7 6 11 11 11 12 20 14 12 8 14 16 21 23 24 22 16 18 19 20 16 16 17 16 22 19 22 21 22 20 19 23
13 17 18 19 21 19 15 16 13 10 14 14 12 13 10 11 16 15 15 17 16 14 19 19 20 16 19 17 13 15 19 16 16 16 18 18 22 21 23 22 18 17 23
17 15 16 18 20 17 16 15 15 16 15 17 16 15 15 16 16 17 17 20 21 21 21 20 21 21 18 16 18 18 15 14 16 18 17 18 17 21 20 21 20 16 21
21 20 19 18 22 21 18 19 19 19 19 17 19 18 18 18 16 20 21 18 17 17 18 17 20 21 19 15 13 17 20 23 21 22 18 19 17 20 17 20 18 17 21
21 22 22 22 21 23 21 20 22 20 22 21 21 19 22 22 19 21 23 21 20 24 23 24 25 25 23 21 22 21 21 24 30 21 22 25 15 10 18 19 20 23 20
26 25 24 25 26 26 25 24 25 27 28 25 24 25 25 23 20 23 24 23 22 23 26 26 29 28 28 24 24 25 25 27 26 24 17 19 17 17 17 21 21 21 23
19 20 28 29 28 32 30 28 28 30 31 34 34 31 28 29 24 26 23 27 28 28 27 28 31 32 28 25 24 23 24 26 28 28 20 28 25 21 19 18 20 22 20
21 23 23 25 29 33 32 30 29 30 34 37 38 38 37 38 36 33 33 35 34 32 31 32 29 28 29 28 25 26 28 28 34 36 30 23 22 21 21 21 23 21 22
18 23 23 26 28 31 32 31 30 33 35 36 37 39 40 41 41 38 41 40 43 44 41 41 36 35 34 32 31 29 31 33 32 34 24 19 21 23 24 22 23 22 21

GFSMA_850_spd_087.txt.gz
Wind_Speed
14 10 12 10 10 10 9 12 12 12 12 11 10 8 12 8 7 10 14 16 14 10 8 8 7 8 8 8 8 8 9 11 11 12 12 11 11 11 11 11 9 7 7
13 12 9 13 13 9 9 11 13 10 10 10 9 10 5 3 7 7 10 12 15 16 12 11 10 9 9 9 10 11 12 12 12 12 12 12 12 12 12 12 11 8 7
13 12 13 13 7 7 6 9 11 12 8 12 11 3 6 4 4 5 4 7 11 13 14 14 12 12 11 11 12 12 13 13 13 13 13 13 13 12 12 12 13 11 9
10 14 15 12 7 7 12 10 8 8 9 10 9 7 3 9 6 5 3 7 7 9 12 14 15 12 11 12 13 13 13 13 13 13 14 14 15 15 14 14 13 14 12
6 11 12 8 6 9 9 12 6 6 4 3 6 5 2 0 4 5 5 6 6 8 12 10 13 12 12 13 13 14 14 14 15 15 15 15 15 15 15 15 15 15 15
11 8 11 7 7 11 6 9 10 7 9 4 3 3 7 3 2 2 2 6 7 9 12 5 8 8 10 12 14 15 16 17 17 17 17 15 14 16 17 16 15 14 14
9 10 9 8 8 8 8 8 9 5 5 4 3 1 4 5 5 4 5 5 4 5 10 7 6 3 7 9 11 16 18 18 19 19 18 15 17 18 18 15 14 13 12
6 11 10 11 7 11 10 4 3 5 7 7 1 2 2 4 4 5 3 4 3 4 3 7 6 8 7 11 10 13 18 18 21 20 18 18 19 18 17 16 14 14 13
9 9 11 8 6 9 10 10 6 4 6 7 9 6 5 4 7 5 7 6 8 4 2 3 8 10 10 9 9 12 18 16 20 21 21 20 20 20 18 17 14 13 12
6 6 10 9 10 10 11 7 5 4 4 3 3 5 7 6 3 4 8 2 7 5 5 3 5 4 9 8 12 11 18 18 19 19 24 25 22 23 20 17 15 13 11
8 6 7 10 11 8 13 9 4 5 5 4 3 4 4 4 4 6 7 6 6 5 5 3 2 4 7 9 12 12 19 18 18 18 21 25 26 25 20 17 15 14 12
11 9 8 9 8 11 12 11 6 8 8 4 1 2 4 7 8 8 6 4 7 5 4 3 1 1 4 7 11 13 18 19 19 16 19 23 27 27 22 18 17 15 12
9 10 10 9 6 11 11 12 9 10 11 9 6 5 2 1 5 7 8 10 2 2 6 5 3 2 3 6 9 14 19 21 20 15 17 19 24 25 24 19 18 17 12
11 10 7 9 9 12 12 10 8 10 11 13 12 10 8 4 0 2 6 6 9 5 2 5 7 4 5 9 15 16 23 20 18 14 15 17 20 23 23 21 18 19 16
7 5 11 7 10 9 8 8 9 7 7 7 11 14 14 10 5 4 3 4 7 9 8 1 6 1 4 10 13 20 20 21 12 14 15 17 18 21 21 21 22 19 20
12 8 13 8 9 9 7 8 8 9 9 7 6 10 15 14 12 7 6 5 4 7 9 7 11 8 11 15 19 24 18 19 14 12 15 18 19 17 21 21 20 19 22
11 11 7 12 10 11 4 4 9 11 10 10 9 10 9 14 16 15 10 12 11 10 11 15 16 17 20 21 23 22 15 17 14 16 20 15 19 16 19 19 19 18 21
18 17 12 10 16 12 10 13 11 10 12 8 6 11 14 10 16 18 17 14 13 12 13 17 19 21 22 22 17 14 14 14 18 16 17 19 18 20 16 20 20 18 19
21 23 21 19 18 15 16 16 15 12 15 13 11 9 8 10 11 12 15 20 21 19 18 18 21 21 21 16 18 21 18 16 13 15 17 19 17 16 17 18 19 19 18
19 18 18 19 21 20 18 18 18 14 14 15 16 17 16 13 12 11 12 13 17 23 23 23 22 23 22 20 22 15 13 13 18 23 24 23 18 18 18 13 15 16 18
18 17 17 18 18 18 17 16 17 18 18 16 16 19 19 17 14 15 16 16 16 16 16 19 21 19 18 19 19 23 23 24 26 24 22 18 15 13 6 10 15 16 20
20 20 20 19 19 22 20 18 14 14 17 18 18 18 19 20 19 18 20 21 20 20 20 20 22 24 24 24 25 26 25 26 29 24 24 18 11 10 13 14 17 13 18
23 21 20 22 23 22 21 23 22 24 24 25 25 25 23 22 22 23 23 23 24 25 23 24 26 28 29 27 27 26 24 24 26 25 24 27 18 15 10 15 10 11 17
17 21 24 27 25 24 24 25 22 24 29 27 26 28 28 28 27 25 24 26 28 28 27 26 28 29 27 23 21 22 25 28 30 29 26 34 29 23 15 17 18 16 19
16 17 20 20 21 24 25 26 25 25 27 28 32 34 34 34 34 33 34 35 35 35 35 36 37 36 36 31 25 27 29 31 35 37 34 31 19 17 15 18 16 18 19
12 17 18 22 21 23 24 24 25 24 26 28 32 33 33 35 37 36 38 39 42 40 39 39 40 41 40 41 38 37 36 38 37 40 33 21 20 22 23 19 18 15 17

GFSMA_850_spd_090.txt.gz
Wind_Speed
16 12 10 9 12 12 12 11 10 11 11 8 6 11 7 8 8 12 13 15 10 9 8 8 9 9 9 10 10 10 10 10 10 10 10 10 11 11 11 11 10 9 9
11 12 7 7 8 10 12 9 10 11 9 7 8 7 4 4 5 6 9 11 14 11 11 12 11 11 11 11 11 12 11 11 11 10 11 11 12 13 14 13 12 11 10
7 9 13 11 9 10 12 12 9 8 7 6 5 3 4 3 1 1 4 7 11 13 14 13 12 12 12 13 13 13 12 11 11 12 13 14 15 16 16 16 15 14 13
8 12 11 6 6 7 12 11 10 9 9 9 5 5 1 3 4 5 6 7 10 12 13 13 12 12 13 14 13 13 13 13 14 15 15 15 15 16 17 17 16 15 14
13 13 10 9 8 8 9 9 6 8 3 4 3 5 4 4 1 6 8 10 10 11 9 10 11 12 13 13 13 13 15 15 16 16 16 15 15 17 18 17 15 15 13
13 10 13 8 10 9 10 6 6 3 3 2 4 6 8 7 8 2 5 9 8 10 9 7 8 9 11 11 12 14 16 17 18 17 17 15 17 18 18 15 14 13 11
10 9 10 7 8 7 9 7 6 3 5 2 1 3 4 4 6 8 5 2 6 7 8 9 5 6 8 10 13 15 16 18 20 20 19 19 19 19 17 15 13 12 11
9 10 9 10 8 9 9 9 3 3 5 3 1 2 1 3 4 5 3 5 2 3 5 8 9 7 6 10 13 17 19 17 19 22 24 24 22 21 18 15 13 13 12
7 11 13 10 7 10 10 6 4 6 4 2 4 1 1 1 2 4 3 3 5 3 2 3 4 6 7 11 12 14 19 19 19 20 23 27 24 22 19 16 14 14 12
5 8 13 13 11 11 10 8 5 5 1 2 5 5 4 5 4 1 5 3 6 7 5 2 4 2 4 9 13 13 17 20 20 18 21 25 25 24 19 18 17 15 12
9 9 9 13 9 12 13 9 7 4 3 1 3 5 6 9 6 3 2 5 7 6 3 0 1 2 2 8 11 12 18 22 21 16 19 21 23 25 21 19 19 17 13
12 13 8 11 10 10 15 13 11 8 4 3 0 4 7 7 8 9 10 2 6 5 5 3 3 4 5 6 8 13 20 25 21 15 16 19 19 21 24 22 20 18 14
12 13 11 8 8 13 12 14 12 11 8 7 5 2 1 4 7 7 6 8 5 2 7 9 5 4 5 5 10 15 21 21 20 13 14 17 17 19 21 23 21 20 17
11 10 8 6 8 11 12 14 12 12 12 11 11 8 6 5 3 6 7 7 6 3 3 4 4 9 5 5 10 16 20 21 17 14 13 17 17 17 19 20 20 21 20
7 14 12 14 10 10 14 11 11 10 12 12 13 14 12 12 7 3 5 5 6 6 5 4 9 4 2 8 14 19 23 16 14 15 16 16 17 15 17 20 20 19 21
11 9 8 11 9 13 11 11 9 11 11 9 10 13 14 16 13 9 5 5 6 6 5 8 9 8 13 17 19 21 19 10 11 13 15 14 16 14 16 18 20 19 18
15 15 14 11 11 9 9 9 10 12 10 9 8 9 11 11 13 14 13 11 9 9 10 13 14 16 18 20 20 16 9 11 12 13 16 18 21 19 13 16 18 19 17
17 15 13 10 13 13 11 10 9 10 13 10 6 7 10 11 11 14 17 17 13 14 14 17 18 20 21 21 16 18 15 16 15 13 16 21 24 22 17 17 16 17 17
23 21 20 17 13 15 14 14 12 12 13 13 12 10 7 8 9 11 15 18 19 19 19 21 22 24 25 25 19 18 15 14 13 17 22 26 24 19 17 17 13 17 17
23 21 20 20 20 18 17 17 18 17 15 15 14 14 13 13 11 10 10 9 11 15 19 22 24 27 27 24 22 18 19 22 25 25 24 22 20 18 15 10 11 17 18
22 21 19 18 17 18 18 17 18 18 18 17 16 15 15 17 17 15 13 15 15 15 14 16 17 18 18 17 18 21 25 26 26 26 24 19 16 11 9 12 15 17 15
22 22 23 21 19 19 19 18 18 18 17 15 16 14 14 15 18 18 20 17 17 20 22 23 20 21 21 20 20 22 24 25 27 24 27 25 21 22 16 14 14 14 11
21 21 23 23 22 22 20 20 21 22 22 22 23 24 24 22 20 19 19 20 21 22 21 22 25 25 25 22 22 22 21 23 26 26 27 32 30 29 20 16 12 10 13
23 23 23 24 25 23 20 21 22 23 25 27 29 28 27 26 25 24 24 25 25 24 25 26 28 30 30 29 28 28 27 28 31 32 29 35 32 26 19 13 14 12 12
23 20 17 18 17 17 19 20 23 26 26 26 26 28 29 31 32 30 30 32 33 34 31 31 32 34 33 32 30 30 30 32 37 38 39 39 29 24 19 16 15 16 16
3 7 9 10 13 18 21 22 22 24 25 27 26 28 28 31 31 31 33 34 36 36 33 31 28 27 26 25 24 25 26 31 34 38 32 27 28 26 31 25 24 24 22

GFSMA_850_spd_093.txt.gz
Wind_Speed
12 9 7 12 11 9 10 10 11 9 6 9 6 8 10 9 10 12 14 13 8 7 7 7 8 9 9 10 10 11 11 12 12 13 14 14 14 14 13 12 10 9 9
5 7 7 9 9 10 9 8 8 7 6 7 9 7 4 7 8 8 11 12 11 10 10 10 10 11 11 11 12 12 12 13 14 15 15 15 16 15 14 14 14 13 11
5 4 5 7 9 8 9 8 6 4 2 5 6 7 8 5 4 6 8 9 12 13 12 11 12 12 12 12 12 13 13 14 15 16 17 17 17 16 16 16 15 14 12
5 6 5 6 5 7 7 6 3 3 4 2 4 5 6 7 6 6 6 8 9 11 12 12 12 12 12 12 13 14 15 16 17 17 18 17 17 17 17 17 16 15 13
4 5 6 5 5 8 7 5 3 5 3 0 1 5 7 7 6 6 7 7 8 8 10 10 11 11 12 12 13 15 17 19 20 20 19 18 18 19 17 15 14 13 11
6 8 6 3 3 6 5 3 4 1 3 3 3 6 8 9 9 3 4 6 8 8 8 7 8 9 10 13 16 17 16 19 20 22 23 21 20 19 17 15 14 12 12
7 6 8 4 4 4 4 2 2 3 1 1 3 4 4 5 5 4 2 2 5 6 8 6 5 8 9 12 16 18 18 18 20 22 25 26 25 21 18 17 16 14 12
7 7 7 6 4 3 4 4 1 1 2 3 3 2 2 3 5 4 0 2 3 4 6 7 8 8 10 12 13 16 19 21 20 21 24 26 28 25 21 19 17 15 12
4 7 7 7 6 6 5 6 1 2 3 4 5 4 3 3 4 3 2 1 2 1 3 3 4 7 9 13 13 15 19 23 23 20 22 25 27 27 22 21 20 17 13
5 7 7 9 6 6 6 7 4 1 3 4 5 5 4 5 4 3 2 2 1 1 2 2 3 3 6 11 12 14 21 25 22 19 19 22 23 25 25 22 22 19 15
8 5 6 10 8 8 9 8 6 3 1 4 4 5 7 7 7 6 4 2 5 3 2 1 2 3 4 6 10 14 23 23 24 16 16 20 20 21 23 24 23 22 17
11 11 9 7 11 9 10 11 8 7 4 1 2 4 6 8 9 9 10 6 2 3 5 5 4 6 4 6 10 15 21 22 22 16 16 19 19 20 20 22 23 24 20
8 10 8 7 9 9 9 14 13 10 9 7 4 3 3 5 7 8 6 7 6 3 4 8 7 6 6 5 10 17 20 21 18 15 15 17 18 17 19 21 21 21 23
9 9 9 6 8 10 13 13 14 11 12 11 10 8 6 5 4 5 7 8 4 5 6 3 7 4 3 5 12 18 20 20 13 16 16 17 17 17 16 19 20 19 20
11 11 12 10 9 9 13 12 12 12 12 13 14 13 12 10 7 6 5 6 6 4 3 4 5 4 7 11 16 19 22 21 11 13 15 17 19 22 20 15 18 19 18
11 8 8 10 11 11 11 14 12 11 11 11 11 12 14 14 13 10 7 7 7 7 5 8 7 9 12 14 17 20 21 17 11 15 16 19 21 26 20 15 17 17 18
14 12 11 12 9 10 11 12 10 11 11 11 10 10 10 12 10 10 11 11 11 11 11 13 14 14 16 18 19 19 17 15 14 14 14 19 25 25 20 14 16 15 19
17 15 13 12 10 12 9 10 10 9 10 12 11 10 9 9 10 9 10 11 13 15 16 17 19 19 20 22 21 24 18 11 12 14 19 22 24 23 22 18 15 12 19
21 18 16 15 12 11 13 13 12 12 11 11 12 13 10 8 8 8 9 10 10 11 13 17 21 23 27 25 24 21 18 14 15 19 21 22 21 20 17 17 12 11 17
23 20 20 19 19 19 17 16 16 16 14 15 14 14 13 13 12 11 11 10 9 11 13 15 16 16 16 14 15 17 16 17 19 20 19 19 16 15 13 15 13 15 17
23 23 23 22 20 18 18 19 18 17 17 16 16 15 14 13 13 14 15 15 16 17 16 17 17 18 17 17 17 19 21 20 20 21 20 18 17 16 18 19 19 17 16
21 22 22 21 22 21 17 17 16 16 17 18 16 15 15 15 16 16 15 16 19 20 20 22 21 21 21 20 20 22 23 26 29 25 29 25 23 21 22 18 18 17 16
17 20 21 22 23 23 21 21 21 21 21 20 18 19 19 19 19 20 20 20 19 19 21 22 24 25 26 24 25 26 26 27 29 28 28 33 27 26 22 13 14 13 14
13 16 15 21 23 22 22 23 22 21 24 23 22 22 25 25 24 24 24 24 24 24 24 25 27 28 29 28 29 29 29 31 32 31 28 33 30 25 18 12 10 9 13
18 21 19 16 16 20 21 22 21 20 21 24 25 24 24 26 27 26 27 29 31 31 29 30 33 33 32 31 28 28 27 27 30 30 30 31 26 26 23 17 13 12 11
12 10 5 7 11 12 11 10 15 16 17 21 23 24 25 24 25 28 28 29 32 32 32 33 33 33 31 29 25 26 26 28 30 33 30 28 28 27 30 27 19 15 17

GFSMA_850_spd_096.txt.gz
Wind_Speed
12 11 6 7 7 5 6 6 6 6 8 5 6 9 8 9 11 13 13 11 9 9 10 10 10 10 11 12 13 13 13 14 14 14 14 15 15 14 14 14 13 12 9
7 8 8 7 7 7 6 6 5 6 6 9 10 9 6 8 9 10 11 12 12 12 12 12 12 13 13 13 14 14 15 15 16 16 16 16 16 15 14 14 13 13 12
6 3 5 5 7 5 6 6 3 4 7 8 9 10 11 10 8 9 9 10 13 13 13 13 13 13 13 14 15 16 18 19 19 19 18 18 17 17 17 16 14 13 10
4 9 7 5 4 5 4 3 4 5 5 6 8 9 10 10 10 9 9 9 9 11 11 12 12 12 13 14 15 17 18 19 20 21 21 19 19 18 17 15 14 12 9
5 4 5 4 5 6 5 5 5 5 4 6 8 9 10 10 8 8 8 8 8 8 9 10 10 10 12 15 16 17 17 18 19 21 24 24 23 20 18 15 15 13 7
4 5 5 3 5 5 5 4 3 3 5 5 6 7 8 8 7 5 6 7 8 8 7 8 8 9 12 15 17 18 19 18 18 21 23 26 27 22 20 19 15 11 13
3 2 3 4 4 4 2 3 3 4 4 5 6 3 6 7 6 4 4 5 5 6 7 7 8 9 11 12 14 17 18 20 19 20 23 25 28 26 23 21 19 14 12
4 2 4 2 2 2 3 2 2 4 6 8 7 7 6 5 5 4 2 2 4 6 8 9 9 9 10 11 13 15 20 20 20 19 21 24 25 26 25 23 20 15 11
4 3 5 4 3 2 2 2 3 3 6 6 6 6 4 4 7 6 3 2 1 6 6 6 5 6 8 10 12 16 20 21 20 17 19 22 23 23 25 25 23 17 14
4 4 4 5 4 2 3 3 1 2 6 6 6 6 6 8 6 4 4 4 2 4 2 1 2 4 6 8 12 16 20 21 20 17 18 20 21 22 22 23 25 21 17
5 4 3 5 5 5 5 4 3 1 2 5 6 5 6 8 9 8 6 5 3 1 2 3 4 5 6 7 11 17 19 21 19 16 16 19 20 20 20 21 21 23 20
7 6 5 4 8 6 7 7 5 5 1 0 2 5 6 8 9 9 9 7 5 4 6 5 4 6 6 6 10 15 19 21 18 17 17 19 19 19 18 19 20 19 21
5 5 6 4 5 7 8 9 10 7 6 4 3 3 3 5 5 7 8 7 6 8 6 6 5 6 5 4 10 16 19 22 18 16 17 17 19 21 19 16 18 18 17
4 4 4 3 5 6 7 6 8 10 10 10 8 7 6 5 5 5 6 7 6 4 6 6 7 4 1 8 14 18 20 22 19 15 16 16 17 22 20 14 16 16 17
8 5 6 6 6 5 7 10 10 10 11 10 10 10 10 9 8 7 6 7 6 6 6 3 4 6 9 11 16 19 22 21 16 14 16 17 18 23 19 12 13 14 15
8 9 7 9 9 10 9 9 11 10 10 9 9 10 10 11 11 10 10 9 8 9 8 11 11 13 14 15 17 18 18 19 16 13 14 17 20 23 21 14 11 13 13
9 9 7 7 7 7 7 9 10 11 10 8 8 9 9 10 11 10 10 11 11 11 13 16 18 18 19 20 20 20 22 19 15 13 15 17 21 22 20 18 12 12 12
15 13 12 11 9 7 8 6 7 9 9 9 8 9 7 9 9 10 10 10 11 12 14 17 19 20 22 24 25 20 17 16 17 16 18 20 20 18 16 16 14 10 12
15 16 16 14 10 8 7 9 10 9 10 10 10 10 9 10 7 7 9 9 9 10 11 15 17 18 19 18 16 14 15 15 15 17 16 16 14 13 12 15 16 14 14
14 13 15 14 14 13 13 13 14 14 13 14 13 13 11 10 11 10 11 11 12 12 14 17 17 18 17 16 18 20 19 18 17 15 14 15 15 12 14 17 19 18 16
16 15 16 17 16 16 15 14 15 16 16 15 16 14 13 12 12 12 12 13 14 16 18 19 18 21 21 19 20 21 23 24 23 23 22 21 18 17 18 19 18 19 14
16 17 17 17 17 18 17 15 15 15 15 16 16 15 15 15 14 14 15 15 15 17 18 19 21 22 21 22 22 25 26 28 32 26 30 30 26 24 21 19 15 16 11
10 12 16 17 15 18 19 19 19 17 17 17 18 18 17 17 18 19 19 18 19 19 20 21 23 23 26 26 27 28 29 30 32 31 32 33 28 25 21 15 13 13 11
12 13 11 12 13 13 15 19 19 18 18 19 19 20 21 21 23 24 24 24 24 24 23 25 26 27 28 28 30 31 33 33 32 29 25 33 28 26 24 20 16 12 10
20 17 15 14 13 13 15 20 19 18 16 19 19 19 21 23 25 24 25 27 27 26 26 26 28 30 30 29 28 29 30 30 32 30 29 31 30 31 29 27 21 15 15
9 12 12 12 14 14 12 14 13 13 14 10 14 16 18 21 22 23 21 23 26 28 28 29 29 29 29 29 27 27 27 28 28 32 29 27 29 29 32 31 27 26 24

GFSMA_850_spd_099.txt.gz
Wind_Speed
13 9 7 7 7 6 7 8 9 9 10 8 8 7 9 10 12 13 13 11 11 12 13 13 14 13 13 13 13 15 16 17 17 17 16 15 15 13 12 11 11 11 11
7 8 7 5 6 5 6 6 9 9 9 11 11 8 8 9 11 11 12 13 14 14 14 14 14 14 13 14 14 16 17 18 19 19 19 18 17 16 13 12 11 10 10
8 5 6 6 7 5 6 6 7 9 10 11 11 11 12 11 10 10 10 11 12 13 14 13 13 13 12 13 15 16 17 18 18 20 21 21 19 17 15 13 12 10 7
9 10 8 6 5 6 5 6 7 8 8 9 10 10 10 9 9 9 9 10 11 11 12 12 12 11 13 14 15 16 17 17 17 19 21 24 22 19 17 14 11 10 4
7 5 6 5 6 7 6 6 7 6 7 8 9 10 9 8 7 8 8 8 9 10 10 10 10 12 13 14 15 16 17 18 17 19 21 24 24 21 19 15 11 10 7
7 8 6 6 7 7 5 6 4 4 4 4 6 7 9 8 7 6 7 8 7 8 7 7 8 8 10 12 13 16 17 17 18 18 20 22 25 24 22 17 12 8 7
5 3 5 6 7 6 3 4 4 4 3 5 5 4 7 7 6 4 4 5 5 6 6 6 7 8 9 11 13 15 17 16 16 17 19 21 23 24 25 20 15 11 8
4 3 5 4 4 3 4 4 4 5 5 6 5 6 4 4 4 3 3 3 4 6 7 7 6 7 8 10 14 15 17 19 16 16 19 20 21 23 23 23 17 14 11
5 4 5 3 3 3 3 3 4 5 5 7 7 6 3 4 4 5 3 2 3 5 3 2 3 5 6 9 13 16 18 18 16 16 18 20 20 20 21 21 20 17 14
6 5 6 6 5 3 4 3 2 4 7 7 6 8 8 9 3 3 5 4 4 3 1 2 3 5 6 8 11 15 18 19 18 15 17 19 19 18 18 19 18 19 17
5 6 7 7 6 4 4 4 2 3 4 7 8 6 7 9 9 7 4 5 3 1 2 4 3 6 6 6 9 14 17 20 18 17 18 17 18 19 17 16 17 16 17
4 5 3 4 7 6 6 6 4 4 1 2 4 6 6 6 8 7 5 6 4 4 4 4 5 7 7 6 9 14 17 20 20 16 16 16 16 20 18 13 15 15 14
4 5 5 5 3 7 6 8 8 6 5 3 2 1 3 4 4 6 7 7 6 6 4 5 5 5 5 6 11 15 18 20 19 15 16 17 17 19 19 12 12 12 13
6 4 4 5 4 5 5 6 9 10 8 7 6 6 5 4 3 4 5 6 5 4 5 5 6 5 7 10 14 17 20 21 19 15 15 17 18 20 20 13 11 11 11
8 5 4 4 4 4 4 6 9 9 10 9 9 9 9 8 8 7 6 6 5 7 8 6 7 10 13 15 18 19 19 20 17 15 14 16 19 21 20 16 10 10 10
5 8 7 5 9 7 8 7 7 9 9 10 10 10 10 10 11 11 11 11 10 8 10 10 11 15 16 16 17 21 21 21 17 16 16 18 20 21 18 15 13 10 10
7 4 4 5 4 5 8 7 8 10 11 10 9 8 8 8 10 11 13 13 12 13 11 13 16 18 18 20 21 22 19 17 15 16 17 19 20 18 16 13 13 11 9
9 8 8 8 6 6 6 6 6 8 9 9 9 9 8 8 7 9 10 12 12 13 13 14 14 15 18 16 16 15 15 15 17 16 17 17 15 15 15 14 15 16 15
12 11 11 11 7 8 7 6 7 8 8 8 9 9 10 10 10 8 8 10 9 11 13 14 14 15 18 15 16 16 17 17 16 17 16 16 15 17 15 17 18 20 18
14 12 10 11 10 11 11 10 10 10 12 12 11 12 11 12 11 12 12 11 12 12 14 14 15 16 15 16 16 15 16 15 19 21 18 18 19 18 17 18 19 20 18
12 12 11 11 12 12 11 11 11 11 12 14 14 14 14 12 13 13 14 13 14 15 16 15 16 17 16 15 15 16 17 20 20 20 23 23 21 22 18 18 19 15 16
12 12 11 12 12 15 15 15 14 13 12 12 12 12 13 13 14 15 15 15 16 17 17 16 16 17 19 17 17 18 20 21 24 19 27 30 22 19 17 14 16 16 16
4 3 6 10 12 14 15 15 14 13 14 15 14 14 14 16 17 17 18 19 20 21 21 21 23 23 24 23 26 29 24 26 26 28 28 24 21 18 18 16 17 17 14
7 3 3 4 5 5 8 10 12 13 15 17 17 17 17 19 20 20 21 22 23 23 24 24 26 28 28 28 28 27 30 31 29 23 20 22 19 21 20 22 20 16 12
17 15 14 9 8 7 7 8 10 13 15 19 17 18 17 17 18 21 22 22 22 23 23 25 26 27 29 28 29 30 26 20 25 23 19 22 19 22 24 23 20 18 22
10 12 12 9 7 5 6 6 8 4 5 8 9 11 13 14 17 18 19 18 19 19 21 22 22 20 20 22 23 23 23 21 22 22 16 16 20 21 21 17 17 21 21

GFSMA_850_spd_102.txt.gz
Wind_Speed
9 7 7 6 7 7 7 7 8 8 8 7 7 7 7 8 9 9 8 13 13 14 15 15 15 14 14 14 14 15 16 17 18 18 18 16 15 13 12 11 12 12 12
7 6 5 5 6 6 5 6 8 8 9 8 8 7 7 7 8 9 8 11 14 14 15 15 14 14 13 13 14 15 16 17 17 19 20 20 18 15 12 11 10 10 10
7 7 4 5 4 5 7 6 7 8 8 8 8 7 6 7 6 7 8 7 9 14 13 13 13 12 12 13 14 15 17 16 18 20 21 22 20 17 14 10 9 8 7
8 7 6 5 4 5 6 6 7 6 6 6 5 5 5 6 6 6 6 7 6 6 10 11 12 12 13 14 16 16 17 17 16 19 20 22 21 19 16 12 9 9 5
7 5 5 3 7 5 5 6 5 5 3 4 4 5 4 5 5 4 5 6 5 6 6 7 10 11 12 14 15 16 16 15 16 17 20 21 22 23 19 13 9 9 7
7 8 3 5 7 5 5 4 5 3 3 1 3 4 5 5 5 4 4 5 4 5 4 6 5 6 11 13 14 15 17 15 15 17 19 20 21 23 23 17 13 10 9
6 6 5 5 6 5 5 3 3 4 3 2 2 3 4 5 5 5 4 4 2 3 3 3 6 5 7 12 14 16 17 17 16 17 19 20 20 21 22 20 15 11 10
6 4 7 4 7 3 4 4 5 4 4 4 3 3 4 5 4 3 3 3 3 3 2 3 4 6 7 8 11 16 18 18 16 16 19 20 20 19 20 20 18 14 11
6 6 8 7 5 6 3 4 3 5 4 5 6 2 3 3 3 2 2 1 3 2 2 2 4 5 6 7 10 13 18 18 18 17 19 18 19 19 18 18 17 16 14
7 6 8 8 7 5 5 3 2 5 7 4 5 6 8 5 1 5 2 0 2 1 1 2 3 5 6 6 10 14 17 19 17 16 16 18 18 21 18 16 16 14 15
7 7 9 10 9 4 6 6 3 6 4 5 4 3 5 5 7 1 3 1 1 0 2 3 2 4 6 5 7 12 17 18 18 15 15 16 17 21 21 16 15 14 12
7 7 7 9 9 6 6 6 6 5 5 4 3 4 3 3 4 3 1 1 0 2 2 3 3 3 5 6 10 13 16 18 18 15 14 15 17 20 21 16 14 13 12
4 5 8 7 5 9 8 8 7 6 4 4 3 1 2 2 3 3 2 2 2 3 2 3 4 4 4 7 9 15 17 19 19 16 15 16 17 19 20 17 14 14 12
5 8 6 6 6 8 7 8 6 6 6 4 5 5 2 2 3 3 3 5 7 4 5 4 6 6 8 11 13 17 15 20 19 16 15 15 17 19 20 18 14 12 13
9 7 7 7 6 7 7 8 6 7 9 7 6 7 5 6 5 5 6 6 7 12 10 5 7 10 11 13 17 17 16 18 20 19 17 17 18 20 19 16 15 13 12
9 10 7 6 7 7 7 7 7 9 8 7 7 9 9 7 8 8 9 10 10 10 14 13 13 15 15 17 16 19 17 17 17 20 18 17 17 17 16 14 13 13 12
8 8 8 7 4 7 8 8 8 9 8 7 7 7 7 9 8 9 11 11 11 12 14 16 15 15 16 17 16 15 13 13 14 19 18 17 15 12 14 15 15 15 15
10 9 8 7 5 6 6 7 6 7 8 7 7 7 8 7 9 8 8 10 10 11 12 15 14 14 15 15 15 15 13 12 15 14 21 18 16 14 17 16 17 19 20
11 9 9 9 9 7 6 6 7 7 7 7 7 8 8 8 9 9 9 8 9 9 11 13 14 12 14 14 15 15 13 14 14 17 18 16 20 18 17 16 18 20 19
15 12 12 10 10 11 10 9 8 7 7 8 8 8 9 9 10 10 10 12 10 12 13 13 14 15 15 14 13 15 16 16 17 18 17 16 20 21 21 20 17 15 16
16 15 12 10 10 9 9 12 11 10 8 8 9 9 9 12 12 12 13 13 12 11 13 15 15 15 14 13 16 16 18 19 20 19 19 18 20 17 15 16 14 19 19
13 15 13 12 11 11 16 14 14 11 9 8 8 7 8 11 9 14 15 15 15 16 16 15 16 17 17 16 17 18 19 21 23 18 20 24 19 17 15 13 17 21 17
11 12 10 11 14 15 14 15 15 13 12 9 9 8 7 13 14 15 16 16 17 18 20 21 22 20 21 19 21 21 21 22 24 24 20 22 19 18 18 17 22 20 14
8 6 7 7 8 8 8 11 12 15 15 14 14 14 13 16 17 16 16 17 18 15 15 18 20 23 24 26 26 27 27 27 23 20 19 23 21 21 18 19 20 22 13
12 14 14 13 9 8 6 5 6 8 11 12 11 11 8 8 5 9 15 16 15 13 12 20 22 23 24 23 23 24 18 20 21 19 18 22 18 19 19 20 13 17 22
19 18 17 15 12 8 9 6 4 3 6 5 5 5 5 7 8 8 9 10 14 14 14 13 13 13 14 13 14 16 12 15 18 18 15 23 22 19 21 16 14 21 18

GFSMA_850_spd_105.txt.gz
Wind_Speed
8 9 7 5 7 6 6 5 6 6 8 7 7 7 7 8 8 6 10 12 13 14 14 14 14 14 14 14 14 15 15 16 17 18 19 19 18 16 13 11 10 10 10
9 6 5 7 7 6 5 5 4 6 7 8 7 7 7 6 9 7 6 12 13 13 13 14 13 13 14 14 15 16 16 17 18 20 21 21 20 18 15 12 10 9 8
6 8 4 5 6 7 7 6 7 6 7 7 7 6 6 7 6 8 7 4 13 12 12 12 12 13 14 15 16 17 17 18 17 18 19 22 23 20 17 14 12 10 6
6 6 6 4 5 4 5 1 5 6 5 5 5 5 5 5 6 7 6 5 5 3 9 11 12 13 14 16 17 18 17 16 17 18 19 21 23 24 20 16 13 11 9
8 8 5 4 7 3 3 5 4 2 2 3 6 5 5 4 5 5 5 6 8 6 2 8 13 13 14 16 18 19 18 16 17 18 19 20 22 23 23 20 15 13 10
4 7 2 5 8 3 4 4 4 1 4 2 6 5 5 4 5 4 4 6 3 4 2 3 7 7 12 17 18 19 19 17 17 19 20 21 20 21 22 21 18 15 12
4 10 6 6 3 3 6 2 2 3 2 1 2 4 3 5 5 4 5 4 2 3 2 2 5 5 8 9 16 19 20 19 17 18 19 20 21 20 20 20 20 17 15
5 4 7 5 4 3 2 1 1 1 3 1 4 2 6 5 4 5 4 4 3 2 0 2 4 5 6 5 11 17 19 20 17 18 18 19 21 21 19 18 18 18 17
4 4 6 1 7 5 4 2 0 2 3 2 2 7 2 2 6 4 3 3 3 2 1 2 2 4 5 2 8 11 17 18 18 17 17 19 21 22 21 18 16 16 16
6 4 5 4 6 2 4 1 1 4 5 3 3 3 7 2 7 5 5 2 4 3 0 2 3 1 6 6 6 11 15 17 18 17 17 18 20 22 21 18 15 15 13
9 7 6 6 6 5 7 4 2 1 1 2 3 3 2 0 4 6 3 6 3 2 0 2 2 4 5 3 7 13 16 17 19 18 17 18 19 21 21 19 15 14 13
5 7 7 7 7 4 4 4 5 6 1 2 4 1 2 4 3 5 3 3 2 2 1 2 1 3 7 4 7 16 20 19 22 20 19 18 18 20 21 20 16 13 13
6 9 9 7 5 7 4 6 8 5 5 3 4 2 1 4 5 5 8 6 2 6 4 11 4 2 5 10 12 18 21 20 24 23 20 18 18 19 20 19 18 13 12
6 10 7 6 5 7 7 7 6 6 6 4 5 6 2 3 3 4 7 9 11 11 10 9 9 4 8 10 15 20 17 22 24 22 20 20 19 18 18 17 16 16 13
7 6 6 6 6 6 7 8 5 8 6 6 6 7 7 6 6 7 6 7 8 13 15 7 9 12 8 12 17 18 18 18 15 16 22 21 18 17 16 15 14 14 15
12 12 7 6 6 7 7 7 7 9 9 8 7 8 10 8 7 7 8 9 10 11 15 14 15 15 15 18 17 22 17 16 16 13 21 24 20 17 14 16 16 16 16
3 4 8 8 7 9 8 10 11 5 5 6 8 7 7 8 8 8 9 8 9 10 14 13 13 15 19 12 18 14 15 15 14 18 17 24 21 19 19 20 19 18 19
8 8 5 6 6 5 8 9 5 7 7 8 8 7 7 6 6 7 6 8 9 12 10 13 10 12 13 11 12 18 14 10 15 16 20 21 21 23 20 21 20 20 20
9 7 8 8 8 8 9 7 9 8 8 7 7 7 7 7 8 8 10 9 7 9 11 12 14 10 13 15 11 15 15 12 15 16 17 16 19 20 23 21 20 20 18
12 12 10 9 8 10 10 9 8 8 9 8 8 9 8 8 9 9 8 9 10 9 10 13 16 14 15 12 9 14 16 15 15 17 16 17 19 22 20 20 18 19 22
14 14 12 12 11 10 12 13 11 11 12 9 10 10 10 12 14 15 12 10 12 9 11 13 12 14 16 16 15 14 18 18 19 17 18 16 19 16 16 17 15 13 24
14 14 13 13 12 12 17 18 16 12 12 10 9 9 9 13 13 15 12 12 13 13 14 13 14 15 19 18 16 17 17 20 20 14 21 20 14 14 15 16 15 19 28
15 15 13 13 16 17 14 18 18 17 13 12 10 13 10 11 12 12 14 13 13 14 15 16 18 17 19 17 19 21 21 22 22 23 16 21 20 21 15 16 18 22 22
11 12 12 15 14 13 13 15 17 16 16 15 14 13 13 16 17 14 11 6 8 9 13 13 15 20 22 22 23 23 22 21 20 20 19 22 17 18 19 16 18 20 12
13 9 11 11 11 11 10 8 8 10 14 16 16 15 13 12 10 7 8 8 7 7 9 16 15 13 12 12 12 15 10 15 19 19 16 21 15 20 18 16 17 16 19
16 13 19 18 14 13 10 8 8 3 4 4 7 8 9 8 7 7 7 8 9 10 11 10 11 12 12 13 12 6 8 10 14 16 13 21 21 22 21 12 13 16 19

GFSMA_850_spd_108.txt.gz
Wind_Speed
8 4 13 12 8 11 3 9 5 18 13 11 8 5 7 9 3 11 11 13 14 14 14 14 15 15 16 17 17 17 18 19 20 21 22 22 21 18 15 12 10 9 10
7 5 2 6 8 11 6 10 9 7 10 9 8 8 5 8 7 7 14 13 14 13 13 14 15 16 16 17 17 17 17 18 19 20 21 23 24 21 17 14 12 10 8
13 6 4 8 9 11 15 11 11 10 6 6 11 9 7 5 13 4 6 10 14 13 13 14 15 16 17 18 19 18 17 17 19 19 20 22 24 24 20 16 14 12 10
11 11 3 5 7 3 0 12 6 6 6 5 5 7 6 0 9 10 6 2 3 9 11 14 15 17 19 20 20 19 18 17 18 20 21 20 22 24 22 19 16 14 13
10 4 7 6 6 6 7 9 6 6 4 6 6 7 7 3 5 6 9 6 5 4 2 6 8 13 17 19 21 21 19 17 18 20 20 21 20 21 22 22 18 16 13
7 5 7 7 4 10 8 7 7 6 8 3 6 6 7 3 10 1 9 8 9 9 2 4 5 8 10 12 18 20 20 18 18 19 20 21 22 19 20 21 21 18 16
5 7 8 5 6 5 6 11 3 5 4 1 2 5 5 8 10 7 5 12 2 6 3 4 4 3 5 6 14 17 18 19 18 18 19 20 22 21 17 18 19 20 18
7 2 3 6 5 4 4 6 3 7 1 5 6 2 7 10 9 8 6 10 5 5 4 5 1 8 3 3 8 14 18 18 18 17 18 19 21 22 18 15 16 17 19
5 4 6 5 3 2 4 7 1 5 5 5 4 7 7 2 9 7 7 9 8 10 6 4 6 2 8 2 3 13 16 18 19 18 18 19 20 22 21 16 13 14 15
6 3 6 1 5 3 5 3 2 2 4 4 2 8 7 2 6 7 10 13 9 9 4 6 9 6 5 1 1 10 16 20 20 22 20 19 19 20 22 18 12 12 12
11 5 5 6 5 1 4 6 4 4 1 5 6 3 3 2 9 11 11 2 9 6 4 4 6 2 5 4 6 13 18 23 23 24 25 20 19 19 21 19 15 10 10
7 9 7 7 7 6 3 6 8 7 3 2 1 3 13 13 13 20 5 10 13 4 14 8 6 11 13 14 1 11 18 20 24 24 24 22 17 17 18 18 16 13 10
9 8 10 9 7 8 4 6 5 6 6 6 3 2 4 8 7 16 13 18 13 10 12 8 13 28 21 9 7 13 16 19 22 18 21 25 20 16 16 16 15 15 14
7 11 7 5 6 6 7 6 6 1 3 4 8 8 3 2 7 13 15 12 12 9 15 16 6 3 14 9 13 21 20 22 12 14 18 24 23 19 15 15 15 14 15
13 13 6 7 3 6 5 5 4 8 8 6 5 6 10 12 11 7 8 11 14 15 17 16 10 10 10 18 20 25 22 9 10 15 17 22 23 20 17 17 17 15 15
4 10 11 6 6 6 5 5 7 8 8 9 5 9 11 15 13 8 10 9 10 14 14 14 11 14 16 15 16 23 15 16 17 14 17 21 20 23 21 20 20 19 18
3 3 8 10 9 8 7 10 10 6 6 4 11 8 8 12 10 13 11 10 11 14 16 15 17 12 11 13 15 21 20 18 16 16 18 20 18 22 21 20 21 22 20
6 6 5 9 8 8 9 8 7 7 8 7 8 8 9 5 8 6 5 7 9 10 13 13 13 15 10 17 16 17 18 15 18 15 19 21 20 19 21 19 19 18 17
9 6 7 8 8 7 7 10 6 9 5 6 6 8 8 8 11 7 10 12 9 11 11 11 16 16 15 17 13 11 8 16 14 16 17 22 15 19 19 19 19 17 17
14 12 12 9 6 6 7 9 9 7 11 6 6 8 10 8 12 10 9 12 9 14 10 10 15 13 18 17 12 14 10 12 18 18 15 16 18 17 15 18 21 14 17
13 11 12 10 11 10 14 14 12 11 9 8 10 8 9 13 12 13 15 16 14 13 12 14 15 14 16 23 23 21 18 20 20 17 17 18 17 17 20 21 17 16 18
14 12 12 10 13 14 15 14 14 13 11 9 11 11 10 11 13 11 9 9 10 13 14 15 16 16 18 21 21 19 21 23 28 22 20 7 19 19 22 22 15 20 21
20 15 14 17 18 15 14 14 16 16 17 16 12 12 11 13 13 12 11 12 9 9 12 15 17 18 19 17 23 25 22 18 17 18 19 21 15 15 13 15 16 14 13
16 16 18 15 13 13 14 16 16 15 17 17 15 12 15 16 14 14 13 8 9 8 9 12 15 18 18 14 11 11 11 14 14 13 17 19 20 19 20 17 14 12 8
17 17 15 14 10 8 8 10 7 7 13 17 17 15 16 15 14 11 9 9 8 8 8 10 7 7 10 10 10 10 9 11 15 16 15 21 21 23 18 13 11 14 17
16 18 14 14 9 11 11 9 9 11 5 5 3 7 9 9 7 7 8 6 6 6 6 3 7 11 6 8 6 5 9 11 12 17 16 20 18 20 19 8 19 12 16

GFSMA_850_spd_111.txt.gz
Wind_Speed
9 7 10 9 8 11 13 14 11 13 12 9 8 8 6 3 10 11 13 14 14 14 14 14 15 15 15 15 14 15 16 17 18 18 20 21 21 18 15 12 9 6 4
6 3 6 9 9 10 7 5 9 10 8 9 6 8 7 5 8 14 13 13 13 14 14 14 15 16 16 16 15 14 15 17 18 18 18 20 22 21 18 16 13 10 3
7 7 6 5 4 5 5 6 1 8 8 13 12 6 6 8 8 6 6 12 12 13 14 15 17 19 18 17 16 15 15 16 17 18 19 19 21 22 20 18 15 13 8
6 11 12 7 3 3 6 3 9 3 7 4 9 7 4 4 7 4 3 1 3 10 13 14 15 16 18 19 18 17 15 16 17 17 19 19 19 20 20 20 19 13 10
8 7 7 6 6 6 5 8 7 10 6 6 4 3 2 5 7 6 4 3 1 2 3 5 7 9 11 15 17 18 17 16 16 17 18 20 20 18 19 20 20 17 12
8 10 6 5 4 12 7 5 7 8 8 5 4 8 4 1 2 3 6 3 1 1 3 5 6 5 6 9 14 15 17 17 16 16 18 19 20 18 17 18 19 19 15
5 4 4 7 6 7 6 5 7 7 6 3 5 7 6 5 6 2 3 3 3 5 3 8 8 7 4 4 8 13 17 18 17 17 17 19 20 19 15 15 16 18 17
8 7 6 3 5 3 3 3 3 6 6 6 6 1 6 6 9 5 6 9 2 5 5 9 12 11 6 9 10 14 16 19 19 19 19 18 18 19 17 13 14 14 16
9 5 4 2 5 2 4 5 3 5 4 4 5 7 1 2 5 11 3 3 3 7 7 7 9 7 6 6 8 13 16 20 20 21 22 16 16 18 18 14 11 12 13
4 2 8 4 5 1 7 3 1 2 5 9 5 6 8 6 5 3 2 4 14 7 7 6 21 14 9 8 8 10 14 19 24 22 20 16 13 16 17 15 11 10 10
8 5 4 6 8 5 7 3 4 3 3 6 9 13 9 7 9 1 17 16 12 14 15 10 18 19 19 18 8 13 12 17 25 17 19 18 14 13 14 14 14 9 9
13 9 9 7 9 9 5 8 7 5 3 1 4 7 12 9 9 8 6 14 21 10 11 15 19 21 21 8 4 11 11 15 19 14 17 20 17 14 13 12 12 12 10
10 15 11 10 10 10 6 7 7 6 5 4 4 5 10 12 11 9 4 7 10 7 8 8 9 8 11 4 16 16 18 19 8 12 15 18 17 16 14 14 13 12 12
13 14 8 10 9 8 8 6 6 7 6 7 7 4 5 6 8 9 7 4 5 5 2 7 5 7 9 13 19 22 23 8 8 11 14 18 20 18 16 15 15 13 13
17 11 11 8 4 5 7 8 4 4 5 4 5 7 5 7 5 3 6 10 9 3 5 7 9 10 11 13 17 18 13 14 11 13 15 18 19 20 18 18 19 16 15
11 13 10 8 8 8 3 3 7 5 5 2 5 5 5 7 8 8 7 4 6 8 8 9 9 8 10 13 12 12 14 11 13 16 15 17 14 17 17 17 18 16 19
7 10 13 13 12 10 8 9 7 8 4 2 3 10 7 9 6 3 5 7 6 5 6 5 4 7 9 13 10 9 13 10 14 15 17 18 12 15 17 16 17 15 15
8 7 12 14 12 13 12 7 6 8 7 2 1 5 5 5 7 6 3 4 4 4 7 8 8 10 15 12 6 5 9 11 7 12 14 13 14 12 17 14 15 15 12
8 8 11 11 12 12 9 4 2 8 6 4 4 5 4 4 5 5 6 5 6 8 8 8 9 9 12 7 13 8 11 14 13 15 18 16 13 17 17 15 15 10 9
12 10 12 10 10 10 9 7 7 4 10 7 5 5 7 7 8 8 7 7 9 8 6 6 8 11 11 14 16 18 17 17 16 18 14 14 12 10 15 13 14 15 15
14 14 11 12 12 11 10 9 10 8 7 11 11 8 9 7 8 9 11 12 13 10 8 7 8 11 12 15 18 18 19 20 18 15 15 12 8 10 11 13 14 12 12
18 17 13 12 15 14 13 10 11 14 11 10 11 8 14 12 11 9 8 8 8 9 9 9 10 12 14 15 16 19 17 16 18 16 15 12 12 14 13 14 13 10 9
24 15 17 17 14 11 13 13 11 13 14 14 14 10 14 16 11 10 10 11 12 9 8 9 10 11 13 11 11 9 10 11 13 15 15 13 15 13 15 11 9 10 5
18 20 22 15 12 12 12 13 14 15 17 18 18 17 15 13 13 13 13 13 12 11 9 10 12 6 5 5 6 9 10 9 5 13 16 16 17 15 11 9 11 9 9
15 18 18 18 21 16 11 11 8 10 11 12 14 14 13 13 13 12 8 8 8 6 5 3 1 1 4 6 5 5 8 12 13 12 12 14 15 13 10 6 8 9 9
15 15 15 13 16 16 11 8 6 10 10 8 6 8 9 9 8 7 7 6 4 3 1 5 3 5 6 3 3 6 9 12 14 15 16 15 14 18 15 8 18 16 14

GFSMA_850_spd_114.txt.gz
Wind_Speed
7 7 10 13 11 7 7 13 10 12 8 6 5 6 4 5 8 8 9 10 11 11 12 13 13 13 13 13 13 13 14 15 16 16 16 18 18 16 12 10 7 4 1
7 6 10 12 8 7 4 3 3 3 3 5 3 2 4 5 10 12 11 11 12 13 14 14 14 14 14 13 13 13 14 15 16 17 17 17 18 17 15 11 9 7 2
7 6 4 4 2 3 8 3 1 2 6 7 7 4 5 6 5 7 11 12 12 14 16 16 16 16 16 15 14 14 14 15 15 16 18 17 16 17 16 14 10 9 4
6 4 1 3 3 10 4 3 3 2 3 11 6 5 2 3 4 6 4 5 7 8 9 10 12 13 15 15 15 15 15 15 15 16 17 17 16 15 16 16 13 10 7
7 4 4 5 3 1 5 6 9 5 2 0 4 5 6 5 6 5 3 4 4 6 8 8 10 11 11 14 16 16 17 17 16 16 17 17 16 14 14 15 15 13 9
4 5 7 3 4 6 5 6 6 6 5 2 6 8 2 3 2 6 8 7 6 8 4 5 6 7 7 8 14 16 16 17 18 18 17 16 16 13 12 13 15 14 12
5 6 4 6 4 3 2 6 5 7 5 4 5 3 8 5 3 2 5 5 6 9 8 8 9 9 7 8 6 10 14 17 19 20 18 15 15 14 11 11 12 14 13
7 5 10 7 8 3 2 4 5 6 7 6 3 4 4 4 8 8 10 11 7 10 11 10 9 9 7 6 8 8 11 15 20 20 18 14 14 14 11 8 10 12 14
7 4 7 4 6 4 4 3 5 6 6 1 3 3 3 3 6 8 4 5 3 7 7 8 14 12 9 9 10 9 11 14 20 18 20 15 11 13 11 8 8 9 11
4 4 4 3 7 3 4 3 4 7 6 8 4 3 1 3 2 6 6 7 2 6 9 10 13 17 13 10 12 11 13 12 16 16 19 17 11 11 10 9 7 7 8
9 6 1 7 4 4 6 6 3 2 5 8 8 8 6 3 3 3 10 9 7 10 9 8 17 15 14 18 9 9 13 12 15 11 16 18 13 10 9 9 9 7 7
14 11 9 7 6 9 6 7 6 2 1 4 4 6 6 8 6 4 3 10 7 3 6 7 13 15 12 2 11 12 13 11 7 10 14 16 13 10 10 9 8 8 8
14 17 12 11 7 7 8 5 8 8 6 3 1 3 8 7 6 6 6 7 7 7 6 6 8 11 14 12 12 13 12 10 10 12 11 9 10 10 10 10 9 7 7
12 13 15 11 7 8 10 9 8 7 6 5 4 1 1 3 6 7 7 6 5 4 6 4 5 8 6 7 10 10 10 13 11 12 9 7 11 12 13 16 13 11 10
11 12 16 9 8 9 8 8 7 10 7 6 5 6 3 2 2 2 1 5 2 0 2 3 6 5 6 6 6 9 11 10 12 14 12 8 6 10 11 13 12 12 14
12 15 14 12 11 8 3 7 9 9 7 6 7 6 4 5 2 4 4 6 5 3 5 6 5 7 8 8 9 9 11 15 5 10 9 10 4 7 11 13 13 12 11
9 11 15 14 14 12 9 10 7 10 8 7 4 7 8 7 8 7 4 7 8 7 8 8 5 9 6 4 7 7 8 7 4 8 9 8 3 6 12 13 14 13 7
10 8 15 15 14 11 12 11 10 11 12 8 7 4 3 7 9 6 6 7 8 7 8 7 8 7 4 5 7 5 8 8 11 14 14 13 10 11 14 12 12 8 6
12 10 11 14 14 13 14 12 10 9 11 11 7 5 3 2 2 2 4 6 4 6 9 11 9 8 9 10 10 12 12 12 11 13 14 12 9 8 8 7 13 11 10
10 11 9 10 11 15 15 13 11 6 10 9 8 10 9 7 5 5 6 7 8 8 8 8 8 9 11 11 13 14 11 12 10 8 7 7 6 6 5 4 5 8 9
15 10 10 13 13 13 14 15 13 9 8 10 13 11 11 9 10 8 7 9 9 7 7 8 9 9 9 10 11 13 14 9 6 8 9 9 11 8 5 6 7 6 5
23 19 16 15 16 15 16 12 13 13 12 9 12 14 13 10 8 9 8 7 6 7 9 9 8 7 7 10 8 7 8 8 11 9 12 10 12 11 8 9 6 1 3
22 22 21 17 15 17 17 14 13 12 13 13 11 11 11 10 12 10 11 11 11 10 9 8 7 8 6 5 3 4 6 7 8 11 11 12 10 9 9 6 5 4 6
25 26 23 22 17 20 16 14 14 15 14 14 15 15 14 13 12 11 12 11 10 9 7 8 8 6 5 5 7 8 7 8 6 11 13 12 10 8 4 3 7 8 7
21 20 20 18 21 22 17 16 11 12 12 12 13 14 13 12 12 11 11 10 7 6 6 7 5 6 8 8 8 6 8 12 12 11 12 12 14 12 3 5 12 12 9
15 14 15 16 18 20 21 16 14 10 12 10 9 10 12 12 11 10 9 8 7 6 6 6 5 5 5 5 7 8 9 13 14 8 10 11 12 16 9 4 17 15 13

GFSMA_850_spd_117.txt.gz
Wind_Speed
7 4 4 6 3 3 7 6 7 7 5 4 4 10 8 12 11 11 11 10 11 11 11 12 12 12 12 12 13 13 15 15 16 18 18 17 18 17 15 12 10 6 4
8 10 9 8 6 7 6 6 5 3 4 5 5 6 9 12 11 11 11 11 13 14 15 15 15 14 13 13 12 13 14 15 16 17 19 18 17 17 17 15 11 7 1
7 7 7 5 5 3 5 3 3 3 3 4 4 6 7 8 7 9 11 11 13 13 13 12 11 12 13 14 15 14 13 13 15 17 18 19 17 16 17 17 12 7 1
7 7 8 8 9 7 7 5 4 4 5 6 4 3 5 5 5 6 6 7 5 3 3 3 3 5 8 11 13 14 14 15 16 17 18 19 19 15 16 17 14 8 4
6 6 7 7 5 6 6 6 8 6 5 2 1 4 6 7 3 1 0 1 0 1 2 4 6 7 6 7 11 12 15 18 18 18 19 18 18 15 14 15 15 10 7
2 4 4 3 3 4 4 5 6 3 4 2 1 2 1 2 4 3 3 3 3 4 4 4 6 8 7 8 9 10 13 17 19 20 19 17 17 16 12 13 15 11 8
2 4 2 5 5 2 1 5 6 6 1 3 3 3 6 7 7 8 7 7 8 7 8 10 10 11 10 8 5 10 12 16 18 20 20 17 16 16 12 10 12 13 11
6 4 5 7 5 1 3 1 4 3 3 0 2 3 3 3 7 8 10 12 13 11 10 8 10 12 10 10 9 8 13 14 18 18 21 20 15 15 12 8 8 10 10
5 4 7 4 7 4 5 3 4 1 1 3 1 2 2 4 6 4 7 8 8 8 9 7 6 10 11 10 16 8 11 11 16 16 19 21 17 14 12 8 6 7 7
7 5 6 7 7 5 5 5 1 4 3 1 2 0 1 3 4 5 8 6 8 6 7 9 9 14 9 5 13 9 12 13 13 13 17 20 18 15 10 8 5 6 6
9 8 4 8 6 4 6 6 3 1 2 3 2 2 3 3 3 5 7 8 12 12 13 12 13 15 11 2 7 10 11 8 7 12 15 18 16 14 10 8 7 6 6
13 11 9 7 9 7 6 8 8 5 3 0 1 3 2 4 3 4 3 6 7 3 4 8 11 21 18 12 11 12 12 9 10 13 15 15 12 10 9 9 8 8 8
15 16 14 13 10 8 10 8 9 9 7 5 5 2 1 1 4 4 4 5 7 6 7 7 8 12 10 9 9 8 7 10 13 12 10 10 10 10 10 10 10 10 9
13 15 19 14 11 11 9 10 8 10 9 9 9 6 5 4 4 4 6 6 5 5 7 7 7 8 6 7 5 6 7 10 9 10 11 10 9 9 10 11 11 11 12
13 16 15 16 13 11 10 10 12 11 11 9 9 10 8 7 6 5 4 3 3 5 7 5 6 7 7 8 9 8 10 8 8 10 8 9 5 9 10 11 10 10 11
13 16 14 14 13 11 10 11 11 9 10 9 10 7 6 6 6 5 5 7 4 4 6 4 7 8 7 5 6 7 10 9 6 6 9 10 8 7 11 14 13 11 9
13 13 14 14 14 14 11 8 8 10 11 10 11 11 9 7 7 7 5 7 7 6 7 9 6 6 4 4 6 6 6 6 9 12 15 16 12 12 13 17 13 13 2
9 11 13 14 16 15 15 11 9 10 11 11 9 8 8 9 10 10 8 8 8 8 8 8 8 8 7 8 9 8 11 12 15 15 15 12 12 10 8 5 5 8 6
11 11 10 16 17 16 15 11 11 11 12 13 12 8 5 6 6 6 6 7 8 7 9 10 11 11 9 12 12 11 11 10 10 9 8 4 2 3 3 1 6 6 5
12 12 11 12 14 16 16 13 13 12 9 12 15 15 12 12 10 10 9 8 8 10 11 10 10 10 11 12 13 13 9 8 3 3 6 8 5 3 3 4 3 4 4
16 13 13 13 14 13 12 13 15 16 12 14 18 15 14 12 11 13 12 11 12 9 7 7 8 9 10 10 11 10 8 4 1 5 7 9 7 6 5 3 3 7 7
19 20 19 16 13 14 13 12 12 14 15 16 16 16 16 14 12 11 12 10 8 7 9 9 9 9 10 10 8 7 7 7 4 7 9 9 5 7 8 8 7 6 6
21 20 24 21 18 15 14 12 14 14 14 15 15 13 13 12 11 13 14 12 11 12 12 11 11 10 10 9 8 6 7 8 8 8 10 5 3 3 7 7 8 8 8
25 25 24 24 20 17 17 11 12 13 14 13 15 15 16 16 14 14 14 14 13 13 12 11 10 11 10 9 9 8 5 5 7 10 10 5 3 1 2 8 8 8 7
23 24 22 26 25 20 19 18 9 7 8 11 12 13 15 16 14 14 13 12 13 14 12 11 10 9 9 10 10 9 6 5 6 10 10 6 5 2 5 3 10 7 4
20 19 18 19 18 18 18 17 17 16 14 14 14 7 12 15 14 12 12 11 12 12 11 9 8 8 8 8 8 8 9 10 12 9 8 5 5 7 3 5 10 7 7

GFSMA_850_spd_120.txt.gz
Wind_Speed
6 3 3 6 7 7 7 8 7 6 5 5 9 9 9 10 12 13 12 12 13 12 11 10 10 10 10 11 12 13 14 15 16 16 17 16 16 18 18 16 13 10 6
7 9 6 9 9 8 6 5 4 4 5 6 7 10 12 15 15 13 13 14 13 10 9 9 10 10 11 12 12 14 15 15 16 17 17 17 16 16 18 19 15 10 4
9 9 7 7 6 7 5 3 3 3 4 6 8 9 11 12 12 12 12 10 7 6 5 4 6 8 10 11 13 13 13 14 16 17 17 17 17 15 17 19 16 11 5
8 8 8 9 8 5 6 7 6 8 7 7 7 6 5 6 8 9 7 4 1 3 4 5 7 6 6 8 11 12 13 15 16 18 17 17 17 16 15 18 16 12 7
8 9 10 9 7 7 7 9 8 8 7 6 3 4 4 3 2 2 2 2 2 3 4 5 7 9 9 8 8 10 11 15 18 19 17 16 18 17 14 16 18 12 10
5 8 8 6 7 5 6 6 6 4 5 3 1 3 3 2 1 2 1 2 4 6 6 8 9 10 9 9 8 10 11 14 16 19 19 15 16 18 14 14 16 13 10
2 3 3 5 5 3 3 4 4 5 2 4 4 2 3 5 5 6 6 6 8 10 9 11 8 10 8 7 7 8 10 12 16 17 20 18 16 18 15 12 13 13 9
3 2 3 6 5 2 1 1 1 2 1 1 1 1 1 4 7 8 7 8 10 10 10 9 7 8 8 6 10 5 9 11 14 15 17 19 18 17 15 11 9 10 10
6 4 4 4 5 4 3 4 2 1 1 2 1 1 1 3 7 8 7 7 8 9 8 8 8 13 13 8 11 5 7 10 10 12 15 17 18 16 14 12 8 8 8
7 5 5 4 4 4 4 6 2 2 1 2 2 2 2 4 4 6 8 9 10 11 11 12 8 11 11 5 5 7 8 6 8 11 14 15 14 13 12 12 11 8 7
8 9 5 7 6 6 6 6 4 3 1 1 1 2 3 5 4 6 9 6 7 9 6 7 9 14 11 7 5 6 6 7 8 12 15 14 12 11 11 10 10 9 8
9 10 9 6 8 6 5 7 7 6 4 2 1 2 1 2 3 4 4 6 7 6 3 6 10 9 7 6 7 7 7 9 10 12 13 14 13 14 12 13 13 12 10
14 12 12 11 9 9 9 8 8 10 8 7 5 3 3 2 3 4 4 6 6 5 5 5 7 7 7 6 5 5 7 9 10 9 9 11 12 12 13 13 13 14 15
14 14 16 15 12 10 12 12 10 9 11 10 10 8 7 6 6 5 4 5 5 4 5 5 8 9 11 10 11 6 7 9 9 8 9 9 6 7 9 12 12 12 11
16 16 16 16 17 13 13 14 14 12 11 11 10 10 11 10 9 8 6 5 5 6 5 5 5 8 9 8 8 8 10 10 6 7 10 11 11 9 9 10 12 11 12
13 13 16 14 17 15 14 15 13 13 11 11 10 10 8 8 8 8 9 8 8 7 6 6 6 6 7 7 5 6 8 7 8 9 12 15 16 13 13 13 14 12 9
12 13 15 18 16 17 15 13 13 13 11 11 10 10 11 11 8 8 8 8 9 9 9 9 6 5 6 8 8 9 10 10 11 13 16 19 15 12 11 10 8 10 1
12 12 17 17 17 18 17 16 13 11 10 12 10 10 8 9 10 10 9 9 10 9 10 10 8 8 8 9 10 13 14 13 11 11 15 15 13 10 6 6 4 5 7
14 12 11 12 17 17 17 17 15 13 12 13 13 12 9 9 8 8 8 8 8 6 7 9 9 9 8 9 8 9 8 6 5 5 10 12 12 9 5 5 8 7 5
18 16 14 13 13 17 18 19 17 15 14 15 15 14 13 13 12 10 10 9 9 9 11 12 10 9 9 9 9 8 4 1 4 6 7 9 11 10 8 5 6 7 9
21 19 17 15 13 15 17 19 17 14 16 15 17 14 13 13 12 11 12 12 10 11 9 8 9 9 10 9 9 5 4 1 6 5 7 6 8 8 8 7 7 10 10
21 20 19 17 17 17 17 14 14 14 17 16 14 13 14 15 14 14 11 11 10 8 7 8 9 9 9 8 6 3 2 3 2 6 4 5 6 8 10 12 11 10 10
23 23 21 24 20 19 17 13 12 14 13 16 16 14 14 13 14 13 12 14 13 12 11 11 9 9 9 8 5 3 4 4 4 4 1 3 3 6 6 7 8 8 7
26 25 22 21 22 22 21 13 11 13 14 14 15 17 17 15 15 15 16 14 14 14 12 11 10 9 9 6 5 5 4 3 4 4 3 3 3 2 2 5 5 5 3
21 18 22 19 22 26 28 21 15 9 6 9 13 14 16 16 16 16 16 15 15 14 13 10 9 8 6 6 6 5 4 3 5 7 6 4 3 7 6 4 7 6 5
25 20 22 19 22 22 29 30 20 17 17 11 11 12 13 13 9 12 13 14 15 13 12 9 7 6 6 6 6 5 5 6 7 8 6 3 4 3 7 9 6 4 4

GFSMA_850_spd_123.txt.gz
Wind_Speed
6 6 8 10 9 7 6 6 5 5 6 10 13 12 12 13 13 12 11 10 9 9 10 10 11 11 11 13 13 14 15 16 16 16 16 15 15 15 17 20 17 14 8
7 9 10 10 9 8 6 4 4 5 8 10 14 15 15 14 13 12 11 10 9 8 8 8 8 8 9 11 13 14 14 16 17 17 16 16 15 14 17 20 17 14 9
8 9 8 7 7 5 3 1 3 6 10 13 13 14 14 13 11 11 10 7 5 6 7 7 8 9 9 10 12 12 14 17 17 17 16 16 16 14 17 20 16 15 10
8 7 7 7 5 5 5 6 8 10 11 11 10 10 9 8 8 7 4 2 4 7 8 9 9 9 10 10 10 11 12 16 17 18 16 15 16 14 16 19 16 16 10
7 8 8 7 5 6 8 9 10 10 10 9 7 7 6 4 3 2 2 2 3 5 7 9 10 12 12 10 9 9 11 14 15 18 18 14 16 15 14 17 17 16 12
7 7 7 6 5 5 6 7 7 7 6 3 4 4 2 2 2 2 3 2 4 7 8 10 12 11 10 10 10 11 11 12 13 16 17 15 15 16 14 14 16 15 12
6 6 5 6 4 3 4 4 6 6 4 4 5 4 2 4 4 4 4 5 7 10 11 11 9 7 9 10 10 11 10 11 12 14 16 16 15 15 14 13 14 14 14
4 5 5 5 4 2 1 1 1 2 2 2 3 3 2 4 7 8 8 8 9 9 9 9 8 9 12 10 11 9 8 11 10 12 14 15 14 14 14 12 12 12 12
5 5 5 6 5 3 2 3 3 2 1 1 1 2 2 2 5 7 8 9 9 10 8 10 11 11 14 9 6 8 9 10 9 12 14 13 12 13 12 12 11 9 9
7 6 7 5 5 4 5 5 2 2 2 2 2 2 3 3 1 4 6 8 9 10 10 11 6 9 6 5 4 8 9 8 10 13 14 12 12 12 12 12 12 10 9
8 9 5 7 7 6 6 6 6 3 2 1 1 3 4 4 3 3 4 7 7 5 5 8 9 8 7 5 5 7 8 9 10 11 13 15 16 15 14 16 16 14 11
9 9 8 7 9 7 7 8 8 6 5 3 2 2 2 2 3 4 4 6 5 5 3 3 7 7 7 6 5 5 7 9 9 9 8 10 13 13 13 14 15 15 16
11 11 11 12 10 10 10 9 8 9 9 8 7 5 4 4 4 4 5 5 5 2 2 3 6 7 9 8 7 4 5 8 8 9 6 8 7 8 10 10 11 13 12
14 13 13 13 12 11 11 11 12 10 10 10 10 10 8 8 7 6 6 5 5 3 4 1 4 7 10 8 5 3 4 6 7 4 6 9 9 9 9 9 10 10 11
15 16 17 15 15 16 13 12 12 14 12 10 11 11 11 12 11 10 9 7 5 6 5 4 3 9 8 5 5 6 7 5 7 8 10 12 14 14 12 11 10 12 10
15 16 16 16 15 15 16 14 14 14 15 13 12 11 9 9 10 10 9 9 10 8 8 7 5 7 4 3 5 6 7 10 11 12 13 16 16 14 13 12 10 11 9
15 13 14 15 17 15 18 17 13 14 15 14 12 11 10 10 12 10 9 9 10 10 8 8 9 9 7 6 8 9 9 9 12 12 14 15 14 11 10 9 10 7 3
16 15 14 15 17 19 17 18 15 13 13 13 13 14 12 11 11 12 11 11 9 10 9 10 9 9 9 8 9 9 5 3 11 11 13 13 12 10 7 8 8 6 3
19 16 14 13 15 17 18 18 15 15 15 15 15 16 14 12 11 10 9 9 7 9 8 8 8 9 8 7 6 6 4 2 7 8 10 12 12 11 7 5 7 7 7
21 19 17 15 15 15 17 17 17 17 17 17 16 16 16 15 13 12 10 10 9 10 10 11 10 7 6 5 3 2 2 2 2 4 7 9 10 10 9 7 6 7 8
24 22 21 19 17 15 14 16 17 18 20 18 17 12 13 16 14 12 11 11 12 11 11 9 6 6 5 4 1 1 4 4 1 3 4 5 6 7 7 8 8 9 9
26 25 24 21 19 18 15 14 16 17 18 19 18 17 18 17 16 14 13 12 10 9 9 10 9 9 9 6 4 3 4 6 2 2 4 5 5 5 5 6 8 9 10
25 24 22 22 21 20 18 15 15 17 17 16 17 18 17 16 13 14 14 13 13 12 11 11 10 10 9 8 5 3 4 5 5 4 2 4 5 6 3 4 4 5 6
28 25 24 22 24 23 25 19 19 18 15 15 15 15 17 17 14 13 14 14 13 13 12 11 10 10 10 8 6 5 5 5 6 4 4 4 5 4 3 3 3 3 5
26 27 23 21 22 22 24 24 21 18 12 10 13 14 13 14 15 15 17 17 15 14 12 11 11 10 8 7 7 6 5 5 5 6 7 7 7 7 6 6 6 5 5
26 25 20 14 13 16 16 22 34 29 22 16 10 7 9 9 9 8 9 12 14 12 12 10 8 7 6 5 5 6 7 6 6 8 9 10 9 8 5 12 10 7 6